GFSNGP_sfc_dewp_000.txt.gz
Dewpoint
28 27 27 29 30 32 30 28 23 24 25 25 27 26 28 30 35 37 34 33 35 41 40 38 35 32 30 28 27 29 27 28 27 26 24 24 24 23 23 24 23 24 22 22
20 22 23 22 22 23 25 29 29 28 26 27 29 30 37 35 35 35 31 34 41 41 37 35 33 29 27 26 25 25 24 24 21 17 17 18 18 19 19 19 19 20 19 21
15 25 25 23 25 24 21 22 21 18 21 28 29 33 35 36 35 33 32 40 40 37 35 33 28 26 25 24 23 20 22 16 14 14 14 15 15 15 16 15 17 17 17 18
22 25 22 27 29 28 26 28 27 27 29 32 34 34 34 35 36 32 38 39 37 34 32 29 25 24 22 21 16 14 15 12 13 13 13 13 13 13 13 13 14 14 15 14
25 25 27 29 30 30 29 30 33 33 34 35 34 33 32 37 36 37 38 37 34 32 30 25 22 19 15 12 9 9 11 12 12 13 12 12 12 12 12 12 13 14 12 13
25 23 23 27 31 32 30 25 35 35 35 36 36 32 33 37 38 38 36 33 31 29 25 21 16 11 8 8 8 8 11 12 13 14 13 12 13 13 13 14 13 13 13 13
28 26 28 31 32 33 25 24 36 36 35 36 35 35 36 38 36 35 33 31 28 25 21 16 9 7 7 8 8 9 12 14 14 14 14 13 14 14 15 15 15 15 14 13
27 25 23 33 35 31 32 36 34 34 34 34 36 38 37 36 35 34 32 27 24 20 15 10 10 8 8 8 9 11 13 14 14 14 14 14 16 17 17 16 15 14 15 15
30 28 33 34 34 34 35 33 33 35 34 34 36 37 37 36 35 34 28 22 17 16 13 10 10 10 9 10 11 13 14 14 14 14 14 14 17 17 17 16 16 16 16 19
32 33 34 33 34 34 35 34 34 34 34 34 33 35 35 35 34 31 24 17 15 12 9 10 11 11 10 11 13 14 14 14 14 14 16 16 15 16 17 16 16 17 20 21
33 34 34 34 34 35 35 35 35 35 35 33 33 34 34 35 35 26 19 16 13 12 12 12 12 11 12 13 14 14 14 14 14 15 15 16 16 16 16 17 20 21 22 22
31 34 34 34 35 36 35 35 35 34 33 34 34 34 35 33 24 19 15 14 12 12 12 12 12 12 13 14 15 15 14 14 15 16 16 16 16 16 22 24 26 26 26 24
34 35 34 35 35 34 34 34 34 34 32 33 36 35 31 18 14 15 10 11 11 12 13 13 13 13 14 15 16 16 15 15 16 18 17 16 16 17 18 21 25 25 25 25
34 35 34 35 34 34 34 35 36 36 36 37 35 29 20 15 10 10 10 12 12 12 13 13 13 13 14 16 16 16 16 21 18 17 18 18 19 19 20 19 19 19 22 23
35 35 34 33 33 34 35 34 33 32 32 33 30 23 13 10 10 11 12 12 13 13 13 13 13 13 14 16 16 16 16 17 18 18 19 20 19 19 19 20 19 18 19 22
33 30 29 32 31 33 33 33 33 32 31 28 23 13 10 10 11 12 13 13 13 13 13 14 14 14 16 17 17 17 18 21 20 18 19 19 19 19 19 18 19 20 21 20
28 25 23 24 32 31 32 33 32 32 31 22 12 11 11 12 12 13 13 13 13 13 14 15 14 15 17 17 17 18 18 19 21 18 19 19 19 19 19 21 22 20 19 21
29 28 30 31 31 31 32 31 31 28 18 12 11 11 12 12 11 12 12 13 13 13 14 14 16 17 17 19 19 19 19 18 18 18 19 19 19 21 20 19 20 21 20 21
31 29 30 30 31 31 31 30 25 15 13 11 12 11 12 12 13 12 13 12 12 12 12 14 18 19 17 19 19 18 17 17 17 18 19 21 21 22 23 21 19 20 22 19
25 24 25 28 30 29 26 19 15 12 11 12 12 12 12 12 12 12 13 12 13 13 15 16 17 17 16 17 20 18 18 18 19 19 19 18 19 20 21 21 20 20 17 17
25 22 17 19 22 19 18 14 12 10 10 12 12 11 12 12 12 13 12 11 12 14 16 19 16 16 16 17 19 19 18 18 18 18 19 19 19 19 19 19 17 16 17 17
25 24 21 15 11 11 11 11 11 12 12 13 13 12 12 12 13 13 14 13 14 19 17 16 16 17 17 21 18 18 18 17 16 15 15 15 16 17 17 17 17 18 18 19
26 27 23 18 14 12 12 13 14 14 14 14 13 13 12 13 13 13 12 13 15 17 15 14 17 20 21 18 17 16 14 13 14 14 15 16 17 17 17 18 19 20 20 19
25 26 25 19 15 12 12 14 15 15 14 14 14 15 15 14 14 14 15 17 18 16 15 15 17 20 21 15 13 13 13 14 14 16 15 19 18 19 19 20 20 20 20 19
22 20 16 14 16 15 16 16 14 13 14 13 13 13 13 14 13 12 13 13 17 16 13 16 18 18 13 12 13 13 13 15 16 17 19 18 17 18 19 19 20 20 21 21
21 23 21 18 17 17 17 16 14 13 12 13 13 13 13 13 13 14 12 14 12 13 10 10 10 12 13 13 13 13 14 15 15 16 17 17 18 18 19 19 20 20 19 19
16 20 16 18 16 15 14 13 13 13 12 12 12 13 14 13 12 12 12 9 9 9 10 11 12 13 13 14 14 14 14 15 17 16 18 19 18 18 18 19 19 20 20 19

GFSNGP_sfc_dewp_006.txt.gz
Dewpoint
25 30 31 30 30 27 25 25 24 25 24 27 27 28 28 30 32 35 37 35 40 40 36 32 28 25 24 22 18 18 14 14 15 16 15 15 16 16 16 16 15 14 14 14
20 23 22 25 29 28 27 26 25 27 26 27 30 33 35 34 34 36 36 34 40 39 35 31 26 24 23 20 13 13 13 14 15 15 16 16 16 15 15 15 14 14 14 15
21 23 22 18 21 30 28 27 28 26 26 27 33 34 35 36 35 35 35 34 40 36 33 28 25 23 20 14 10 11 13 13 14 15 15 16 15 14 14 13 14 14 14 14
18 24 13 20 31 24 25 27 26 30 31 33 34 34 33 34 36 35 34 38 37 34 29 25 23 20 15 10 9 11 11 12 14 15 15 15 15 14 14 14 14 14 14 14
22 20 22 29 28 30 28 31 33 33 33 33 32 33 33 36 36 35 35 37 34 31 27 23 18 12 8 8 8 9 10 11 13 14 14 14 14 14 14 14 14 14 14 14
25 23 20 25 31 31 32 29 35 35 35 35 34 30 32 36 37 36 36 33 30 27 23 17 10 7 7 7 7 8 11 12 14 15 15 14 14 14 14 15 15 15 15 15
28 26 27 30 32 32 26 27 36 34 33 34 32 33 35 37 35 34 32 30 27 24 18 12 8 8 8 7 7 10 13 14 14 15 15 14 14 15 15 16 16 15 15 15
28 26 24 33 33 29 32 34 33 33 33 32 33 35 37 36 35 32 30 28 24 18 12 9 10 9 8 7 10 12 13 14 14 14 14 14 16 17 17 16 15 15 15 16
29 29 33 34 33 35 34 33 33 33 33 33 34 35 36 36 35 33 28 25 21 17 11 8 10 10 7 9 12 13 13 13 13 14 14 14 16 17 16 16 15 15 15 17
31 33 33 33 34 34 34 34 34 35 35 34 33 33 33 35 35 32 26 21 17 11 7 8 10 10 10 11 12 13 12 13 13 14 15 16 16 17 17 15 15 16 18 19
32 34 34 34 35 34 34 35 35 34 33 33 32 31 32 33 33 30 24 18 14 11 10 9 10 10 11 12 13 12 13 13 13 14 15 16 16 17 16 16 19 19 19 20
30 34 33 33 35 35 35 34 34 33 32 31 31 32 33 33 34 28 21 16 13 10 10 9 11 11 12 13 13 13 13 13 14 15 16 16 16 16 20 22 23 23 24 22
33 34 34 34 35 33 34 34 33 33 32 31 32 33 33 30 24 23 14 11 10 9 11 11 11 12 13 13 14 14 14 13 15 17 16 15 17 17 17 18 22 23 23 23
34 35 34 32 33 32 34 35 36 34 34 35 34 34 29 20 18 13 10 9 11 11 12 12 12 12 12 14 14 14 15 20 16 16 17 18 18 17 16 16 16 17 21 22
33 33 33 32 32 32 32 31 29 30 32 33 34 33 24 18 13 10 9 11 12 12 11 11 12 12 13 15 15 15 15 16 17 18 19 19 17 16 16 17 17 17 18 21
32 33 29 30 32 29 31 27 29 29 30 32 32 31 25 16 10 9 11 12 11 10 11 12 13 13 15 16 16 16 17 20 20 18 17 16 16 16 17 17 17 19 20 18
30 28 25 22 22 26 27 29 30 31 32 29 28 27 17 10 10 11 11 11 12 12 12 13 13 14 16 16 17 17 17 18 21 16 16 16 17 17 18 21 20 19 19 19
30 28 26 24 26 27 27 28 29 29 29 29 27 21 12 10 10 9 10 12 11 11 12 13 14 16 17 18 18 18 17 17 16 16 17 18 18 18 17 18 19 18 19 19
28 27 27 28 27 27 28 28 29 28 27 24 16 12 11 11 10 11 12 11 10 10 11 13 17 19 17 18 18 17 17 16 16 17 18 19 17 17 18 17 17 17 17 16
28 27 26 24 26 27 27 28 26 26 22 14 12 11 10 11 11 11 11 11 12 12 14 16 17 18 17 17 20 18 17 17 17 17 16 15 15 14 15 16 16 15 16 16
25 24 22 21 20 21 26 26 24 21 17 12 11 10 10 11 12 12 11 10 11 13 16 19 16 16 16 17 18 18 18 17 16 15 14 13 13 13 14 15 15 15 16 16
22 23 23 23 21 20 17 15 18 18 15 11 11 11 11 12 12 13 13 12 14 19 17 16 16 17 17 21 17 17 16 15 13 12 12 13 14 14 15 15 16 17 18 18
21 22 22 23 23 22 18 15 12 11 11 10 11 12 12 13 13 12 11 12 15 17 15 14 17 19 20 16 16 15 13 12 12 12 13 14 15 15 16 17 17 18 17 17
22 22 22 23 22 20 20 18 13 12 12 14 14 14 14 12 12 13 14 16 18 16 14 14 15 18 19 14 12 12 12 12 13 14 14 18 16 17 17 16 16 17 18 18
18 16 15 15 19 21 17 14 13 13 14 14 13 13 13 13 12 12 13 13 16 15 12 15 16 17 12 12 12 12 12 13 13 15 17 17 16 16 17 17 17 17 19 18
19 20 21 20 21 19 17 16 15 14 13 12 12 12 13 13 13 12 11 13 11 12 9 9 10 11 12 11 12 12 13 14 14 15 16 17 16 17 17 16 16 16 17 17
15 20 15 18 17 16 15 14 13 12 12 12 12 13 12 11 10 11 11 9 9 9 9 9 10 11 11 12 12 12 13 14 16 16 17 17 16 16 16 16 15 16 16 16

GFSNGP_sfc_dewp_009.txt.gz
Dewpoint
25 30 30 29 29 25 25 25 24 25 24 25 27 29 31 31 32 35 36 37 39 39 35 30 26 24 22 18 14 13 11 12 13 14 15 15 15 15 14 15 14 13 13 13
22 26 28 29 30 27 26 26 26 25 25 27 30 31 34 34 34 35 37 37 40 38 34 29 26 24 22 15 10 12 11 12 14 14 15 15 15 14 14 14 13 13 13 14
23 24 22 22 24 29 28 28 26 25 28 28 33 34 34 35 35 36 37 36 40 38 33 28 26 24 18 9 9 10 10 11 13 14 14 15 14 14 14 13 14 13 12 13
20 22 17 24 29 30 29 26 27 27 27 30 34 33 32 34 34 35 36 35 39 35 30 26 24 20 12 9 8 9 10 11 13 14 14 14 14 13 13 13 13 13 13 13
23 19 22 28 28 27 27 28 30 32 33 33 33 33 34 36 36 36 35 38 37 32 26 24 19 13 8 8 7 8 10 11 12 13 13 13 12 13 13 14 14 13 13 14
28 22 18 24 31 31 32 27 35 34 34 33 34 30 32 36 37 36 36 34 31 26 22 17 10 8 7 6 6 7 10 12 13 14 13 12 13 13 14 15 14 14 14 14
28 24 26 29 32 31 26 26 36 35 35 35 32 33 35 37 35 34 32 29 26 23 19 12 8 7 7 6 5 9 12 13 13 13 13 13 14 14 15 15 15 15 14 14
28 25 21 32 33 29 32 34 34 33 33 33 33 36 37 37 35 32 30 28 24 18 12 9 10 8 7 5 9 12 13 13 13 12 12 13 15 16 16 16 15 15 14 15
27 27 34 34 34 35 34 33 33 34 34 33 34 35 37 37 35 32 30 26 22 17 11 9 10 8 6 8 11 12 13 12 12 12 12 14 16 16 16 15 15 14 15 17
30 33 33 34 34 34 34 34 34 35 34 33 34 34 34 36 35 33 28 23 19 14 9 9 10 9 9 11 12 12 11 11 12 12 15 14 15 16 16 16 16 16 17 18
32 34 33 34 34 34 35 35 34 34 34 33 33 33 33 34 35 33 27 22 17 13 11 10 10 10 11 12 13 11 11 11 12 13 14 15 16 16 16 17 19 18 18 19
30 34 34 33 34 35 35 34 34 34 33 33 34 33 34 34 34 30 24 17 14 12 10 9 10 11 12 13 13 12 11 11 12 15 16 16 15 16 21 22 23 23 24 22
33 34 34 35 34 35 34 34 34 33 34 33 34 34 35 33 31 28 20 15 12 10 10 11 11 11 12 13 13 13 13 12 14 17 14 15 17 17 17 18 21 22 23 23
34 34 33 33 34 33 34 36 36 34 34 34 35 35 32 23 23 17 12 11 11 11 11 11 11 11 12 13 13 14 14 20 16 15 17 18 18 18 16 16 16 16 20 22
32 33 34 33 32 33 33 32 30 29 31 32 33 32 30 23 19 13 10 11 11 11 11 10 11 11 13 14 14 15 15 15 16 18 18 19 17 16 16 16 17 17 18 20
32 30 30 31 31 32 31 30 29 29 31 31 31 32 30 21 15 10 11 12 10 9 11 12 12 13 14 15 16 16 16 19 20 17 17 16 16 16 17 17 18 18 17 17
30 27 28 24 24 28 28 28 29 30 31 32 30 29 24 14 10 11 11 11 11 11 12 13 13 14 16 16 17 17 17 17 20 16 16 16 17 17 17 18 17 17 17 17
32 30 26 23 24 26 27 28 29 29 30 30 29 27 18 11 11 9 10 11 11 11 12 12 13 16 18 18 18 18 18 17 17 17 17 17 17 17 17 17 17 16 17 16
25 26 26 26 26 26 27 27 28 28 28 28 26 22 17 12 10 10 11 11 10 10 11 13 17 19 17 18 18 18 17 17 17 17 17 19 16 16 16 15 15 16 16 15
27 26 25 25 26 26 26 27 27 27 26 21 16 13 11 10 11 11 11 10 12 12 13 16 18 18 17 17 19 19 18 18 17 16 16 15 14 13 14 15 15 14 15 15
26 24 22 21 20 22 24 25 25 24 21 15 13 12 10 10 11 12 11 11 11 13 16 19 17 17 16 18 19 19 18 17 16 15 14 12 12 13 14 14 15 15 15 15
23 23 23 22 21 21 20 18 20 20 18 14 12 11 11 12 12 13 13 12 13 18 17 17 16 18 17 20 17 17 16 15 13 12 12 12 13 14 15 16 16 16 17 17
21 21 22 22 22 22 20 17 14 13 13 12 11 11 12 13 13 12 11 12 15 17 16 15 17 19 19 16 15 14 12 12 12 12 13 15 15 16 17 17 17 17 16 17
22 21 22 23 22 21 20 19 14 12 12 13 14 14 14 12 12 13 13 15 17 16 15 14 15 18 18 14 12 12 12 12 13 15 14 18 17 18 18 16 16 17 17 17
19 16 15 16 19 21 16 13 13 14 14 13 13 13 13 13 11 12 13 13 15 14 12 14 16 16 12 12 12 12 12 14 14 15 16 17 16 17 17 17 17 16 17 17
19 20 20 19 20 18 16 16 15 14 13 12 12 13 13 13 11 11 11 12 10 11 9 9 10 11 12 11 11 12 13 13 14 14 16 16 17 17 16 15 15 15 15 15
19 20 16 17 16 15 15 14 13 12 12 12 11 12 10 9 9 10 10 8 9 9 9 10 10 11 12 12 12 12 13 13 15 15 17 17 15 15 15 14 14 14 14 15

GFSNGP_sfc_dewp_012.txt.gz
Dewpoint
29 30 30 29 31 29 30 32 28 28 27 27 27 32 33 33 33 34 36 38 39 39 37 34 30 27 24 20 16 11 9 10 12 12 12 12 12 12 12 12 12 12 11 11
26 30 29 28 29 30 31 31 29 28 28 28 28 31 31 32 33 35 35 37 38 39 38 34 29 26 25 18 12 10 9 10 12 11 12 13 13 12 12 13 12 12 11 12
26 25 27 27 28 28 28 28 27 27 29 29 30 30 31 34 35 35 36 37 38 39 38 33 29 27 23 14 9 8 8 9 10 11 11 12 12 11 12 12 12 12 10 10
24 25 26 27 29 30 29 28 28 28 29 30 30 33 34 35 35 36 37 37 39 39 36 31 28 24 16 11 9 7 8 8 10 11 11 11 10 10 11 11 11 10 10 10
27 24 24 23 28 27 30 30 30 30 29 33 33 34 35 36 36 36 35 36 39 38 33 28 25 20 14 9 7 6 7 7 9 9 9 8 9 10 10 11 11 11 10 11
30 27 24 24 30 29 30 24 30 30 32 33 33 31 33 36 36 37 37 37 36 32 28 25 19 13 11 7 4 4 7 9 10 10 10 8 10 11 11 11 10 10 10 10
31 33 25 28 31 33 23 27 34 33 34 34 33 34 36 36 35 35 35 33 29 27 25 21 13 11 8 5 3 7 10 10 10 10 9 9 11 12 13 11 10 10 9 10
31 33 27 33 32 29 34 36 36 36 36 35 36 36 36 36 35 33 32 30 27 25 20 15 12 9 6 4 7 10 11 10 9 9 9 10 15 15 14 10 9 9 10 12
28 27 35 35 34 36 36 35 35 35 35 35 35 35 37 37 35 33 31 28 25 23 18 14 10 7 5 7 10 10 10 9 8 9 9 12 13 14 12 10 9 10 12 14
30 33 33 34 34 35 35 35 35 35 35 35 35 36 36 36 36 34 32 29 25 22 19 14 10 10 8 9 10 10 9 8 8 9 12 12 11 11 11 10 11 12 14 15
32 34 34 34 34 35 35 35 35 35 35 35 35 34 35 35 36 35 32 28 24 22 19 15 10 8 9 11 11 9 8 8 9 10 11 11 10 11 12 14 17 18 19 19
30 34 34 33 35 36 35 36 36 35 35 35 35 34 35 35 35 35 31 26 22 20 16 10 8 9 10 11 11 10 8 9 10 12 12 10 10 11 18 20 22 23 24 22
32 35 35 35 36 36 35 35 35 35 34 34 35 35 35 35 35 32 27 22 20 17 12 10 9 9 10 11 12 11 10 10 12 12 9 11 12 13 13 14 20 20 21 22
35 35 34 35 35 35 35 36 36 34 34 34 35 35 32 30 30 28 23 19 14 11 11 10 9 9 10 12 12 12 12 17 13 11 13 14 13 13 13 12 13 13 18 20
34 34 35 35 35 36 36 34 32 30 31 32 33 33 32 28 26 22 15 11 10 11 10 10 9 9 11 12 12 13 13 12 12 13 14 16 14 13 13 13 14 13 14 16
34 36 37 36 36 34 33 31 28 29 31 31 32 32 32 29 25 17 12 11 10 9 9 10 10 11 13 13 14 14 13 16 17 14 14 13 14 13 13 13 13 13 13 13
34 33 33 32 33 33 29 29 29 29 31 31 31 32 31 24 17 13 11 12 11 11 11 12 12 12 14 16 16 13 13 13 18 15 14 14 14 14 14 14 14 13 12 14
37 36 33 31 29 27 27 29 30 31 32 32 32 31 28 20 18 13 11 11 11 11 12 12 13 15 16 16 15 14 14 14 15 15 15 14 14 15 14 13 13 13 14 14
32 27 24 25 26 26 27 28 29 31 31 32 31 30 27 21 16 11 11 11 10 9 11 13 16 18 16 15 18 15 15 16 15 14 14 16 13 13 13 13 13 13 14 13
26 26 26 26 27 27 27 28 30 30 30 29 27 24 20 15 12 11 11 10 11 12 13 15 17 15 14 14 18 18 17 16 14 12 12 12 11 11 12 14 13 13 13 13
25 25 25 25 24 25 25 26 27 26 25 22 19 17 15 12 11 11 11 11 12 13 16 17 15 14 13 17 19 17 15 13 12 11 10 10 11 12 12 13 14 14 14 14
24 23 22 22 22 22 21 20 23 22 21 17 15 13 11 12 13 14 13 13 13 17 16 15 13 15 17 20 16 14 13 11 10 10 10 11 12 14 16 16 17 16 17 18
22 22 23 23 23 23 21 19 16 16 16 15 13 12 11 12 13 13 12 13 14 15 15 13 16 18 19 15 13 11 10 10 10 11 13 15 16 17 18 17 17 17 18 18
23 22 23 24 24 22 22 18 15 12 12 12 13 14 14 13 12 13 12 14 15 15 14 12 14 17 19 12 11 11 11 11 13 16 14 18 18 18 17 17 17 17 17 17
25 24 24 24 24 22 20 17 17 17 14 14 13 13 12 12 11 11 11 9 12 11 8 11 16 17 12 11 11 11 12 14 17 16 15 17 17 18 17 17 17 16 17 16
22 22 22 22 22 20 16 16 15 14 13 12 12 12 11 10 8 9 7 9 7 10 8 9 10 12 11 11 12 12 12 13 13 13 16 16 17 17 16 15 15 15 14 15
23 22 19 17 17 16 16 16 14 13 12 12 11 9 8 7 6 6 8 5 6 8 9 9 10 11 12 12 12 11 12 13 16 16 16 16 16 15 14 14 14 14 14 14

GFSNGP_sfc_dewp_015.txt.gz
Dewpoint
27 29 32 33 34 35 34 33 29 28 27 27 28 30 32 33 34 36 37 38 38 39 38 36 34 31 27 26 21 16 14 14 14 13 12 12 12 12 11 12 13 13 13 13
29 30 29 29 30 32 33 33 32 30 30 30 29 29 31 32 33 34 36 37 38 39 39 36 33 30 27 24 18 15 13 12 12 10 11 12 12 11 12 13 13 13 14 15
26 27 30 28 29 29 30 31 30 28 31 32 29 30 31 32 33 33 34 36 38 39 39 37 33 30 26 21 15 13 11 9 9 10 10 11 11 10 12 12 13 14 13 12
28 27 27 27 29 30 29 30 31 31 32 30 30 30 32 33 34 34 36 36 38 39 40 36 32 29 24 17 14 11 9 7 8 9 9 9 9 10 11 11 12 12 12 11
29 29 31 28 26 28 29 29 30 29 30 30 33 35 34 35 35 36 36 38 39 40 37 33 29 25 19 15 11 9 7 7 7 7 8 8 9 10 11 12 13 11 10 11
35 29 25 26 29 28 31 27 30 32 31 32 34 31 33 36 37 37 38 39 39 37 32 29 26 21 19 14 9 5 6 7 8 9 9 8 9 11 12 12 11 10 10 9
35 32 32 28 30 30 24 29 31 31 32 34 33 35 36 35 35 36 37 35 33 31 29 25 20 19 16 10 5 7 8 8 8 9 8 8 11 13 14 12 11 10 9 8
35 34 31 32 32 28 35 35 33 34 34 35 36 35 35 35 35 34 33 32 30 28 24 20 18 16 11 7 7 8 9 9 9 8 8 11 18 19 16 12 10 8 9 10
31 33 35 34 35 36 36 36 36 36 36 36 35 35 36 35 34 33 31 30 28 26 21 19 15 13 8 8 8 8 9 8 8 8 10 12 16 16 14 10 9 9 9 12
28 32 33 34 35 36 36 36 36 35 35 35 35 36 36 35 34 33 31 29 28 24 21 18 13 10 8 9 9 9 8 7 8 10 12 12 12 12 12 9 11 11 14 17
31 34 34 34 35 35 35 35 35 35 35 35 35 35 35 35 36 35 33 30 28 26 24 19 14 9 9 10 9 9 7 7 9 10 11 12 11 10 9 11 15 17 19 20
28 33 33 34 35 35 35 35 35 35 35 36 36 35 35 35 36 35 33 30 28 26 23 16 10 8 9 10 10 9 8 10 11 12 13 11 10 11 17 20 21 21 22 21
32 34 35 35 35 36 35 36 36 36 36 35 34 34 34 34 35 35 31 28 26 24 19 12 10 8 9 10 11 11 11 11 12 14 11 11 12 12 12 15 19 20 21 21
35 35 35 35 35 36 36 36 36 33 33 33 33 33 33 33 35 32 28 25 22 17 15 11 9 8 9 10 12 12 13 18 14 12 13 13 12 13 13 12 12 13 18 19
35 35 36 36 36 36 36 35 32 30 30 31 32 32 31 29 28 27 22 18 14 13 11 10 9 9 10 12 13 13 14 14 14 15 15 15 14 13 13 13 13 13 14 16
37 37 38 37 37 37 35 31 28 28 29 30 30 31 31 31 29 21 16 15 13 11 11 11 11 11 13 14 14 15 15 17 17 14 14 13 13 13 13 13 13 14 13 13
36 34 34 34 35 33 28 26 27 28 29 29 30 32 31 27 24 19 16 14 11 12 13 14 13 13 15 15 16 14 14 14 17 14 14 14 14 13 13 14 14 14 13 14
37 37 36 35 32 27 27 28 29 30 30 31 32 32 31 26 24 19 15 13 12 11 13 14 14 16 16 17 16 15 15 14 14 15 15 14 13 14 14 13 14 14 14 15
35 34 33 29 26 26 27 28 29 30 32 33 32 31 30 26 23 16 12 11 10 9 13 15 16 18 17 16 16 16 15 16 16 14 14 15 12 12 13 13 13 14 14 14
27 26 27 26 28 27 27 28 29 30 31 31 31 29 27 23 17 12 11 10 12 13 15 16 17 16 14 14 17 18 18 16 14 12 11 11 11 10 12 13 13 14 14 14
26 27 27 27 26 26 27 28 28 27 26 25 24 22 20 15 13 12 11 10 13 15 17 17 15 14 13 16 19 18 16 14 11 10 9 9 10 11 13 14 15 15 15 16
25 25 24 24 24 23 24 24 24 23 21 19 18 17 14 14 14 15 14 13 15 18 16 14 14 15 17 21 18 15 13 11 9 9 10 11 13 16 17 17 18 18 18 18
24 24 23 24 24 23 22 20 18 19 18 17 15 13 12 12 13 13 13 14 14 15 15 13 15 18 19 17 14 12 10 10 10 11 13 17 17 18 19 19 18 18 18 18
23 23 24 25 24 23 21 18 15 14 13 12 13 14 14 14 13 13 13 13 13 15 13 12 13 18 19 14 11 11 11 11 13 17 16 18 19 19 18 17 18 17 17 17
27 27 28 27 26 23 22 20 19 17 14 14 13 13 13 12 12 11 9 8 11 10 8 11 15 16 12 11 11 11 12 15 17 17 16 17 17 18 18 18 18 16 17 17
24 23 24 25 24 20 17 16 15 14 13 13 13 12 9 8 8 8 6 8 6 9 8 9 10 11 11 11 12 12 12 13 14 14 16 17 17 17 16 15 15 15 15 16
25 24 21 19 18 18 18 17 15 15 14 14 11 8 7 5 4 5 6 4 5 6 7 8 9 11 12 12 12 11 13 14 16 16 16 16 16 16 15 15 15 15 15 15

GFSNGP_sfc_dewp_018.txt.gz
Dewpoint
37 37 37 37 37 37 34 34 31 28 27 26 31 32 32 33 36 38 38 38 38 39 38 36 34 31 28 25 20 17 16 17 16 14 13 13 14 14 14 15 14 15 15 16
29 33 35 36 37 37 35 33 32 33 32 30 29 32 32 33 35 36 37 38 39 39 38 35 33 29 27 23 18 16 15 15 14 13 12 13 14 14 14 15 15 14 15 16
26 29 30 28 32 34 35 35 34 33 33 33 29 31 32 32 35 36 37 38 38 39 38 36 32 28 25 20 16 14 14 12 12 12 12 13 12 12 13 13 13 14 13 13
28 28 23 28 29 30 30 31 33 32 32 32 31 33 35 34 33 34 36 38 39 40 39 35 31 28 22 17 15 15 12 10 11 11 10 11 11 11 11 12 13 13 13 12
29 29 29 30 27 29 29 29 31 31 32 33 35 35 34 36 37 37 37 38 39 40 35 31 29 20 17 15 13 12 10 9 9 8 9 10 10 10 11 13 13 13 11 11
34 27 25 27 30 29 31 28 32 32 32 34 34 32 34 36 38 38 40 40 37 34 31 28 21 19 16 13 11 8 8 9 9 10 10 9 9 11 13 15 13 12 11 10
35 32 33 31 30 30 26 29 33 32 34 35 35 35 36 36 37 37 36 34 32 30 28 23 21 20 14 10 7 9 9 9 10 10 9 9 11 13 15 15 13 12 10 9
36 34 30 32 31 29 34 34 34 36 36 36 35 35 35 35 35 33 33 32 30 26 21 20 20 15 10 8 9 10 10 10 10 9 9 11 16 18 17 14 11 10 9 10
36 36 35 35 35 36 37 35 36 37 37 36 35 35 35 34 33 32 30 29 26 21 20 18 16 12 9 9 9 10 9 9 9 9 10 13 15 15 15 12 10 10 11 13
30 32 34 35 35 36 37 37 37 37 36 36 36 36 35 34 32 30 30 29 25 22 19 15 11 10 10 10 10 9 8 8 8 10 13 13 13 14 13 10 10 11 13 16
31 34 34 35 35 36 35 36 36 36 36 36 36 36 36 34 34 32 31 29 26 24 21 16 13 10 11 11 10 9 8 8 11 12 13 13 13 13 11 12 15 15 17 17
31 33 33 34 36 36 35 35 36 36 36 36 36 36 36 36 35 33 31 29 28 25 21 15 11 10 11 11 11 10 10 12 13 14 15 14 12 12 18 20 21 22 22 20
33 35 35 36 36 36 36 36 36 36 35 35 35 35 35 35 35 35 30 28 25 23 16 12 10 10 11 12 12 12 12 12 14 15 14 12 13 13 13 16 19 20 21 21
35 35 35 35 35 36 36 36 36 33 33 34 34 34 34 35 33 29 27 25 21 17 14 11 10 10 11 12 12 13 14 19 16 15 15 15 14 14 14 13 12 13 18 19
35 36 36 36 36 35 34 33 31 31 32 32 32 30 30 30 29 25 20 17 16 14 12 11 10 10 12 14 14 14 15 16 15 16 16 17 15 14 14 13 13 13 14 16
37 36 36 35 35 34 33 30 29 29 31 31 31 31 30 29 22 19 16 15 13 13 12 12 12 13 15 15 15 16 16 19 18 16 15 15 15 15 14 13 13 13 13 13
35 34 35 32 33 32 28 27 29 29 30 30 31 31 28 25 20 17 16 14 13 14 14 14 14 16 16 16 16 16 16 15 18 15 15 16 15 14 14 14 14 13 12 14
36 36 36 35 31 27 28 29 30 30 30 32 32 31 27 24 21 17 14 13 12 12 14 15 16 18 18 18 17 17 17 16 16 16 17 16 14 14 12 12 13 13 13 14
36 35 34 29 28 28 29 29 31 32 32 32 31 30 28 25 21 15 13 12 11 11 15 16 19 18 17 17 17 18 17 17 17 16 15 15 12 12 13 12 12 13 14 14
30 28 27 27 28 28 28 30 31 31 32 31 30 29 26 19 14 12 11 12 14 15 16 18 18 16 14 14 18 19 18 18 16 13 12 11 10 10 11 14 14 15 14 14
27 27 27 27 27 28 29 29 29 28 27 26 25 23 19 14 13 13 11 12 15 18 17 18 16 15 16 18 20 19 17 15 12 11 10 10 10 12 14 15 16 15 15 15
26 26 26 26 25 25 25 25 24 22 20 18 17 15 14 14 15 15 15 15 16 19 17 15 14 17 18 20 18 16 14 12 11 10 11 11 14 15 16 16 17 17 17 17
24 24 24 23 22 21 20 19 20 19 18 16 14 13 14 14 14 14 14 15 15 17 15 13 16 17 20 17 16 13 12 11 11 11 14 14 16 17 18 18 16 17 17 17
24 24 24 23 22 20 17 16 14 14 14 14 15 15 15 13 13 13 13 13 14 15 11 11 14 18 19 14 12 12 12 12 13 14 15 18 15 16 17 16 16 18 17 16
25 24 24 24 23 20 19 18 16 15 14 13 13 13 11 11 13 10 8 9 11 10 10 13 16 16 13 12 12 11 12 13 11 14 15 13 16 16 16 17 16 14 16 15
24 25 24 23 21 19 17 17 15 14 13 13 13 10 9 8 9 7 7 8 7 9 8 10 10 12 12 12 12 12 12 13 13 14 16 17 17 15 14 15 14 14 14 14
23 23 20 18 18 18 17 16 15 15 15 13 9 8 6 5 6 5 7 4 5 7 8 9 10 11 12 12 12 11 12 13 14 15 15 13 14 14 13 13 13 13 14 13

GFSNGP_sfc_dewp_021.txt.gz
Dewpoint
36 37 39 38 37 37 37 36 32 27 27 29 29 30 31 36 38 38 38 39 39 37 37 36 33 30 25 21 18 18 18 17 15 14 13 13 14 14 14 15 15 16 15 16
35 37 38 38 39 37 37 35 34 33 33 29 32 32 32 36 38 38 38 39 39 37 36 35 32 28 23 20 18 17 17 16 15 14 12 14 13 13 13 14 14 14 14 16
28 37 37 35 36 37 37 36 34 32 33 30 31 32 32 35 37 38 38 38 39 37 36 34 30 25 21 17 16 15 14 14 13 13 12 13 12 11 12 12 13 13 13 14
30 28 23 26 33 37 37 36 36 35 33 32 32 35 35 35 36 37 38 39 39 38 36 32 27 24 17 16 15 15 13 12 12 12 11 11 11 11 10 11 13 13 14 13
29 29 28 27 27 29 30 30 33 35 33 34 35 35 35 37 37 37 38 39 40 38 33 28 24 18 16 14 15 13 11 10 9 9 9 10 10 10 10 12 15 14 13 12
32 25 24 27 29 29 30 27 33 32 33 34 33 31 34 37 39 38 37 36 32 30 26 20 17 15 13 12 11 10 9 10 9 10 10 9 9 9 12 15 15 14 13 12
33 32 31 32 30 31 25 26 34 33 34 34 33 33 36 37 35 34 32 30 29 25 21 19 17 14 13 10 9 10 10 10 10 10 9 9 10 13 15 15 14 13 11 10
35 33 28 32 29 26 32 34 36 36 36 35 36 36 36 34 33 33 31 29 25 22 20 20 16 12 9 8 10 11 11 10 10 9 8 11 15 16 15 15 13 11 10 11
34 34 36 35 34 36 36 35 36 36 36 35 35 34 34 32 31 30 29 24 22 20 18 17 12 10 8 9 11 11 9 9 8 8 10 13 14 15 15 13 11 11 11 12
33 33 33 34 35 36 37 37 37 36 36 35 34 33 32 32 30 29 26 23 21 17 14 12 11 10 10 11 11 9 8 7 8 11 15 13 14 14 14 12 12 12 14 16
31 34 34 34 35 36 36 36 36 37 36 35 34 33 32 31 30 29 28 24 21 18 16 12 10 10 10 11 10 9 8 9 12 13 14 14 14 13 14 14 17 16 17 17
31 33 31 33 36 36 35 36 36 36 36 36 35 35 34 33 31 30 28 26 25 21 17 13 10 11 11 12 11 10 10 12 13 15 15 15 13 14 19 20 21 21 21 20
33 35 35 36 36 36 36 36 36 36 36 35 36 36 35 34 32 32 29 27 23 19 15 11 11 11 12 13 12 12 12 12 15 16 14 13 14 14 14 16 19 20 20 21
36 35 35 35 35 36 36 36 36 34 34 35 35 35 34 33 31 28 27 24 20 15 13 11 11 11 12 13 13 13 14 19 17 15 15 16 15 16 15 14 13 13 17 19
36 36 36 36 35 34 34 33 33 32 31 31 33 34 31 28 26 23 20 16 14 13 12 11 11 11 13 14 14 15 15 16 16 17 16 18 15 15 15 15 14 13 14 16
36 36 36 34 33 32 31 31 31 31 31 30 30 29 28 24 19 17 15 14 13 12 12 12 12 14 16 16 16 16 16 19 19 16 15 15 15 15 15 14 13 12 12 12
34 32 33 31 32 30 29 29 30 30 30 31 30 26 21 19 17 16 14 14 14 13 14 15 15 16 17 16 16 16 16 16 20 15 16 16 16 15 14 12 12 12 12 13
36 35 35 33 31 28 29 29 30 30 31 31 28 25 21 19 17 15 13 13 13 14 15 16 17 17 17 17 17 17 17 17 17 17 18 16 14 12 12 11 12 12 13 15
36 35 33 28 28 29 29 30 31 31 32 31 29 26 25 22 17 14 12 11 11 12 15 18 20 18 16 16 18 18 18 18 18 17 14 14 12 11 11 12 13 14 15 14
33 29 29 29 29 30 30 31 32 31 31 30 27 23 17 15 13 12 12 14 15 15 17 18 16 15 14 16 21 19 18 18 16 13 11 11 10 11 11 15 15 14 15 14
28 28 28 29 29 30 30 30 30 29 29 28 25 20 15 13 13 13 13 13 16 18 18 18 16 16 17 19 19 17 17 14 11 11 11 11 11 13 14 15 15 16 16 15
26 27 27 27 27 26 26 25 23 20 19 17 15 14 13 15 15 16 15 15 18 20 16 14 14 18 18 21 16 15 13 12 11 11 11 12 13 14 15 17 17 16 16 16
26 25 25 24 23 21 20 20 19 17 16 15 14 14 14 15 14 14 14 16 15 17 13 12 15 18 20 15 14 12 12 12 11 12 13 14 15 15 16 16 16 15 15 16
24 23 21 20 18 17 16 14 15 15 14 14 15 15 13 12 12 12 14 15 16 13 12 14 16 17 17 12 12 12 12 12 13 12 13 17 14 14 15 15 15 15 14 14
24 23 22 20 18 16 16 16 15 14 13 12 10 10 11 12 11 9 8 9 13 11 8 13 15 15 12 12 12 12 13 12 9 14 13 14 16 15 14 14 13 14 15 13
24 23 23 21 18 16 15 15 13 13 12 10 9 8 8 9 9 7 7 9 8 10 8 9 11 12 12 12 12 12 12 12 12 13 15 15 14 12 12 12 12 12 13 13
22 22 19 18 17 17 15 15 14 15 13 9 7 6 5 6 7 7 8 5 7 7 8 9 10 11 11 11 9 9 11 12 13 14 13 12 12 12 12 12 13 13 13 13

GFSNGP_sfc_dewp_024.txt.gz
Dewpoint
35 34 36 37 34 35 32 34 32 33 32 33 29 29 35 37 38 39 40 40 39 38 36 32 29 26 23 19 18 18 17 16 15 14 13 14 14 13 14 14 14 15 14 16
32 36 37 36 38 36 36 34 35 36 34 30 31 32 36 37 38 38 39 40 39 38 36 32 29 25 21 18 18 18 17 17 16 14 13 14 13 13 12 14 13 14 14 16
34 37 37 36 38 34 34 38 36 35 31 31 32 31 36 37 38 38 39 39 38 37 36 33 29 23 19 17 18 17 16 15 14 13 12 13 11 11 12 11 13 14 14 14
33 36 24 27 34 39 38 37 36 35 32 31 32 34 35 36 38 38 39 39 38 37 36 32 26 21 17 16 16 16 15 13 13 13 11 11 10 10 10 11 13 14 14 14
33 30 28 26 27 31 35 34 32 36 33 34 35 34 35 38 38 39 39 40 38 37 32 27 22 17 15 15 15 14 12 11 10 9 9 9 9 9 9 12 14 15 14 13
30 26 24 27 29 29 30 27 33 32 34 34 34 31 33 38 38 38 38 37 34 30 26 21 17 15 14 13 12 11 11 11 10 10 9 8 9 9 12 14 14 14 13 12
30 32 31 33 31 31 25 25 33 34 34 34 31 33 36 34 32 32 31 28 26 24 20 17 15 14 13 11 10 11 11 10 10 10 9 8 10 13 14 14 14 12 11 11
33 29 24 33 29 26 29 36 36 35 36 36 36 35 34 33 31 29 27 24 22 20 17 15 14 12 10 9 10 11 11 11 10 9 8 12 14 15 15 13 12 11 11 12
34 32 34 35 35 36 35 36 36 36 36 36 35 34 33 32 29 26 24 22 21 19 15 13 11 9 9 9 11 11 9 9 8 9 12 13 14 15 14 13 12 13 13 14
35 34 35 34 36 36 36 36 36 36 36 35 33 33 31 30 27 24 22 20 19 16 13 11 10 10 10 11 11 9 8 7 10 12 16 14 14 14 14 14 14 14 16 16
32 33 34 35 36 36 36 36 36 35 35 34 32 31 30 29 27 24 22 20 17 14 12 11 11 10 11 11 10 8 8 10 12 14 15 14 14 14 16 16 18 17 17 18
33 33 31 32 36 36 36 36 36 35 34 34 33 32 31 29 28 24 22 20 18 16 12 11 11 11 11 12 10 9 10 12 14 16 15 14 14 14 20 20 21 21 21 20
32 35 35 36 36 36 36 36 36 36 35 34 34 32 31 30 29 29 25 22 19 17 13 11 11 11 12 13 13 12 12 14 16 15 14 14 15 15 14 16 20 20 20 21
36 35 35 35 35 36 36 36 36 35 36 35 35 34 33 32 30 27 25 22 18 14 12 11 11 11 13 13 13 13 14 20 16 15 16 16 16 15 15 14 14 13 17 18
36 36 36 36 35 34 34 34 34 33 34 34 33 32 30 28 27 24 20 15 13 12 12 12 11 12 14 14 14 15 15 17 17 17 16 18 15 16 16 15 14 13 12 14
35 35 35 34 34 33 32 32 31 31 31 32 30 29 26 22 19 17 15 14 12 12 12 12 12 14 15 16 16 15 16 19 20 17 16 16 16 16 15 14 12 11 11 12
34 31 32 31 32 31 30 30 30 30 30 29 27 22 19 17 16 15 14 14 13 13 14 15 15 16 18 16 16 16 16 16 20 17 17 17 16 15 14 11 12 11 12 14
35 34 34 32 30 29 30 30 30 30 29 27 22 19 17 16 14 13 14 14 14 14 16 16 17 18 17 17 17 17 17 18 18 18 18 14 13 12 11 11 12 13 14 15
35 34 31 29 29 29 29 30 30 30 28 25 22 20 20 17 14 13 12 12 13 13 16 19 21 17 14 18 20 19 18 17 17 16 13 14 11 11 12 12 14 14 14 14
31 29 29 29 30 30 30 31 31 30 29 26 24 20 17 15 13 12 12 13 14 15 18 17 16 14 15 18 22 17 17 16 13 11 11 12 11 12 13 15 14 14 15 14
29 29 30 30 30 31 31 31 31 29 27 23 18 16 14 13 14 14 14 15 17 18 18 18 16 17 17 20 16 16 14 12 11 11 11 11 12 13 14 15 15 15 14 14
28 29 29 29 29 28 28 28 27 25 22 17 14 14 13 14 15 16 16 16 19 19 15 14 15 18 20 17 14 13 12 11 11 11 11 12 13 14 15 15 14 15 15 14
28 27 27 27 25 22 20 19 18 18 15 14 14 14 14 14 14 14 14 16 16 15 11 13 17 18 18 13 12 12 12 12 12 12 13 12 13 12 13 14 14 14 14 14
25 24 22 21 20 19 16 15 15 15 15 15 14 14 14 12 10 13 16 18 16 13 13 15 15 17 15 12 11 12 12 12 12 11 12 15 11 13 14 13 12 12 12 14
24 22 21 20 18 16 16 16 15 13 12 11 11 12 12 12 9 8 8 11 14 9 8 14 15 15 12 11 12 12 12 11 8 12 12 12 13 12 12 11 11 12 14 12
21 20 19 18 16 15 14 14 13 11 9 8 8 9 9 9 10 8 8 9 9 10 9 9 11 12 11 11 11 10 10 11 11 12 14 13 11 10 11 11 11 11 12 13
22 21 18 16 16 15 14 14 13 12 9 6 5 6 7 7 9 8 8 7 8 8 8 8 9 10 10 10 9 9 10 11 12 13 12 10 11 11 11 11 12 12 13 13

GFSNGP_sfc_dewp_030.txt.gz
Dewpoint
33 32 33 34 34 33 31 30 28 25 24 24 25 30 35 39 42 43 42 39 36 33 30 26 23 20 17 16 16 15 14 14 14 14 15 15 14 14 14 14 14 15 15 15
31 33 34 32 34 35 34 33 33 30 30 34 35 38 37 38 42 43 42 39 36 32 29 25 22 19 17 17 16 16 16 16 16 16 15 15 14 13 13 14 14 15 14 15
28 33 34 32 34 35 35 36 34 31 31 33 37 39 37 40 42 43 41 39 36 32 29 25 22 19 17 17 17 17 16 16 16 15 14 14 12 12 12 12 13 14 14 14
30 34 28 36 41 39 36 36 34 34 34 37 38 38 37 38 40 40 41 39 36 33 29 25 21 19 18 17 17 17 16 15 15 15 13 12 10 10 10 12 13 14 14 13
32 31 33 32 38 36 35 34 37 36 36 36 38 36 36 38 39 40 41 39 37 33 28 23 20 18 17 17 17 16 14 14 12 12 11 10 10 10 11 13 14 13 13 12
33 29 27 28 32 37 38 29 37 37 37 37 38 36 34 38 39 40 39 38 34 29 25 21 18 18 17 16 15 13 13 12 11 12 10 9 10 12 13 14 13 12 12 13
33 31 30 33 34 32 25 26 33 39 39 39 37 37 36 35 35 36 36 32 29 26 23 19 17 17 15 14 13 13 12 12 12 10 9 11 13 14 13 12 12 13 13 15
32 30 22 33 31 27 29 34 35 35 35 36 34 33 32 31 31 31 30 27 24 20 17 17 17 15 14 13 13 12 12 11 9 11 13 14 15 14 13 13 13 14 15 16
32 31 33 35 35 36 35 35 34 34 36 34 32 30 28 26 25 24 23 21 19 17 15 15 15 14 12 11 12 11 9 9 12 13 13 14 14 14 14 14 15 15 16 16
34 33 34 35 36 36 36 36 36 36 35 33 29 26 25 24 23 21 20 18 17 16 14 12 12 11 11 11 10 9 9 12 15 16 14 14 13 14 16 16 16 16 17 17
34 34 34 34 35 35 35 35 35 34 33 30 28 26 24 22 21 19 18 18 17 14 13 11 11 11 10 10 9 9 11 13 14 15 14 14 14 14 17 18 18 18 18 18
33 35 33 33 36 36 35 34 34 33 32 31 28 26 24 21 20 18 17 16 14 13 11 11 10 10 10 10 11 11 12 15 18 14 14 14 15 15 19 20 21 21 21 19
35 35 35 36 36 36 35 34 34 32 31 29 28 25 23 21 20 22 16 14 13 12 11 11 10 11 12 13 13 13 15 15 15 15 14 14 15 15 15 15 19 19 19 20
36 36 35 36 35 36 35 35 34 32 31 29 27 26 25 22 20 17 15 13 13 12 12 11 11 12 13 14 14 15 18 21 16 16 16 16 17 16 15 14 13 12 16 18
35 36 36 36 36 35 34 33 32 31 30 29 28 26 23 21 19 16 13 12 12 12 12 12 12 13 14 16 15 15 16 18 18 17 16 18 16 15 14 14 12 11 11 14
35 36 36 35 35 34 33 32 31 30 30 28 27 25 23 19 16 14 13 12 11 11 12 13 13 15 16 16 15 15 16 20 20 17 16 16 14 13 14 11 11 11 11 12
34 33 33 32 33 33 32 32 31 30 29 27 24 21 18 15 14 13 13 13 13 13 15 15 16 18 17 16 16 16 16 16 19 16 15 14 12 13 11 11 12 12 12 14
35 35 35 34 33 32 32 32 31 29 26 23 21 18 16 15 13 12 13 14 14 15 16 17 18 17 17 17 18 18 16 16 15 13 12 11 13 11 11 12 13 14 14 14
34 34 33 32 32 31 31 29 26 24 22 20 19 17 15 14 13 13 13 13 14 15 19 20 20 17 18 23 17 16 14 13 11 10 11 14 11 11 13 13 14 14 13 13
32 32 31 30 31 30 28 25 24 22 21 18 16 15 13 13 13 13 13 13 14 17 19 16 16 17 20 18 17 13 12 11 11 11 11 12 12 13 13 14 13 12 12 12
30 30 30 30 29 28 26 24 23 21 19 17 15 14 13 13 14 14 14 16 18 19 18 19 17 18 19 15 13 12 11 11 11 11 11 11 12 12 13 12 12 12 12 12
30 30 30 29 28 27 25 24 22 20 17 15 13 13 13 15 16 17 17 17 19 19 15 15 17 21 16 14 11 11 12 11 11 11 11 12 12 11 11 11 11 12 13 11
30 30 30 29 27 25 23 20 19 17 16 14 14 14 14 15 16 15 15 17 15 17 16 17 19 20 15 11 11 12 11 10 10 10 11 9 11 9 10 10 12 12 10 10
29 27 26 25 24 22 19 16 16 15 15 15 15 15 14 14 15 17 17 18 19 17 15 16 17 17 14 10 11 11 10 10 9 7 9 14 8 9 10 10 10 10 10 11
26 25 26 25 22 19 18 17 16 15 14 13 13 13 12 12 14 13 13 14 16 11 10 15 15 15 10 9 11 9 9 8 5 8 9 8 9 8 9 9 9 10 13 12
25 24 22 22 19 17 16 15 13 13 11 10 10 10 10 11 13 10 10 12 10 11 7 8 9 11 9 10 10 9 9 9 10 10 12 10 9 8 8 9 10 10 10 10
21 21 18 16 15 15 14 14 13 12 11 9 7 7 7 8 10 9 10 8 7 6 5 5 5 9 10 11 9 9 9 9 10 11 8 7 7 7 8 9 10 10 11 11

GFSNGP_sfc_dewp_033.txt.gz
Dewpoint
31 30 31 33 32 33 31 30 27 25 29 28 28 28 32 37 39 42 40 37 35 32 29 26 23 21 19 17 15 14 14 15 14 14 14 14 15 15 14 15 15 15 15 15
31 33 33 32 34 34 33 33 32 32 31 31 30 36 37 39 39 42 41 37 33 30 27 24 21 19 18 16 16 16 16 16 16 15 15 15 15 14 15 16 15 14 14 15
28 31 33 32 36 37 35 35 32 31 30 32 32 34 38 38 41 43 43 36 32 29 26 22 20 18 17 16 16 16 16 15 15 14 14 14 13 13 15 14 14 14 13 13
30 33 27 37 41 38 37 37 36 35 35 34 34 37 40 38 40 44 41 36 32 29 25 22 19 18 17 17 17 17 16 15 15 14 13 12 11 12 13 13 14 13 13 12
31 30 30 30 32 36 37 35 37 37 36 35 40 38 36 38 41 42 40 36 32 29 24 21 18 17 17 17 17 16 14 14 12 12 10 10 12 12 13 13 13 13 12 12
32 29 26 30 33 36 37 29 38 38 37 38 39 37 35 37 40 40 38 34 30 26 22 20 18 18 17 17 15 14 13 12 12 11 10 11 13 13 14 13 12 12 12 14
32 32 29 32 34 35 24 28 36 40 39 39 40 37 36 36 36 37 35 31 27 25 22 19 18 17 16 15 14 13 12 11 11 11 11 13 14 13 13 12 12 13 14 16
33 30 25 34 32 29 31 34 35 35 39 41 36 32 32 32 32 32 30 27 23 21 19 18 18 16 15 13 12 12 12 11 12 14 13 15 15 14 13 13 13 14 16 17
31 31 34 36 34 36 36 35 35 35 36 35 33 30 28 27 26 25 24 22 20 18 17 16 16 15 12 12 12 10 10 13 13 13 14 14 14 14 14 15 15 15 16 17
35 34 35 34 35 35 36 36 35 35 33 32 28 27 25 24 23 22 21 19 18 16 14 13 12 12 11 11 10 10 13 15 14 14 14 13 13 14 16 16 16 17 17 17
34 35 35 34 35 35 35 35 33 31 29 28 27 25 23 21 21 20 19 18 17 15 13 12 11 10 10 10 11 11 13 14 15 14 14 14 14 15 17 18 19 18 18 17
33 35 33 33 36 36 35 34 32 30 29 28 26 24 22 20 19 18 16 15 14 13 11 10 9 9 10 12 12 13 15 16 15 14 14 14 15 15 19 19 21 21 20 19
35 35 35 36 36 36 34 34 32 30 28 26 24 22 20 18 18 21 15 14 13 12 11 10 10 10 12 13 14 15 15 15 17 15 14 15 16 15 13 14 18 18 19 20
35 36 35 36 35 35 34 33 32 29 27 25 24 22 21 18 17 15 13 13 12 11 11 11 12 13 14 16 19 19 19 20 16 16 15 17 16 14 13 13 11 10 15 18
35 36 36 36 35 34 33 32 30 28 27 25 23 20 18 16 14 13 12 11 11 11 12 12 13 14 16 16 16 16 18 18 18 16 17 17 14 12 13 11 10 10 11 14
36 36 36 35 34 33 33 31 29 28 26 24 22 20 17 14 13 13 12 11 10 11 13 13 15 16 17 16 15 15 16 21 19 15 14 12 11 13 12 10 10 11 11 12
34 34 35 34 34 32 31 30 29 27 25 22 19 17 14 13 13 13 13 12 13 14 15 16 17 17 17 16 16 16 15 16 17 13 11 10 12 13 10 11 12 12 12 14
35 35 35 34 33 32 31 30 29 26 23 20 18 16 15 14 13 12 13 14 15 16 17 17 17 18 18 19 17 15 14 13 12 10 10 12 14 11 12 12 12 13 13 12
35 35 34 33 33 32 30 28 25 23 21 19 17 16 14 13 13 13 13 13 14 17 19 20 22 22 23 19 15 14 12 10 10 10 10 14 11 12 13 12 13 12 11 11
33 32 32 32 32 30 26 25 24 22 20 17 15 14 13 13 13 13 13 14 17 19 18 17 18 20 17 17 15 12 11 11 10 10 10 12 11 12 12 13 12 11 11 11
31 31 31 30 28 26 25 23 22 20 18 17 15 14 13 13 14 15 15 16 18 18 19 20 19 19 16 14 12 11 11 11 10 10 10 11 11 12 11 11 11 11 11 11
30 30 29 27 25 24 23 22 20 18 16 15 14 13 13 15 16 17 17 17 20 21 17 18 20 19 15 14 11 11 11 10 10 10 10 11 11 11 11 11 11 11 12 12
30 29 28 26 24 22 21 19 18 16 15 14 14 14 14 15 16 16 16 18 17 19 17 18 22 19 16 11 11 11 10 9 9 9 11 11 12 11 10 10 12 12 11 11
29 28 26 23 21 20 18 17 16 15 15 14 15 15 15 15 16 17 17 19 21 18 17 18 18 16 13 10 11 10 9 9 9 10 10 14 11 10 10 10 10 11 11 12
27 26 25 23 21 18 18 18 17 16 14 14 14 14 14 15 15 14 16 18 20 14 12 16 16 13 9 9 10 9 9 10 9 11 11 10 11 10 9 9 10 11 14 13
26 25 23 21 19 18 17 16 15 14 12 11 11 12 14 14 15 11 11 12 10 11 6 7 9 10 10 10 11 9 9 9 10 9 12 11 10 8 8 9 9 10 11 11
22 22 20 18 17 17 16 15 14 14 12 10 9 10 10 10 12 11 11 7 6 5 3 3 5 9 10 11 9 9 9 9 10 11 11 8 8 7 8 8 9 10 10 11

GFSNGP_sfc_dewp_036.txt.gz
Dewpoint
30 29 30 32 33 34 32 32 28 26 27 30 30 32 30 30 35 38 41 39 39 38 39 38 34 27 23 20 18 17 17 18 18 17 16 15 15 15 14 15 15 15 14 14
32 31 32 33 35 36 35 35 33 33 32 31 31 32 31 30 33 39 41 40 37 36 36 31 26 22 19 17 16 17 19 19 18 16 15 16 15 15 16 17 16 15 14 17
30 32 32 34 37 37 37 37 34 32 31 30 31 32 34 38 40 40 41 39 36 34 31 27 22 20 18 16 18 18 18 17 16 15 15 15 14 15 17 16 16 15 14 13
31 33 28 34 37 38 37 36 37 33 32 33 36 37 39 40 39 40 42 38 35 31 26 23 21 19 17 18 19 18 17 16 15 14 14 13 13 15 15 15 15 13 13 12
31 30 30 31 32 32 36 37 39 37 36 37 38 39 38 39 42 44 40 36 33 28 25 23 20 18 19 18 18 17 16 14 13 12 11 11 13 14 14 14 14 13 12 12
34 29 26 29 33 35 38 35 40 41 39 39 40 37 36 39 42 38 36 33 30 26 24 22 20 19 19 18 17 15 14 13 11 11 10 12 15 15 14 13 12 11 12 12
33 31 31 31 35 36 26 28 36 40 41 40 40 36 36 39 39 39 34 30 27 25 22 20 19 18 17 17 15 14 13 11 11 11 12 14 15 14 14 13 12 11 11 12
35 32 28 34 36 32 34 36 35 36 39 42 36 34 35 35 34 32 30 27 23 21 19 18 18 18 17 15 13 12 11 11 12 13 13 16 18 17 15 14 12 10 12 11
32 31 35 36 37 36 36 36 36 36 37 39 35 34 31 31 30 29 26 25 23 21 19 19 18 16 14 12 12 11 12 13 14 14 15 16 17 17 14 13 11 11 11 12
35 35 36 35 36 36 36 36 35 36 35 35 31 30 28 27 26 25 24 22 21 19 18 16 15 14 12 12 11 12 12 13 14 14 14 14 14 15 14 12 11 12 12 12
36 36 36 35 36 35 35 33 32 31 31 31 30 28 27 25 23 22 21 21 19 17 16 14 12 11 10 11 12 13 14 15 15 15 14 13 13 14 13 14 17 15 14 14
32 35 35 34 36 36 35 32 31 30 29 29 28 26 25 22 21 20 18 18 17 15 14 12 10 10 11 12 13 13 13 13 14 14 14 13 12 11 17 18 19 19 19 18
36 35 36 36 36 35 33 32 30 29 28 26 24 23 22 20 19 21 16 15 15 14 12 10 10 11 12 14 15 15 15 15 15 13 11 11 11 9 7 8 13 13 16 19
36 36 36 36 35 34 33 30 29 26 25 24 22 21 21 19 17 15 14 13 13 12 11 10 11 12 15 16 15 16 17 19 13 12 13 13 10 7 8 8 6 6 12 17
35 36 36 36 34 33 31 29 28 25 23 22 21 19 18 16 15 13 12 12 11 11 11 12 13 15 16 16 16 17 16 15 13 13 14 11 8 9 9 7 8 9 10 13
37 37 36 36 35 33 32 30 27 25 23 21 19 18 17 15 14 13 12 12 12 12 12 13 14 15 16 16 16 16 19 19 14 9 8 7 8 10 8 8 9 10 10 10
36 36 37 36 35 33 31 30 28 25 23 20 17 16 15 14 14 13 13 13 12 13 14 15 16 16 16 15 14 11 11 12 13 7 7 8 11 10 9 10 11 11 11 11
36 37 37 35 33 32 30 28 26 23 20 17 16 15 15 15 14 13 13 13 14 15 16 16 16 17 17 14 12 11 10 8 8 8 8 10 12 10 11 11 11 11 10 11
35 36 35 34 33 31 29 27 24 21 18 17 16 16 16 15 14 13 13 13 13 14 17 20 23 20 16 15 11 9 8 7 7 8 8 13 10 11 11 11 11 11 11 10
34 35 34 33 32 30 27 24 22 20 19 18 16 15 14 14 13 13 13 14 15 16 19 21 20 17 15 14 12 9 9 8 8 8 9 11 10 11 11 12 11 11 11 10
33 33 33 32 29 27 25 23 21 19 18 17 16 15 14 13 14 15 16 15 17 18 18 21 18 14 12 11 10 10 9 8 8 9 10 10 11 11 11 11 12 12 12 11
32 32 30 28 26 25 24 23 21 19 17 16 15 14 14 15 16 17 16 15 18 22 19 19 16 16 14 12 10 10 9 8 9 9 10 11 11 13 14 14 14 14 15 15
31 29 28 26 25 23 22 20 19 18 16 15 15 14 14 15 16 15 16 19 18 20 20 21 20 18 14 9 10 9 9 9 9 10 11 14 14 15 14 14 15 15 15 15
29 28 26 24 22 21 19 18 18 17 16 15 15 16 16 16 16 17 19 20 22 21 20 20 18 16 11 8 9 9 9 9 11 14 13 15 15 14 14 14 14 14 14 15
28 26 26 25 23 20 20 20 19 18 15 15 15 16 16 16 15 17 18 19 21 18 16 18 16 13 8 8 10 9 10 12 14 14 12 14 14 14 14 13 13 14 15 16
26 24 24 23 20 19 18 17 16 15 14 13 14 15 15 16 17 16 15 14 11 10 5 7 9 8 9 9 10 9 9 10 10 11 13 13 13 13 12 12 12 13 13 15
25 24 21 19 19 19 18 17 15 15 14 13 13 14 13 12 12 11 11 6 4 2 1 2 4 8 8 9 8 9 10 10 12 12 13 13 12 13 12 12 12 13 13 14

GFSNGP_sfc_dewp_039.txt.gz
Dewpoint
28 28 29 32 32 33 34 34 30 30 30 32 32 31 34 36 34 32 32 37 40 40 41 42 42 41 35 32 32 28 25 22 21 19 19 19 19 18 17 17 16 16 15 15
31 30 31 34 32 34 37 37 36 35 34 35 32 32 32 33 32 31 37 41 40 39 40 40 34 31 27 25 21 21 21 21 20 20 19 21 18 17 18 19 16 16 16 19
28 30 30 32 37 38 37 37 37 32 32 32 32 33 37 39 40 40 40 41 38 38 37 30 25 23 20 19 20 20 20 20 18 19 20 19 18 18 20 17 17 17 15 14
32 31 28 32 34 35 35 38 39 36 35 35 36 38 40 40 41 40 41 38 37 34 29 24 22 19 19 22 23 20 19 18 18 18 16 17 17 17 16 16 17 15 14 13
29 27 28 29 32 32 34 37 40 39 40 39 40 41 40 42 42 42 39 36 32 27 23 21 20 22 21 21 21 21 19 20 18 15 15 15 16 15 16 16 15 14 13 13
30 28 24 28 32 35 39 33 40 40 40 41 41 37 38 43 39 37 33 29 27 25 23 25 28 25 27 28 27 25 21 16 14 14 14 15 17 17 15 14 13 12 13 12
32 30 29 31 33 35 28 30 36 41 41 41 37 36 38 41 38 37 34 34 33 32 31 32 31 30 25 22 17 16 14 13 13 14 15 16 16 15 15 13 13 13 13 12
34 32 29 34 35 33 35 36 35 38 41 37 36 36 36 35 36 33 29 27 25 23 22 21 20 19 17 15 14 13 13 13 14 15 15 18 22 20 17 14 13 12 11 11
36 33 35 36 37 37 37 36 37 37 42 40 38 35 35 35 32 30 26 24 22 21 21 21 20 18 15 14 13 14 14 14 15 16 17 20 21 21 17 13 11 10 10 12
35 35 35 36 37 36 36 35 35 37 37 38 34 33 31 30 30 28 27 24 22 20 17 15 14 14 12 13 14 14 14 14 15 15 14 14 15 17 15 11 9 10 10 12
35 35 35 36 36 36 34 33 32 33 34 34 32 31 29 27 26 25 24 23 22 19 16 14 12 12 12 14 14 14 14 15 16 15 14 14 14 13 11 12 16 15 14 14
30 36 35 35 36 36 34 32 32 32 32 32 31 29 28 25 24 23 21 21 19 17 14 12 11 12 14 16 16 15 14 14 15 14 14 13 11 10 20 17 17 19 19 18
34 36 36 36 36 35 33 32 31 30 30 28 27 26 24 23 21 24 19 18 16 15 14 13 13 14 14 15 16 16 15 15 15 14 11 10 9 7 7 11 14 13 13 16
37 37 36 36 35 34 31 30 30 27 26 25 24 23 22 21 20 18 16 15 15 14 14 13 13 14 14 15 17 17 17 19 13 12 13 12 8 7 7 6 5 7 12 15
37 36 36 36 34 31 29 29 28 26 24 24 23 21 20 18 17 15 14 14 14 13 13 14 15 15 16 17 18 18 16 14 12 12 13 10 7 8 8 7 7 9 10 13
37 37 36 35 34 31 30 29 26 24 23 22 20 19 17 16 15 15 15 15 14 14 15 15 15 16 18 19 19 19 18 17 12 8 7 6 7 8 8 8 9 10 10 10
37 37 39 38 36 32 30 29 27 24 22 20 18 17 17 16 16 16 16 15 15 16 17 17 17 17 18 16 15 11 12 12 11 7 6 8 10 10 9 10 11 11 10 10
38 38 38 36 34 32 31 28 26 23 20 19 18 17 17 16 16 15 15 15 15 16 17 17 18 18 15 13 12 11 9 8 7 7 7 9 12 11 10 11 11 11 10 11
36 36 37 35 34 32 30 27 25 21 19 19 18 18 17 16 15 15 15 14 14 15 17 21 22 17 14 14 11 10 8 7 6 6 8 12 10 10 11 11 11 10 11 10
35 36 36 34 33 31 28 25 21 19 19 19 18 17 16 15 15 15 14 14 15 19 23 23 19 15 13 13 11 9 8 7 6 7 9 11 10 11 10 12 11 11 11 11
35 35 34 33 31 29 26 22 20 19 18 18 18 17 16 15 15 17 17 16 17 19 20 20 15 12 11 10 9 9 8 7 7 8 9 9 10 10 11 12 13 13 13 13
34 33 33 31 28 26 24 22 21 19 18 18 17 16 15 16 17 18 17 16 19 22 19 17 14 14 13 10 9 8 8 8 8 9 10 10 13 14 16 16 16 16 16 16
33 32 31 29 27 25 23 21 20 19 18 17 16 16 16 17 17 16 16 19 20 21 19 17 20 17 13 8 8 8 8 9 9 10 12 15 16 17 16 16 16 16 17 17
31 30 29 27 25 22 21 21 19 18 17 17 17 17 16 16 17 19 20 21 23 22 21 20 18 15 8 8 8 8 9 9 13 16 15 16 17 17 16 16 15 16 16 16
31 28 28 27 24 22 23 22 21 19 16 16 16 17 17 17 17 18 19 20 23 20 19 20 16 11 8 8 9 9 10 14 16 15 13 16 16 16 16 15 15 15 16 16
27 26 26 25 22 21 20 19 18 17 16 15 16 16 17 18 19 19 19 19 15 14 9 8 9 7 8 8 9 8 9 11 11 12 15 15 16 15 15 14 14 14 15 15
28 26 22 21 21 20 20 19 17 17 16 15 15 16 17 16 16 13 13 9 5 3 2 3 4 7 7 7 7 8 11 12 14 14 15 15 14 15 14 14 14 14 15 15

GFSNGP_sfc_dewp_045.txt.gz
Dewpoint
30 30 29 28 29 30 29 29 28 26 29 32 35 38 39 39 40 42 40 40 37 40 42 43 40 36 31 31 31 31 31 28 28 28 28 25 23 23 23 25 26 28 28 27
22 28 29 27 30 31 31 31 33 34 34 37 38 40 38 42 42 40 39 41 40 40 38 34 33 30 27 31 30 28 29 26 25 24 23 23 22 22 22 22 21 22 24 25
20 28 30 27 31 31 32 35 35 35 36 40 39 41 40 39 38 40 42 42 40 30 27 26 25 25 27 23 24 24 22 21 21 21 23 25 26 25 28 29 30 30 30 24
23 26 21 31 34 35 34 36 37 38 38 39 40 40 39 34 31 32 42 37 29 25 23 21 21 22 22 22 22 22 23 23 24 25 27 27 28 28 28 27 25 23 18 15
26 24 26 31 33 32 32 32 39 38 39 40 40 42 38 33 28 26 23 22 21 20 21 22 22 22 22 22 24 26 26 29 30 30 30 30 31 32 32 31 25 15 15 14
31 23 23 31 33 36 36 30 37 39 40 40 38 36 37 35 30 24 22 23 23 22 23 22 24 26 27 28 29 29 30 32 31 32 32 31 30 24 19 17 15 16 14 13
30 29 28 30 32 39 29 29 36 39 42 37 37 38 38 35 34 32 31 31 30 32 31 31 32 32 32 33 33 34 34 35 35 34 33 31 26 19 17 16 14 13 12 11
33 29 24 32 35 33 35 37 36 39 40 37 37 36 35 36 36 35 34 34 34 34 34 35 36 35 34 33 34 34 34 32 30 27 23 21 21 19 15 14 11 11 11 13
30 29 31 36 37 36 36 36 36 38 40 39 36 34 30 30 28 35 35 35 35 34 34 34 35 35 33 33 32 27 22 20 20 20 20 20 19 17 14 12 12 11 11 14
35 36 37 36 35 35 34 34 34 40 39 38 37 34 32 29 28 27 27 25 25 23 23 19 15 15 18 18 19 18 17 17 17 17 16 16 16 16 14 13 12 13 15 15
34 35 35 36 36 34 33 33 33 36 38 37 36 34 32 31 29 28 25 21 18 15 14 14 15 15 16 16 16 16 16 17 16 16 15 14 13 14 17 17 16 16 18 17
33 34 35 35 36 35 32 33 33 33 33 33 30 28 27 25 24 21 18 17 16 15 15 14 15 16 17 18 17 15 15 15 16 14 13 11 10 10 19 19 18 17 15 15
34 36 36 36 34 33 32 32 32 32 31 29 27 25 24 21 19 22 16 15 15 16 17 16 16 16 17 18 18 17 16 16 16 13 11 9 8 8 9 12 17 18 18 19
37 37 36 35 34 31 31 31 30 27 27 26 24 23 22 21 19 16 15 15 16 17 17 16 17 17 18 19 18 18 18 20 14 12 11 9 8 9 9 8 8 10 15 18
38 37 36 33 31 29 29 28 27 25 24 23 23 21 18 17 16 15 15 15 16 16 17 18 18 18 19 18 15 14 13 13 11 11 11 11 10 10 10 10 10 11 12 14
37 35 33 32 29 29 29 28 25 24 23 21 19 18 17 16 15 15 16 17 16 16 18 18 19 19 19 18 17 15 15 17 13 8 9 10 11 11 10 11 11 11 11 11
35 33 31 29 30 29 29 27 25 23 21 18 16 16 16 16 16 16 17 17 17 18 19 18 17 16 17 16 15 12 11 12 14 9 9 11 13 11 11 12 12 12 11 12
38 37 37 34 31 30 29 26 24 22 18 17 17 16 16 15 15 16 17 17 17 17 18 17 15 14 13 12 12 11 10 9 9 9 9 13 13 11 12 11 12 12 12 12
38 37 38 36 33 31 28 25 22 19 17 17 16 16 16 16 16 16 16 16 16 16 18 19 20 16 14 15 13 11 9 8 7 9 10 13 10 11 12 12 12 12 12 13
36 37 38 38 38 34 26 23 19 18 18 17 17 16 16 16 16 16 16 16 17 19 20 17 15 14 13 15 15 10 8 8 8 9 11 10 10 12 12 14 14 14 14 14
34 35 36 36 34 28 23 20 19 18 18 17 16 16 16 16 16 17 18 18 21 22 18 17 13 12 13 14 11 9 9 8 9 9 10 10 12 13 14 15 14 14 14 15
34 33 32 30 27 23 21 20 20 19 18 17 17 16 16 17 17 18 19 20 22 24 17 14 12 15 14 14 10 9 9 9 9 9 11 12 12 12 11 11 11 14 15 14
32 33 31 27 24 22 21 20 19 18 18 17 16 16 16 17 17 17 17 21 22 20 15 15 19 18 17 9 9 9 8 9 10 12 12 9 10 7 8 9 11 12 11 12
30 30 30 27 23 21 19 20 20 19 18 17 17 17 17 16 18 19 21 24 24 21 18 19 18 17 13 9 9 8 9 10 11 8 11 14 6 7 8 9 9 11 11 13
26 25 24 24 22 21 21 21 20 19 17 18 18 18 18 18 18 21 21 22 25 21 20 21 18 15 9 9 9 8 9 8 4 6 9 6 6 6 7 8 9 10 11 10
27 26 25 24 23 21 20 19 18 18 17 17 18 18 21 20 21 21 22 23 22 22 18 16 11 9 8 8 9 8 8 10 11 11 11 8 7 7 8 9 9 10 11 11
24 26 21 22 22 21 20 19 18 18 18 17 18 20 20 21 21 21 22 20 18 15 11 11 11 9 7 7 7 7 10 9 12 11 7 5 6 5 8 9 9 11 11 12

GFSNGP_sfc_dewp_048.txt.gz
Dewpoint
29 29 29 28 27 28 24 27 25 25 27 29 32 34 38 40 41 42 42 41 40 40 39 41 36 34 33 36 38 39 36 34 30 27 26 26 26 25 26 27 27 28 29 31
22 27 29 26 29 29 29 29 30 29 30 32 34 40 39 39 37 36 37 42 42 33 32 31 29 30 31 34 35 36 34 32 31 27 24 25 26 29 29 29 29 30 29 29
19 27 29 25 29 30 30 31 31 30 32 37 38 40 38 35 31 31 33 40 32 26 23 24 27 28 29 31 29 30 29 29 26 25 25 27 28 29 30 31 32 33 33 32
20 24 18 28 33 33 31 31 34 36 37 38 40 39 35 30 27 27 25 24 22 21 22 23 25 26 28 31 31 31 30 30 30 31 32 32 33 33 33 33 33 33 31 29
25 23 26 30 33 32 32 32 37 36 37 40 39 41 37 33 24 23 23 22 22 23 23 22 22 23 25 26 28 30 30 31 32 33 32 32 33 33 33 32 31 29 26 24
30 23 22 27 31 35 34 29 37 37 38 41 38 38 37 34 27 26 24 24 24 23 24 24 25 27 27 29 30 31 33 34 34 34 34 33 33 32 32 30 26 20 17 14
29 28 28 29 31 39 28 29 36 38 40 37 38 38 37 34 32 32 32 32 31 31 31 31 31 31 32 33 33 34 34 34 35 34 33 33 32 30 27 23 16 13 12 12
31 29 24 30 35 33 35 36 36 38 38 38 37 36 36 36 34 33 33 33 34 33 34 35 36 34 33 32 34 34 34 34 33 33 33 31 27 22 16 13 11 11 13 14
32 29 30 33 36 37 36 35 36 37 38 38 37 33 30 32 35 34 34 35 35 34 33 34 36 35 33 33 34 33 32 32 30 26 22 19 18 16 12 12 12 11 12 13
33 34 33 34 36 35 34 34 34 38 39 37 35 31 29 29 29 32 35 35 35 34 29 29 30 33 32 32 31 27 20 19 18 17 17 15 15 16 13 11 11 12 14 14
35 35 36 36 36 35 33 33 33 40 39 38 35 32 29 27 27 25 24 22 19 16 16 16 18 18 18 18 17 16 17 17 17 15 13 13 14 16 15 15 14 14 16 16
34 35 35 36 36 35 32 32 34 36 36 36 36 33 32 29 27 22 19 17 17 16 16 16 16 17 18 18 17 16 15 15 15 13 12 11 11 13 21 19 17 17 17 18
35 36 36 36 35 33 32 33 33 33 33 30 29 28 26 23 21 22 17 17 17 17 18 17 17 17 18 18 17 17 16 15 16 11 9 8 8 8 7 11 17 18 19 19
38 37 36 35 34 32 32 32 32 29 28 27 25 23 22 24 22 17 17 17 18 18 18 17 17 17 18 17 16 15 17 19 12 10 9 9 9 9 9 9 9 11 15 17
37 36 35 33 31 30 29 27 26 25 24 24 23 22 23 20 17 16 16 16 17 17 17 18 18 18 18 17 16 15 14 11 11 11 11 11 11 10 10 11 11 11 12 13
37 34 32 32 30 28 28 27 25 24 23 21 19 19 18 17 17 16 17 17 17 18 18 18 18 18 16 15 13 12 12 15 11 9 11 11 11 10 11 11 11 11 11 11
36 33 31 29 29 28 28 27 26 24 21 18 17 17 17 17 17 17 17 18 18 19 19 19 19 18 17 15 14 13 13 14 14 9 11 13 12 11 11 11 11 11 11 12
36 37 37 36 32 29 29 27 25 23 20 18 17 16 16 16 16 17 17 18 18 17 17 16 16 15 13 12 11 10 10 9 9 9 11 13 11 11 11 11 12 12 12 13
36 36 37 37 34 31 29 26 24 20 18 18 17 16 16 17 17 17 17 16 16 15 15 16 20 15 12 14 12 11 9 8 8 9 12 12 10 11 11 13 13 14 14 13
35 37 38 36 34 31 28 25 20 18 18 17 17 17 16 17 17 16 16 15 15 16 19 19 15 15 15 16 14 9 8 8 8 9 12 9 11 12 13 15 15 14 14 14
34 35 35 39 38 36 31 27 23 18 17 18 17 16 16 17 16 16 16 15 19 21 17 18 13 13 15 15 11 9 9 8 8 9 9 10 12 13 14 14 14 14 14 14
32 33 32 31 31 25 23 21 20 18 18 17 17 17 16 16 17 17 18 16 21 24 17 13 12 16 15 15 9 9 9 9 9 9 11 12 12 11 10 10 10 13 14 13
30 31 31 29 26 23 21 21 20 19 18 18 17 17 16 17 17 17 17 21 22 22 14 12 17 20 19 9 9 8 8 9 10 12 11 8 9 6 6 7 9 11 9 11
29 27 28 27 23 21 20 20 20 19 19 18 18 17 17 17 17 18 22 25 24 21 14 16 19 21 15 9 8 8 8 9 10 7 9 14 5 5 6 7 8 9 10 12
26 26 25 24 23 22 22 22 21 20 18 17 18 18 18 18 17 20 22 23 25 20 18 22 21 19 9 8 8 8 8 8 5 7 8 5 4 3 6 7 7 9 10 10
26 26 27 25 24 22 21 20 19 18 18 17 18 19 20 21 22 22 22 23 22 21 19 18 15 11 8 8 8 8 8 10 11 10 10 7 5 4 6 7 8 9 10 10
25 28 23 24 23 22 20 20 18 18 19 18 17 19 20 21 22 22 24 23 21 19 16 12 13 10 8 8 8 6 9 11 13 11 7 4 4 4 7 8 8 9 10 11

GFSNGP_sfc_dewp_051.txt.gz
Dewpoint
28 28 29 28 27 28 22 26 19 23 25 26 27 29 34 39 38 36 35 34 36 40 38 35 32 33 36 38 38 36 34 34 34 30 30 27 26 26 27 28 28 29 29 30
22 26 29 27 29 29 28 28 28 28 28 29 31 36 40 37 33 32 32 32 37 29 28 28 28 29 31 33 33 33 32 30 29 28 28 29 29 30 31 31 31 31 31 32
19 26 28 23 28 28 28 29 29 28 29 36 36 40 38 34 29 28 27 25 22 22 24 26 29 31 30 29 31 31 32 29 30 32 31 31 32 32 33 33 33 33 34 34
21 23 17 25 32 31 29 30 31 31 32 36 39 39 35 32 25 25 25 21 21 23 23 26 29 32 34 34 34 34 33 34 35 33 33 33 33 33 34 34 33 33 33 33
23 24 24 29 34 33 32 32 34 34 36 37 39 39 37 34 24 24 25 26 25 23 23 23 24 27 30 31 33 33 34 35 34 34 33 33 33 33 33 33 32 32 32 32
30 24 20 26 31 36 34 29 36 36 36 41 39 38 38 33 30 28 29 26 28 28 28 28 27 28 29 31 32 33 34 34 34 34 34 33 33 32 32 32 32 30 25 23
29 26 27 29 31 38 28 29 36 36 37 39 38 38 36 34 32 33 32 32 34 34 34 34 34 33 33 33 32 34 35 35 34 34 33 32 32 32 31 29 19 14 13 14
29 28 24 30 37 33 34 36 37 37 38 39 38 36 36 35 33 34 33 33 33 34 35 35 35 34 33 32 35 35 34 33 33 34 34 33 31 25 17 13 12 13 13 14
29 28 30 31 35 37 36 35 35 37 38 39 37 34 35 35 34 34 33 33 33 34 34 35 35 35 32 34 35 34 33 33 32 30 23 19 16 14 13 12 12 12 12 13
33 34 34 34 35 36 35 34 34 35 39 38 36 32 31 32 35 34 35 34 34 33 33 33 34 34 34 34 32 28 22 19 18 17 15 15 15 14 11 10 11 12 13 14
34 35 35 36 36 36 34 33 33 39 38 37 33 31 30 29 28 31 29 30 23 21 23 26 27 27 26 21 18 17 17 17 16 13 13 14 15 15 15 13 12 14 15 15
33 35 35 35 35 36 34 32 33 38 37 37 35 31 30 28 26 25 20 19 19 19 19 18 17 17 18 18 17 16 14 14 14 13 13 14 15 17 22 22 21 20 20 18
35 37 36 36 35 35 33 32 33 36 37 36 35 32 29 28 23 23 19 19 18 18 18 17 17 17 18 17 17 16 16 14 14 10 7 7 7 7 7 12 18 20 21 20
37 37 35 35 35 33 32 32 33 31 31 30 28 28 26 26 28 19 18 18 19 19 19 18 17 17 17 17 16 15 16 17 9 9 9 9 9 9 9 9 9 10 15 18
35 36 34 34 32 31 30 28 28 27 25 24 24 24 27 28 24 18 18 18 18 18 18 18 17 17 17 17 17 15 12 10 10 10 10 12 10 10 10 11 11 11 11 13
36 37 34 32 31 29 28 27 26 25 24 22 22 24 26 23 19 18 18 18 17 18 19 18 17 16 16 15 13 11 12 16 13 11 12 11 11 10 11 11 11 11 11 11
34 33 35 31 31 29 28 27 26 25 23 20 20 19 18 18 18 18 18 19 19 19 19 18 18 17 16 14 13 14 14 13 13 10 11 12 11 10 11 11 11 11 11 12
34 35 36 37 36 32 29 28 26 24 21 20 19 18 18 17 17 18 18 19 19 18 19 18 18 16 14 13 13 13 12 10 9 10 12 12 10 11 11 11 12 12 13 13
34 35 36 37 38 35 31 29 26 23 22 22 20 17 17 17 18 18 18 17 16 16 16 17 22 16 12 13 12 10 9 9 9 10 12 12 11 11 11 13 14 14 14 14
34 35 36 36 33 32 28 26 22 21 21 21 18 17 17 17 17 17 17 16 16 16 16 17 16 12 12 16 15 9 8 8 8 9 11 9 11 12 13 15 15 14 14 14
33 33 35 38 39 35 31 28 25 19 18 18 17 17 17 17 17 16 15 15 16 19 17 21 14 14 15 16 13 9 8 8 8 8 9 10 11 12 13 14 13 13 14 14
30 30 30 32 33 31 32 30 28 22 18 18 18 18 17 17 17 17 17 15 19 24 19 15 14 17 16 18 9 8 8 8 8 9 10 12 12 12 10 9 9 12 13 11
29 29 28 28 27 25 28 26 23 20 19 22 19 17 17 17 17 16 16 19 20 23 15 12 16 20 20 11 8 8 8 8 9 10 11 8 9 6 6 6 8 10 8 9
28 28 28 26 25 22 21 21 22 23 22 19 19 18 18 17 17 18 21 24 24 24 14 13 17 21 22 8 8 8 8 8 10 7 9 14 6 5 5 7 7 8 9 10
26 26 26 27 25 24 22 23 22 21 19 18 18 18 18 19 18 19 22 23 26 22 15 19 22 23 13 8 8 7 8 8 4 5 8 6 5 4 6 7 7 8 8 9
25 26 26 26 25 24 23 21 20 19 18 18 18 19 19 20 21 21 22 24 23 21 16 20 20 18 9 8 8 8 8 10 12 11 11 9 7 5 6 7 7 8 9 9
23 27 27 26 26 25 22 21 20 19 20 18 18 19 20 20 22 22 24 23 22 19 18 18 18 15 8 8 10 7 9 10 13 12 12 11 7 5 7 8 7 8 9 10

GFSNGP_sfc_dewp_054.txt.gz
Dewpoint
27 26 28 27 27 28 20 24 18 21 24 25 26 28 29 38 36 33 32 28 29 28 29 29 31 33 34 35 35 34 32 32 31 32 33 30 29 29 29 30 29 30 30 31
21 27 28 27 29 28 28 27 27 27 27 28 29 32 40 37 33 30 28 25 23 24 26 28 29 29 30 32 31 31 31 30 30 31 33 32 33 32 31 31 31 32 33 34
20 25 27 23 28 28 28 29 29 26 27 29 34 38 39 34 31 27 26 23 22 23 25 28 32 33 32 32 32 32 32 32 33 33 33 33 33 34 33 34 34 34 35 36
24 23 17 23 31 30 28 27 30 29 29 31 37 39 35 34 27 24 25 26 23 23 24 26 31 32 34 35 35 35 34 35 35 35 35 34 34 34 34 34 34 34 33 33
23 22 23 28 33 31 30 31 32 30 31 36 40 38 37 33 25 24 25 25 25 26 25 27 28 30 31 32 33 34 34 35 35 35 34 34 33 33 33 33 32 32 32 33
29 22 20 23 30 36 34 28 34 35 36 37 39 35 39 33 30 29 29 28 29 30 31 31 32 33 33 33 34 34 35 34 35 34 34 33 33 32 33 32 32 32 31 31
28 26 25 28 30 36 30 28 35 36 36 40 38 38 36 33 32 33 33 33 34 34 34 33 34 34 33 33 34 35 35 35 34 34 33 33 32 32 32 30 24 17 16 16
28 27 23 30 36 34 34 36 35 35 37 40 38 36 36 33 33 33 33 33 34 35 35 35 35 35 34 33 35 35 34 33 33 33 35 34 31 25 15 13 14 14 13 14
28 25 29 32 34 36 37 35 34 35 38 39 37 36 35 34 33 33 32 33 32 35 35 35 36 35 33 34 36 34 34 33 32 23 18 16 15 14 12 12 12 12 11 12
33 34 34 35 35 35 36 35 35 35 39 38 37 35 34 34 33 34 33 32 33 34 34 34 35 35 35 34 33 28 21 18 16 15 14 13 12 11 10 10 11 11 12 14
32 35 35 36 36 37 35 34 33 37 39 38 35 33 32 33 34 34 34 33 27 30 32 32 33 32 29 21 19 18 18 16 13 14 14 15 16 16 15 11 13 13 14 15
33 35 35 35 36 36 35 34 33 35 37 36 34 32 31 30 30 28 25 21 23 25 24 23 23 20 18 19 18 16 14 13 14 14 15 17 18 18 23 22 22 23 22 19
36 37 37 37 36 35 34 34 33 35 38 36 34 31 30 29 28 26 21 22 21 23 21 18 17 17 18 18 17 15 14 13 14 9 7 7 7 6 6 12 19 20 21 20
37 36 35 34 35 35 33 33 34 33 34 36 34 31 29 28 30 24 20 21 20 20 19 18 17 17 17 17 16 15 15 16 8 8 9 9 8 9 9 9 9 10 15 17
34 36 36 35 32 31 30 30 30 29 28 28 29 29 28 28 28 26 20 19 19 19 18 18 17 16 17 16 17 16 11 9 9 10 11 11 10 10 10 10 10 10 11 13
34 35 36 35 33 31 29 28 28 28 25 24 25 26 28 29 28 21 19 19 18 18 19 18 17 17 17 17 13 10 12 16 14 12 11 10 10 10 10 11 10 11 11 11
32 33 34 31 35 32 29 29 28 27 25 23 23 25 25 22 21 20 19 19 19 20 20 18 17 17 17 13 11 13 14 13 15 10 11 11 10 10 11 11 11 11 11 13
33 34 33 34 35 36 35 30 28 26 24 23 21 20 20 20 20 19 19 20 19 19 19 18 17 16 13 13 13 14 13 11 8 10 12 12 10 11 11 11 12 12 13 13
33 34 35 35 36 37 37 32 29 26 23 21 20 19 19 21 21 19 19 18 17 17 17 19 22 17 13 15 14 12 9 8 8 10 12 13 11 11 11 12 13 14 13 13
33 34 35 35 37 31 31 29 26 23 23 21 21 22 22 20 19 18 18 17 17 17 18 20 18 13 11 17 15 9 8 8 7 9 10 9 9 11 12 14 14 14 13 13
30 31 32 34 35 37 30 26 23 23 22 23 23 21 18 18 18 18 17 16 16 20 17 23 14 12 13 18 13 8 7 7 7 8 9 10 9 12 12 13 13 13 13 13
28 29 29 28 30 33 33 33 30 28 22 19 19 18 18 18 18 18 17 16 18 24 20 17 14 16 16 20 9 8 8 7 7 8 9 10 11 11 10 9 9 12 12 11
28 28 28 28 26 25 27 31 30 28 22 20 19 18 18 18 17 16 16 18 19 23 18 15 18 21 21 14 8 7 7 8 8 8 10 8 10 7 7 7 8 10 8 9
26 27 27 27 26 24 23 23 23 26 26 26 26 24 20 17 17 18 20 23 23 25 16 16 20 23 22 11 8 7 7 7 8 7 10 14 7 6 7 8 8 9 8 10
24 24 26 26 26 25 24 23 22 21 20 20 19 20 19 19 18 18 21 23 25 24 17 22 23 23 17 10 7 7 8 9 7 9 9 8 8 6 7 8 8 8 8 8
22 23 25 27 25 25 24 22 21 20 19 18 18 19 19 19 20 21 21 24 23 24 16 17 19 20 14 9 8 7 8 9 12 13 12 10 8 8 8 8 7 8 9 8
18 22 20 23 24 25 25 26 24 22 20 19 18 19 19 20 21 21 23 23 23 22 16 18 21 20 13 9 9 7 9 10 12 12 11 10 10 9 8 7 8 9 9 9

GFSNGP_sfc_dewp_057.txt.gz
Dewpoint
27 26 28 28 28 27 23 24 21 20 23 23 25 27 29 38 35 32 29 26 24 25 28 29 30 30 32 32 31 32 31 32 33 33 34 34 34 35 34 35 35 33 32 33
22 27 28 27 29 29 28 27 26 26 27 28 29 30 38 36 33 29 27 25 23 24 27 30 32 31 32 32 33 32 33 32 33 33 34 35 36 35 35 35 36 36 36 36
21 26 26 24 28 28 28 29 28 27 28 29 32 34 40 36 32 27 26 25 23 23 25 30 33 34 34 34 34 34 35 34 34 34 33 33 34 35 35 35 36 37 37 37
25 23 16 22 30 29 28 28 30 30 30 30 32 39 36 34 28 25 26 26 23 23 25 27 32 33 34 35 35 35 36 36 36 35 35 34 34 34 34 35 34 34 34 34
22 21 21 28 31 29 29 31 30 29 29 31 39 38 37 32 26 25 25 25 26 27 27 29 29 32 33 34 36 36 35 36 36 35 35 34 33 33 33 33 32 32 33 33
26 22 19 23 30 35 34 30 33 32 33 36 39 35 38 32 30 30 29 30 30 31 31 32 33 33 33 35 35 34 34 35 35 35 34 33 33 32 32 32 32 32 31 33
25 23 23 26 29 35 32 30 35 37 37 38 38 38 36 33 32 33 33 33 34 34 33 33 34 34 34 35 34 35 35 35 35 34 33 33 33 32 31 25 23 22 21 19
26 24 19 30 36 35 36 36 36 36 36 39 38 35 34 33 33 33 32 33 34 34 34 35 36 36 34 33 35 36 35 34 34 34 34 31 24 17 15 14 13 13 12 13
25 24 28 32 35 36 37 36 35 35 36 40 38 36 35 34 33 33 32 32 32 35 35 36 36 34 34 35 35 35 33 28 19 16 14 15 14 14 13 13 12 10 10 13
32 33 32 33 36 35 36 36 35 36 37 39 38 36 35 34 34 33 32 32 32 32 34 34 35 35 35 35 32 24 18 15 14 13 11 10 10 10 10 10 10 10 12 14
32 33 35 36 37 37 36 35 34 35 37 38 37 35 35 34 34 34 33 33 34 34 34 34 35 34 28 24 20 17 16 14 14 13 15 16 16 14 11 11 12 13 15 15
35 35 35 35 36 37 36 35 34 34 38 38 36 34 34 34 35 34 33 26 30 32 32 31 30 25 21 20 18 15 12 13 15 16 18 19 19 20 24 24 24 23 22 19
35 35 36 37 38 35 34 34 34 33 36 37 35 32 32 32 32 32 27 25 28 29 28 26 22 19 19 19 17 15 14 14 14 11 11 13 9 9 9 14 20 20 21 19
36 35 34 35 35 34 33 33 33 33 35 37 35 31 31 30 31 27 25 25 26 26 24 21 18 18 18 18 16 15 14 17 7 7 8 8 8 8 9 8 8 9 14 17
33 35 35 36 36 33 31 31 30 30 30 32 34 30 29 29 30 27 25 23 22 23 21 19 17 17 18 17 15 16 13 9 8 9 10 11 9 10 10 10 10 10 11 12
33 34 35 34 35 35 31 30 29 29 28 28 29 29 29 30 29 28 24 21 20 21 20 18 17 17 17 18 16 12 10 14 13 13 12 9 9 9 10 10 10 10 10 11
32 32 32 33 34 34 35 32 30 29 28 26 26 27 29 29 28 25 21 20 20 21 20 19 18 18 18 15 12 12 16 16 16 10 10 10 9 9 10 10 10 11 11 12
32 33 34 34 34 34 35 36 33 29 27 26 25 26 26 25 26 23 23 22 20 20 20 19 18 18 15 13 12 14 13 13 9 10 12 11 10 10 11 10 11 12 13 13
34 34 34 35 35 35 35 37 35 30 27 24 23 22 23 24 26 27 25 22 21 18 19 19 23 18 14 15 15 13 11 8 8 11 11 14 13 11 11 11 13 14 14 12
34 33 33 34 36 35 29 28 29 26 23 22 22 21 21 23 25 25 25 23 19 19 19 20 21 15 14 18 19 10 8 7 7 9 10 9 9 10 11 13 14 13 13 12
30 30 30 30 32 35 34 28 24 23 23 22 22 22 23 25 24 22 19 18 18 21 19 24 16 13 13 19 14 8 8 7 7 8 9 12 10 10 12 12 12 13 12 12
28 28 28 28 27 26 31 34 32 29 25 22 23 23 21 20 19 19 18 18 18 25 21 22 16 16 15 23 8 7 7 7 7 7 8 8 9 11 12 13 13 12 12 13
26 27 28 27 27 25 24 25 29 32 31 28 25 21 19 19 18 18 17 18 19 24 21 18 19 22 23 16 9 7 7 7 7 7 9 11 12 12 12 12 12 12 12 12
25 26 27 27 27 26 24 24 23 22 26 27 27 25 25 24 22 20 19 22 23 26 19 18 22 25 24 13 9 8 7 7 9 11 10 13 12 12 11 11 11 11 11 12
21 22 23 26 25 25 25 24 22 22 20 20 21 23 25 23 22 20 23 23 25 26 20 23 25 25 19 13 9 7 8 11 12 10 10 12 12 11 11 11 11 11 11 11
19 20 21 23 24 24 24 25 25 23 21 20 19 19 19 20 20 21 21 23 23 26 19 19 22 22 17 13 9 7 8 9 12 14 13 12 12 12 11 11 11 11 11 11
15 18 16 18 21 21 21 23 26 25 24 21 20 20 19 19 20 21 22 23 23 25 19 18 21 22 17 15 10 7 9 11 14 14 14 14 13 13 12 12 11 10 10 10

GFSNGP_sfc_dewp_060.txt.gz
Dewpoint
27 27 28 29 29 28 29 30 31 22 22 20 23 27 30 36 37 34 32 29 28 29 31 32 33 34 34 34 33 34 34 35 35 35 35 35 35 35 35 36 35 35 33 33
28 27 28 29 29 29 29 28 28 26 26 27 28 29 33 39 36 32 29 27 26 27 29 33 34 35 35 35 34 34 34 33 33 34 34 35 37 37 36 37 38 37 38 38
24 26 27 27 29 29 29 29 28 28 27 28 28 30 37 38 36 30 28 28 27 26 28 32 34 35 35 35 35 35 35 34 34 34 34 35 35 35 36 36 37 37 37 37
27 26 23 24 30 29 28 28 30 29 29 29 30 36 38 37 34 29 28 28 26 26 28 30 32 33 34 36 36 37 36 36 36 35 34 35 35 35 35 35 34 34 33 33
25 22 22 26 29 29 30 32 30 29 30 31 33 40 39 35 29 28 27 26 27 27 29 30 31 32 34 35 34 36 36 36 36 36 35 35 34 33 32 32 32 32 33 34
28 24 18 27 31 35 32 32 35 32 33 34 39 38 40 34 30 30 29 29 29 30 31 31 32 32 33 34 34 35 35 36 36 35 34 33 33 33 33 33 32 34 33 33
26 25 22 24 28 31 32 32 36 37 37 37 37 40 38 34 32 32 32 31 32 32 32 33 33 35 35 35 35 36 36 36 36 36 34 34 33 34 31 27 25 24 22 23
25 25 21 29 36 35 36 37 36 36 37 37 39 35 34 33 33 33 32 32 33 33 34 35 36 36 35 34 36 36 36 35 35 35 30 26 23 19 17 15 14 13 13 14
26 24 27 31 34 35 36 35 36 36 36 38 39 36 35 34 33 33 33 32 33 34 34 35 36 37 35 35 36 35 32 27 21 16 15 16 17 17 13 12 10 7 7 11
30 31 30 29 32 36 37 37 37 36 36 39 39 38 36 34 34 33 33 32 31 33 34 34 36 36 36 35 33 26 18 14 13 12 11 11 10 10 8 6 6 7 10 13
31 32 34 35 37 38 37 37 35 35 35 37 39 38 36 34 34 33 33 32 32 35 34 35 36 36 34 31 24 17 15 14 13 12 12 14 15 12 10 13 14 12 15 15
28 33 35 36 38 39 38 37 37 35 36 39 39 38 37 35 35 34 33 34 35 34 35 36 35 31 29 25 19 15 13 12 13 14 17 18 19 21 25 25 24 23 22 19
35 37 37 37 38 36 35 35 34 34 35 37 38 37 37 35 35 35 33 32 34 35 35 34 33 30 25 22 17 14 13 14 14 15 15 14 12 11 15 19 20 20 20 19
35 35 36 36 36 35 35 34 34 34 35 37 38 36 35 35 35 34 31 30 33 34 32 32 30 24 21 20 17 15 14 17 10 7 7 7 5 5 6 5 5 7 12 17
34 34 35 34 35 36 34 32 32 32 32 33 37 34 33 33 34 33 30 29 31 32 31 29 26 19 19 19 17 15 15 12 8 8 8 8 8 8 8 8 8 8 9 11
32 33 34 35 35 35 36 32 31 32 31 31 33 35 32 32 32 30 28 28 29 31 30 25 22 19 19 18 16 16 13 13 10 8 11 8 8 8 8 8 8 8 9 9
31 32 34 35 35 34 35 35 35 32 31 29 29 33 33 31 31 29 26 26 28 28 29 25 21 19 19 18 17 13 12 13 15 10 8 7 7 7 8 9 9 9 9 10
32 33 33 34 34 34 35 36 36 36 32 30 28 29 30 30 30 29 26 23 22 23 24 22 20 20 18 17 15 13 13 14 13 8 9 9 8 8 9 9 9 10 10 11
35 35 34 34 35 36 36 32 35 37 33 29 27 27 29 29 29 27 25 22 21 20 21 21 25 22 18 17 16 15 14 12 8 7 9 12 13 10 9 9 10 11 12 11
35 35 33 32 34 35 34 27 27 29 28 26 25 24 24 25 27 27 26 25 26 26 25 22 24 19 17 17 21 13 11 9 6 7 9 10 8 7 8 12 13 12 11 11
29 30 30 30 30 30 33 34 27 24 23 23 23 23 23 24 26 27 27 27 28 28 24 24 22 18 16 18 21 12 9 7 5 6 7 10 9 10 9 10 10 11 11 10
27 28 28 28 27 26 25 30 33 32 27 25 24 26 27 27 26 26 27 27 22 27 23 22 21 19 16 23 18 10 8 6 5 5 6 6 7 8 12 14 15 15 14 15
24 26 27 28 27 26 26 25 24 26 31 31 28 25 24 25 23 22 21 20 21 25 22 22 22 23 22 21 13 8 6 6 5 5 8 13 13 16 16 16 17 16 16 16
24 25 26 27 27 26 26 26 25 23 22 25 28 29 27 26 24 22 21 22 23 25 23 22 24 25 24 19 13 8 7 6 8 13 10 13 16 16 16 15 16 16 15 15
22 23 25 25 25 25 23 24 27 27 23 21 21 21 25 27 27 26 24 25 27 25 24 24 26 27 23 18 13 9 8 13 18 15 11 16 17 17 16 16 16 15 15 16
19 18 18 20 22 21 19 21 24 27 27 25 23 21 20 21 21 21 21 23 24 26 24 21 24 24 22 18 13 9 8 10 12 14 14 17 17 16 15 15 15 15 14 15
17 18 18 15 17 17 20 23 23 23 26 26 26 25 21 20 20 21 22 20 23 24 22 19 23 25 21 19 16 11 10 11 14 16 20 20 17 17 16 15 16 15 14 14

GFSNGP_sfc_dewp_063.txt.gz
Dewpoint
26 26 28 30 29 29 31 30 32 23 21 20 23 25 29 33 38 37 34 31 31 32 33 34 35 36 36 36 35 35 35 35 35 36 37 37 37 37 37 36 36 36 36 36
30 27 27 30 28 29 29 29 27 26 26 26 26 28 31 35 38 37 32 30 29 30 31 34 35 36 36 36 36 35 34 34 34 35 35 36 36 37 37 37 36 37 37 38
24 26 26 27 28 28 29 29 29 28 27 28 27 30 32 38 39 36 32 30 30 29 30 33 34 35 35 35 36 36 35 34 34 34 34 35 35 36 36 35 35 35 35 34
26 26 23 28 30 29 28 28 29 28 28 28 29 31 38 39 38 34 30 30 28 28 30 31 32 33 34 36 35 35 35 35 35 35 35 36 35 35 35 35 35 34 33 33
26 23 23 21 28 28 29 31 29 28 29 30 31 38 40 38 33 31 30 29 28 29 30 31 31 32 34 34 35 34 36 35 36 36 35 35 34 34 33 33 33 33 33 34
28 24 19 29 32 33 31 32 35 33 32 34 36 38 41 37 32 31 29 29 30 30 30 31 31 32 33 33 35 35 35 36 36 36 35 34 33 33 34 34 33 33 34 34
26 24 24 26 34 30 31 33 36 37 37 37 37 39 40 36 33 32 32 32 32 31 31 32 33 34 33 35 35 36 36 36 36 36 35 35 34 34 33 28 26 24 23 24
25 24 22 27 33 29 37 37 36 36 37 37 38 37 36 35 34 34 33 33 32 32 33 34 35 34 33 34 36 36 36 35 36 34 31 27 26 21 19 14 13 13 13 14
25 25 28 31 34 34 36 37 38 37 37 37 40 37 36 35 34 33 33 33 33 34 34 35 36 36 35 35 36 35 33 30 22 16 17 18 20 19 14 11 8 6 8 12
28 29 29 28 32 35 37 37 37 37 37 37 39 39 36 35 34 34 33 32 32 33 34 35 36 37 35 35 34 30 22 15 14 14 13 12 10 13 10 5 5 7 10 12
29 30 33 36 36 38 38 38 37 36 36 37 38 39 37 36 35 34 33 32 32 33 34 35 36 35 35 33 29 20 14 14 13 12 11 13 15 14 11 18 19 13 16 16
28 31 31 35 39 39 38 38 37 37 36 38 38 39 38 37 35 34 33 32 32 34 34 35 36 35 33 30 24 16 13 13 13 15 15 17 18 21 26 25 24 23 23 21
32 37 37 37 38 37 36 36 36 35 36 36 38 39 39 37 36 36 34 33 35 35 35 35 35 33 31 27 20 16 15 15 15 16 16 16 13 12 17 21 20 20 20 19
35 36 36 37 37 36 35 36 35 34 35 35 37 38 38 38 37 35 34 34 35 35 36 36 34 33 28 24 19 17 17 20 15 14 14 12 6 7 6 6 5 8 16 17
34 35 35 35 35 35 36 35 34 34 34 34 36 37 37 37 36 36 35 32 34 35 34 34 34 31 25 23 20 17 16 17 13 12 12 11 9 8 8 7 7 7 9 13
34 33 34 34 35 35 35 36 34 34 34 33 33 36 36 36 36 36 34 31 33 33 33 33 32 27 22 22 20 18 17 18 13 11 10 9 8 8 7 7 7 8 8 9
32 33 34 35 35 34 34 35 35 36 36 34 32 32 36 35 34 34 31 30 33 33 35 32 30 23 22 21 20 18 16 15 15 11 11 9 8 7 7 8 9 9 9 9
32 33 33 34 34 34 35 35 37 36 36 37 33 30 33 34 33 32 29 29 30 30 32 31 27 22 21 20 20 17 16 15 16 11 10 9 8 8 8 9 9 9 10 10
34 35 35 34 34 34 36 36 31 30 35 37 31 29 30 32 32 32 29 26 26 28 27 27 28 24 21 22 20 17 16 15 14 10 9 11 11 9 9 9 9 10 11 11
35 35 35 32 32 33 34 35 31 26 29 31 29 28 28 29 30 29 27 26 27 27 26 27 28 23 20 21 23 17 16 14 11 7 9 9 10 11 9 10 10 10 11 11
30 30 30 30 30 31 30 34 34 27 24 24 25 25 25 26 28 28 27 27 28 30 28 29 29 27 23 20 23 16 14 12 8 7 9 11 8 8 8 9 10 9 10 10
25 27 28 28 28 27 26 25 25 31 32 29 27 27 27 27 26 27 28 29 30 32 32 31 31 31 26 24 22 15 13 10 7 6 8 8 10 11 13 15 17 17 17 17
23 24 24 26 27 27 27 27 26 23 24 29 31 29 28 29 29 28 28 28 27 28 31 29 31 32 34 27 21 15 11 9 7 6 9 15 16 18 19 19 19 19 20 19
22 22 23 24 26 25 24 24 27 27 24 22 25 28 29 28 28 27 27 26 25 24 26 23 25 27 27 21 18 14 11 9 10 14 11 15 20 20 20 19 19 19 18 17
22 23 23 24 20 20 20 21 24 28 28 26 25 23 22 26 27 28 25 23 25 26 25 26 27 28 25 21 18 13 11 14 18 17 14 19 20 20 20 19 19 18 18 18
18 15 16 17 18 18 17 20 21 23 25 25 27 27 25 22 22 22 22 23 24 28 27 23 25 26 25 22 21 15 12 12 14 16 17 18 20 21 20 18 18 18 17 18
19 19 17 16 16 15 18 21 21 20 22 22 23 25 27 26 22 22 22 21 22 24 26 23 23 25 25 22 21 16 13 14 16 17 19 20 21 22 18 18 18 18 18 17

GFSNGP_sfc_dewp_066.txt.gz
Dewpoint
26 27 30 31 29 29 27 29 22 25 21 20 23 26 27 34 38 37 35 32 32 33 33 34 35 36 36 36 35 36 35 35 35 36 37 36 38 37 36 36 37 37 37 37
25 27 27 27 29 30 30 29 29 28 26 27 27 28 31 35 39 38 35 32 30 30 32 35 36 36 36 36 36 36 34 34 35 35 35 35 35 36 36 35 36 35 35 37
22 27 26 23 27 29 29 30 29 27 27 28 29 30 33 38 39 38 34 31 30 30 32 34 35 35 35 36 36 35 35 34 34 34 34 35 35 36 35 35 35 35 34 34
23 24 16 28 31 30 29 30 30 30 30 29 29 34 38 39 39 35 31 31 29 30 31 33 33 34 35 36 35 35 34 34 34 34 34 35 35 35 34 34 34 33 33 33
23 23 24 27 27 28 29 30 30 29 29 30 35 38 39 38 34 32 31 30 29 30 31 31 32 34 34 34 34 34 34 34 34 33 35 35 33 33 33 33 33 32 33 29
28 22 21 30 30 33 31 32 35 31 30 32 38 36 40 35 32 30 29 29 29 30 31 31 31 33 33 34 35 35 35 35 34 35 34 33 33 33 33 32 30 29 31 29
27 26 25 32 33 31 31 33 37 37 37 37 37 39 39 35 34 32 31 31 31 31 31 32 34 34 33 34 34 36 36 36 35 35 34 34 33 29 27 27 26 23 23 23
27 26 20 32 31 29 36 36 37 37 37 39 39 38 36 36 35 34 33 33 33 32 33 34 35 35 34 34 36 36 35 35 34 34 33 32 27 24 18 15 14 15 15 16
25 26 30 31 34 35 37 38 37 37 38 38 40 37 36 35 35 34 34 33 33 34 34 35 35 35 34 35 36 35 34 31 27 22 21 21 19 16 12 9 7 7 10 14
27 29 29 28 33 37 38 37 37 37 37 37 39 38 37 35 34 34 33 33 33 33 32 34 36 36 36 35 35 33 27 17 15 15 15 13 12 12 9 8 7 9 11 13
29 29 31 36 33 36 38 38 37 37 36 36 37 39 37 35 34 34 33 33 33 33 33 34 36 35 34 35 33 25 15 14 14 13 10 16 22 21 16 22 22 15 17 16
29 33 32 38 39 38 38 37 37 37 37 37 38 38 38 37 35 34 33 33 32 33 33 33 34 34 34 33 28 16 14 14 14 14 15 18 21 23 26 25 24 23 22 20
33 37 37 37 37 37 36 36 36 36 36 36 38 39 39 38 36 36 33 33 32 34 34 34 36 35 33 30 23 17 15 15 16 17 16 16 16 20 20 21 22 21 20 19
36 36 36 37 37 36 36 36 36 35 34 35 36 38 39 38 37 35 34 33 34 35 35 35 35 34 31 27 19 17 16 23 16 16 15 14 9 6 6 7 8 11 19 17
34 35 35 35 35 35 36 36 35 34 34 34 35 37 38 38 37 36 35 35 35 35 35 35 35 34 29 24 19 17 16 17 16 13 12 11 8 8 8 8 8 8 8 12
35 34 34 34 34 35 35 35 35 35 34 34 33 35 37 37 37 37 36 34 34 35 36 36 35 33 26 23 20 18 17 21 17 11 11 10 9 9 8 8 8 8 8 9
33 31 32 32 34 34 34 35 35 35 36 36 35 33 34 36 35 35 35 32 34 35 35 35 34 26 24 23 21 18 18 18 20 11 11 11 9 9 8 8 9 9 9 9
32 33 33 34 34 34 34 35 36 37 35 36 37 33 31 35 34 34 33 31 32 34 34 33 31 24 22 22 21 19 18 16 18 13 12 11 9 9 8 8 9 9 10 10
35 35 35 34 33 33 35 36 35 30 27 30 36 31 30 33 34 33 30 29 30 31 32 32 32 27 23 23 22 20 17 16 16 14 11 13 12 10 9 9 10 10 10 11
35 35 35 34 33 33 32 33 35 32 26 26 30 30 29 30 32 31 29 27 28 29 30 31 31 27 24 24 26 18 17 16 15 12 10 10 11 12 11 13 10 10 11 12
34 31 31 30 29 32 31 30 31 33 33 28 25 25 25 26 28 29 28 27 28 29 28 31 30 28 26 26 26 18 17 15 13 10 9 11 10 11 10 9 9 10 11 11
25 26 27 28 28 28 27 27 26 25 28 31 31 29 28 28 26 27 28 28 30 32 30 30 31 32 30 33 30 21 16 14 11 9 10 10 12 11 13 14 14 16 16 16
23 23 24 26 26 27 27 27 28 26 25 24 27 29 29 29 30 29 29 30 31 32 32 32 33 35 35 32 29 23 17 14 10 8 10 14 15 18 17 17 18 19 19 18
22 23 24 24 25 24 21 21 22 27 27 25 23 23 26 27 27 29 29 32 33 30 30 31 33 35 36 31 29 28 26 21 13 14 11 16 19 20 20 20 20 21 19 19
21 21 21 20 19 19 18 19 20 22 24 25 26 26 24 23 25 26 26 25 27 26 24 28 29 31 33 30 29 27 26 18 19 17 14 17 19 20 20 20 20 19 18 17
19 15 16 17 16 18 17 19 21 22 23 22 23 25 26 26 24 22 21 23 23 25 28 26 26 26 26 25 22 18 15 15 16 17 18 18 19 19 19 20 20 18 17 17
18 19 17 17 16 16 16 21 21 20 21 21 21 22 24 25 24 23 23 21 21 22 24 26 25 26 26 25 23 21 17 16 18 18 20 19 19 19 20 20 19 18 15 17

GFSNGP_sfc_dewp_069.txt.gz
Dewpoint
26 28 30 29 28 29 24 27 21 24 22 24 26 26 26 31 37 37 34 33 34 34 34 34 36 36 36 36 35 35 35 35 35 36 36 36 36 36 36 36 36 36 36 35
20 27 27 27 29 30 30 28 28 28 27 27 25 27 34 36 38 37 35 32 31 32 34 35 36 36 36 36 36 35 34 34 35 35 35 35 36 36 36 36 35 35 36 37
21 27 25 20 27 28 29 30 28 26 26 28 28 30 35 37 39 38 36 32 29 30 33 35 35 35 35 35 35 35 34 34 34 35 35 36 36 36 35 35 34 34 35 35
21 23 14 19 30 29 28 30 31 30 29 29 30 32 37 40 39 39 34 31 30 31 33 34 34 35 36 36 35 35 34 34 35 35 34 36 35 34 34 33 31 32 32 31
22 21 20 27 27 28 28 28 31 30 30 30 36 37 37 39 37 35 31 31 29 31 32 32 33 35 35 34 35 34 34 34 33 34 35 35 33 33 33 32 32 31 26 25
27 20 20 28 29 31 31 30 35 31 30 30 37 32 35 35 31 30 30 30 30 30 31 31 32 34 34 33 34 34 33 34 34 35 35 34 33 33 32 26 30 31 31 25
25 23 24 28 34 34 30 30 37 32 32 35 35 36 39 35 32 31 30 30 30 31 31 32 34 33 33 35 35 36 36 36 35 35 34 33 32 26 24 25 23 23 23 24
26 26 21 33 31 31 35 36 36 37 37 39 40 37 35 35 34 33 32 33 32 32 33 34 34 34 34 34 36 36 36 35 33 32 33 32 28 27 26 20 18 17 16 16
25 25 28 32 33 36 37 38 37 37 38 40 39 37 36 35 34 33 33 33 33 33 33 34 35 35 35 35 36 35 34 33 32 31 26 23 19 16 13 11 9 8 12 15
26 28 28 30 34 38 38 37 37 38 38 38 40 38 36 35 35 34 34 33 34 33 32 34 35 34 36 36 35 35 32 28 21 18 17 16 12 12 9 8 8 9 11 13
28 29 30 31 32 36 37 37 37 36 36 36 37 39 37 36 35 34 34 33 33 33 33 34 35 34 35 35 34 32 25 16 15 15 13 17 21 13 18 21 16 14 16 16
29 31 31 36 38 38 38 38 37 38 37 36 37 38 38 36 35 34 33 33 33 33 33 34 35 34 33 34 34 27 15 14 14 13 15 19 23 23 26 25 24 24 24 21
32 37 37 38 37 37 36 36 36 36 36 35 38 38 39 38 36 36 34 33 33 33 34 34 34 34 34 34 32 19 15 15 16 16 16 18 21 21 20 22 23 22 21 20
37 36 35 37 36 36 36 36 36 35 35 35 35 38 39 38 37 35 34 33 33 33 34 34 35 35 35 33 27 18 16 22 16 17 17 17 15 15 15 16 13 9 20 20
35 35 35 35 35 35 36 36 35 34 34 34 34 36 38 38 37 36 35 33 33 35 34 34 35 35 34 30 23 18 16 20 17 17 16 16 10 8 7 7 7 7 8 13
35 34 34 34 34 34 34 34 33 34 35 35 34 34 36 37 37 37 35 34 34 34 35 35 35 35 33 27 22 18 17 22 20 14 12 12 9 8 8 8 8 8 8 8
33 31 31 30 32 32 33 35 34 34 35 35 35 36 33 35 36 37 35 35 35 35 36 36 35 35 32 27 23 19 18 21 24 13 11 11 10 9 9 9 9 9 9 10
33 33 34 34 34 33 33 34 36 36 32 32 31 35 34 32 34 35 35 34 34 34 34 34 35 32 30 26 23 20 19 18 21 14 12 12 11 10 9 9 9 9 10 10
35 35 35 34 33 33 34 35 35 35 30 27 29 33 34 32 33 34 34 32 32 31 33 34 35 32 27 26 25 22 19 17 17 16 13 14 14 11 10 9 9 10 10 10
35 35 34 33 33 33 32 32 33 34 32 27 25 28 29 29 30 31 31 30 31 31 32 33 33 31 28 26 30 22 19 17 16 15 14 12 12 11 11 13 10 10 10 10
34 34 34 33 32 32 29 27 26 26 32 33 30 27 25 25 27 28 27 28 29 30 31 32 33 32 28 27 31 24 24 18 16 15 14 15 11 12 11 12 11 11 10 11
28 27 27 28 28 28 28 28 27 25 24 25 29 30 29 29 28 27 28 28 30 31 30 30 31 31 29 32 32 30 28 25 17 14 13 11 12 12 14 15 15 15 14 15
23 23 24 25 26 26 25 21 24 28 27 24 23 24 27 28 29 30 30 32 32 32 32 31 32 34 36 33 30 30 28 27 26 18 14 16 16 18 17 17 17 18 18 19
22 22 23 23 24 20 16 18 20 25 26 26 26 24 23 23 24 27 28 29 32 34 32 32 33 35 36 32 30 29 28 27 27 26 24 22 20 19 19 18 18 19 19 20
21 21 20 18 18 18 17 18 19 20 23 23 24 25 26 25 23 23 22 23 26 26 27 28 31 34 33 32 30 29 28 28 27 26 25 24 20 20 19 19 18 18 18 18
18 15 16 16 15 17 16 19 20 21 21 21 21 22 23 25 25 24 22 23 22 24 24 27 27 27 28 31 30 29 28 27 27 27 24 20 20 20 19 18 18 19 19 18
17 19 16 16 16 16 16 18 21 19 20 20 20 22 23 22 24 24 24 21 21 21 22 23 25 26 26 26 25 22 21 20 22 22 26 23 22 22 19 18 19 19 18 17

GFSNGP_sfc_dewp_072.txt.gz
Dewpoint
25 29 29 28 28 29 27 30 26 27 23 23 26 27 29 32 35 39 37 35 35 34 34 35 35 36 35 35 35 35 35 35 35 36 36 36 36 36 36 36 36 37 37 35
20 27 26 26 28 29 28 27 28 26 27 29 26 27 27 28 37 38 36 34 34 34 34 35 36 36 36 36 35 35 34 34 35 35 35 36 36 37 36 35 35 36 36 37
18 26 24 21 25 27 29 29 28 26 26 28 27 26 30 34 37 37 36 33 32 33 34 36 36 36 35 35 35 34 34 34 35 36 35 36 36 35 35 34 34 34 35 36
20 22 12 22 29 28 27 29 30 29 28 28 29 30 34 37 38 38 38 34 30 31 35 36 35 35 35 35 35 35 35 35 36 35 36 36 35 34 33 32 32 31 29 26
21 21 22 23 28 28 27 26 31 30 30 30 32 35 35 39 40 39 37 33 31 32 34 34 35 35 35 35 35 34 34 35 34 35 35 34 33 33 33 32 25 24 22 23
26 19 19 22 29 30 31 28 32 32 31 30 35 30 32 38 34 33 32 30 30 32 32 33 35 35 34 34 34 34 34 34 34 35 35 34 33 33 32 31 28 26 25 24
26 26 23 26 31 34 27 27 37 33 32 32 34 32 36 34 32 31 30 30 31 31 31 32 34 34 33 33 35 35 35 35 35 35 34 33 32 26 22 23 25 23 24 23
29 27 21 31 31 30 33 36 37 35 36 35 38 37 35 34 32 32 31 32 32 31 32 34 34 33 33 34 36 36 36 35 35 35 34 32 28 28 25 21 20 18 18 18
27 26 27 31 30 32 37 37 37 37 38 40 39 36 35 35 33 32 32 32 32 32 32 33 34 34 34 36 36 36 35 34 32 32 31 29 26 24 18 15 13 12 12 14
26 27 27 29 33 36 38 37 37 38 38 40 39 38 36 35 34 33 33 32 33 33 32 32 33 35 36 36 35 34 34 31 30 28 24 21 17 16 11 8 8 8 11 13
27 28 30 30 32 37 38 37 36 36 36 36 39 39 38 36 35 34 33 33 33 33 32 33 34 34 36 36 35 33 32 29 22 19 20 13 11 11 12 15 10 10 13 14
27 29 29 30 36 35 37 37 37 37 37 36 37 37 39 37 36 34 34 33 33 33 33 33 34 34 35 35 35 32 28 20 16 15 14 19 24 23 24 26 26 24 24 20
30 36 36 38 37 38 37 37 36 36 36 35 37 38 39 38 36 36 34 33 33 33 33 34 35 34 34 34 33 31 24 16 15 16 14 17 21 22 22 23 25 24 23 22
35 37 35 36 36 36 36 36 37 35 34 35 35 36 38 39 37 36 34 34 33 33 33 34 34 35 34 34 33 31 22 23 15 17 15 18 19 21 20 18 17 16 22 23
36 35 34 36 35 35 35 35 34 35 34 34 35 35 37 38 37 36 36 34 33 33 34 34 34 34 35 35 32 30 21 19 18 17 17 19 17 15 13 10 8 6 8 14
34 34 34 34 34 34 33 33 32 33 34 34 34 34 34 36 37 38 36 34 33 33 34 34 34 35 35 35 33 27 20 21 22 17 17 18 14 10 8 7 7 7 8 8
33 31 31 30 33 32 32 33 33 33 34 34 34 34 35 34 34 35 36 34 34 34 35 34 34 35 35 33 31 28 21 20 25 17 14 15 13 9 8 8 8 8 8 9
34 34 34 34 33 33 33 33 34 35 33 30 28 29 31 33 33 33 34 34 34 34 34 35 35 35 35 33 30 27 23 19 22 20 14 12 11 10 9 9 8 9 9 9
35 35 34 34 34 34 34 35 35 35 33 27 26 26 31 33 32 32 32 32 32 33 34 33 35 36 34 33 31 28 24 20 19 20 15 16 15 12 10 9 9 9 10 9
35 35 34 33 33 33 32 32 32 33 34 33 28 26 26 27 28 29 30 30 32 33 32 33 34 34 33 33 35 28 24 22 19 18 17 14 14 14 12 13 10 9 9 9
35 35 34 34 34 34 32 29 26 24 25 30 33 31 30 28 26 27 28 28 29 29 31 32 33 33 32 30 33 29 24 25 26 21 19 19 22 17 12 12 11 11 10 10
32 31 31 31 30 29 28 27 27 27 25 23 24 26 28 29 29 30 28 28 29 32 31 31 32 33 32 34 32 32 30 30 29 28 27 27 27 25 21 16 16 16 15 15
25 24 25 25 26 26 21 19 23 28 27 25 23 23 23 24 26 27 28 31 32 33 32 32 33 34 35 34 31 31 30 29 29 28 27 27 27 26 24 21 21 19 19 18
22 22 22 22 24 17 13 17 21 24 24 26 26 26 25 23 23 25 24 25 26 28 32 32 33 35 36 32 31 30 29 29 28 28 27 29 26 26 25 25 25 20 19 18
22 22 21 19 18 16 17 18 19 20 21 21 22 22 24 25 24 25 24 22 25 25 24 27 29 29 32 32 31 30 29 29 28 28 27 26 26 25 25 25 24 21 19 19
17 15 16 16 14 16 15 18 18 20 20 19 20 21 22 23 23 24 23 24 22 23 22 23 25 27 26 28 31 30 29 28 29 29 27 26 26 25 25 24 23 22 21 20
16 19 16 15 16 16 15 16 20 19 19 19 20 22 20 19 21 22 23 22 22 22 22 22 23 24 24 24 25 25 26 28 29 27 27 26 24 24 23 22 23 24 21 19

GFSNGP_sfc_dewp_075.txt.gz
Dewpoint
26 25 29 28 28 32 32 32 27 27 25 25 24 27 29 33 38 38 37 37 36 35 35 35 35 35 35 35 35 36 35 35 35 36 36 36 36 36 35 36 36 37 35 35
21 26 28 26 28 29 33 33 33 31 26 28 26 27 29 32 37 38 38 37 36 35 34 35 35 35 35 35 35 35 35 35 35 36 36 36 36 36 35 35 36 36 37 37
19 26 24 21 25 26 29 29 29 27 29 27 27 27 28 30 34 36 38 37 35 34 34 35 36 36 36 35 34 34 34 34 35 36 35 36 35 35 35 34 35 34 34 34
19 22 14 23 26 27 26 26 30 29 28 28 29 29 30 31 31 35 37 36 34 34 35 36 36 36 35 35 34 34 34 35 36 35 36 35 34 34 33 33 31 29 26 25
21 21 21 22 27 28 26 26 28 30 30 29 30 34 33 35 37 36 38 37 33 32 35 36 35 35 35 35 35 35 35 36 35 36 35 34 33 33 32 27 23 21 20 23
22 20 18 18 30 29 31 24 33 30 30 30 33 29 31 37 39 39 37 33 32 33 34 35 35 35 34 34 34 34 34 35 35 36 35 34 33 32 31 25 21 23 24 23
25 25 24 25 26 32 24 23 36 33 32 32 33 31 34 37 33 34 32 31 32 33 33 34 35 34 33 33 33 35 35 35 36 35 35 33 32 30 30 29 29 23 23 22
28 26 21 28 32 28 30 35 36 34 33 33 35 37 36 34 32 32 32 32 32 32 32 33 34 34 32 32 35 36 35 35 35 34 34 32 31 27 25 24 22 20 20 20
27 26 27 29 33 33 36 36 37 37 38 35 37 36 35 34 33 31 31 32 32 32 32 33 34 34 33 35 36 36 35 35 34 33 32 31 27 26 23 20 18 15 13 14
26 27 28 28 31 34 37 38 38 38 39 40 39 37 35 34 33 32 32 32 32 32 32 32 33 34 34 36 36 35 34 33 32 32 29 27 25 22 19 15 13 9 10 13
26 28 30 30 30 33 37 38 37 36 37 38 39 39 38 36 34 33 33 32 32 32 32 32 33 33 34 36 35 34 33 32 30 29 28 21 17 14 12 9 10 8 11 13
26 28 28 28 33 33 37 37 36 36 36 37 38 38 39 38 37 35 34 33 33 33 33 33 34 33 35 36 35 33 32 31 27 22 20 16 15 20 22 21 26 25 22 18
28 31 33 36 36 36 37 37 37 37 36 36 36 38 39 39 37 36 34 34 33 33 33 33 34 34 35 36 35 34 32 29 21 19 16 16 21 21 20 24 27 26 25 26
34 37 35 36 36 37 37 37 37 35 35 35 34 35 37 38 37 36 35 34 34 34 33 33 34 34 35 35 34 33 30 31 18 18 15 16 18 20 20 18 18 19 24 25
35 35 35 37 36 35 35 35 33 34 34 34 34 34 35 36 37 37 37 35 34 34 33 33 34 35 35 34 34 33 30 27 21 17 16 17 17 19 19 19 17 15 8 12
34 34 35 35 34 34 33 32 32 32 33 33 34 34 34 34 34 36 37 35 33 33 34 34 34 34 35 34 34 33 32 31 25 18 17 19 18 16 16 14 12 9 7 7
32 30 31 31 33 32 32 33 33 33 33 33 33 33 32 33 34 33 35 35 34 34 34 34 34 35 35 35 34 34 32 30 30 21 17 17 17 16 14 11 10 8 7 8
33 33 34 34 33 32 33 34 35 33 32 30 29 27 28 29 31 32 33 33 33 32 33 33 35 35 35 35 35 34 32 27 26 23 18 16 16 15 13 11 9 8 8 8
34 34 34 34 34 34 35 35 34 34 32 30 29 26 27 30 31 31 31 31 32 31 32 33 35 35 34 35 34 33 29 27 24 23 20 19 17 14 12 11 10 9 9 8
35 34 34 33 33 33 32 30 29 30 31 34 34 30 28 27 26 28 29 29 30 32 31 32 33 34 35 34 36 32 29 28 26 25 22 18 16 15 14 15 11 10 9 9
35 35 35 35 34 34 32 30 26 25 24 25 28 30 30 30 30 28 27 28 28 30 30 31 33 33 34 34 35 34 30 29 28 29 28 29 26 24 21 21 17 12 11 9
32 32 32 32 30 30 28 28 29 28 26 23 23 23 24 25 26 28 31 30 31 35 33 31 30 32 33 34 32 33 31 30 30 30 29 28 29 28 28 27 26 26 22 18
28 27 26 26 27 27 18 18 24 27 27 26 25 26 24 23 23 26 26 26 26 29 32 32 34 35 35 34 31 31 31 30 30 30 29 29 29 29 28 28 27 27 26 24
22 22 21 22 24 19 13 16 21 22 23 24 25 25 25 24 24 25 25 25 26 27 26 27 30 34 35 32 32 31 31 30 30 30 29 30 29 29 28 28 27 27 27 27
21 21 20 20 18 15 17 18 18 19 20 20 21 21 22 24 23 24 23 23 25 24 23 25 27 29 27 31 31 30 30 30 29 29 28 28 28 27 27 26 26 27 26 25
19 16 17 16 13 15 14 17 17 19 19 18 19 21 22 21 21 22 22 24 23 24 22 22 23 25 25 25 27 29 30 29 30 30 29 27 27 27 26 26 25 26 27 24
16 18 15 14 15 15 15 15 18 18 19 19 18 21 21 18 19 21 21 20 21 22 22 22 22 24 23 23 23 23 22 26 29 28 26 24 23 25 25 24 24 24 24 24

GFSNGP_sfc_dewp_078.txt.gz
Dewpoint
27 25 30 30 31 33 33 33 30 26 25 26 27 25 27 31 37 39 38 38 37 37 37 36 35 35 35 36 36 36 36 35 35 36 37 36 36 36 36 36 37 36 35 35
22 26 28 28 28 30 32 33 33 32 31 32 29 26 27 31 36 38 38 38 37 36 36 36 35 35 35 35 35 36 35 35 36 36 36 36 36 36 35 36 36 37 36 37
20 25 24 21 25 27 28 32 32 30 32 30 29 29 28 31 36 37 38 38 37 36 35 35 35 35 35 35 35 35 34 35 35 36 36 36 35 35 34 35 35 33 33 34
20 22 15 21 25 27 27 27 31 31 31 30 30 29 30 30 32 35 38 39 37 36 35 35 36 36 35 35 34 34 34 35 36 36 36 35 34 34 33 32 31 29 26 25
25 21 21 22 24 27 26 25 28 28 29 30 30 31 31 32 31 32 35 37 37 35 35 36 36 36 35 34 34 34 34 35 36 36 35 35 34 33 32 30 22 22 22 23
25 22 18 18 30 29 30 25 30 31 29 29 31 28 30 34 36 36 37 37 33 34 35 36 35 35 35 34 34 34 35 36 35 36 35 34 33 32 31 25 23 23 25 23
27 25 23 25 26 31 22 22 34 34 33 31 31 30 32 37 37 37 35 33 33 34 35 35 35 35 34 33 33 35 35 36 36 36 35 34 33 31 25 26 26 23 22 21
28 27 21 28 32 27 29 34 35 35 33 32 34 34 35 35 33 33 32 33 33 33 33 34 35 34 33 33 34 35 35 35 35 35 34 33 31 29 28 27 23 21 20 20
27 25 27 30 33 34 34 36 36 36 36 34 35 35 35 33 32 32 32 32 33 33 32 32 33 33 32 32 34 34 35 35 34 34 33 32 29 27 23 22 21 18 16 14
27 26 28 29 29 32 36 36 37 38 40 38 36 37 35 33 32 32 32 32 32 32 32 32 32 33 33 34 35 35 34 34 34 33 32 30 28 27 23 20 17 14 12 12
26 27 28 29 30 30 34 37 36 36 38 39 39 38 36 35 34 32 32 32 32 31 32 32 33 33 34 35 36 35 34 33 33 33 33 27 26 23 21 17 16 11 10 11
25 27 27 27 32 31 35 37 36 36 35 36 38 39 38 38 37 34 33 33 32 32 32 32 33 33 34 35 35 35 33 32 32 31 28 24 20 16 23 22 22 23 20 16
27 30 30 34 35 35 35 36 36 37 36 36 35 37 38 38 38 37 35 34 33 33 32 33 33 33 35 36 35 34 33 32 31 29 25 21 17 16 17 22 27 28 28 27
34 36 33 35 35 35 37 37 37 35 35 35 34 35 36 37 36 36 35 35 34 33 33 33 34 34 34 35 35 34 33 34 30 28 22 18 17 19 19 18 20 23 26 26
33 35 35 35 35 34 34 34 33 33 33 33 34 34 34 34 35 36 36 35 34 34 34 33 34 34 35 35 34 34 32 32 31 24 19 18 16 17 19 19 18 16 14 16
35 34 34 34 34 34 33 32 32 32 33 32 33 33 33 33 34 34 34 35 33 33 34 34 34 34 35 35 34 33 33 33 30 23 19 19 17 16 17 17 18 17 15 13
33 31 31 31 33 32 31 33 33 32 32 32 32 30 29 29 30 31 33 34 36 35 35 34 34 35 36 35 34 34 33 33 35 27 22 19 18 17 16 15 15 15 13 11
34 33 34 34 34 33 32 33 34 34 33 30 28 26 26 27 28 30 31 32 31 32 32 32 32 33 35 35 34 34 34 33 33 33 26 22 19 17 17 15 14 13 12 9
34 33 34 34 34 34 35 34 34 34 33 34 32 29 27 28 28 28 28 28 30 30 31 32 34 34 32 34 35 35 34 33 30 30 28 26 23 18 16 15 14 13 12 9
34 34 34 33 33 33 31 30 29 28 28 32 35 34 32 32 30 28 28 30 30 30 30 30 31 32 32 33 36 32 33 32 30 29 30 27 27 27 19 18 15 13 12 10
35 36 35 35 34 32 30 28 27 26 25 25 25 25 25 28 27 29 30 29 30 33 33 31 30 31 32 34 35 35 33 31 30 31 30 31 29 29 28 27 25 21 14 12
34 34 34 34 32 30 25 26 28 27 25 24 23 24 23 24 24 27 30 26 27 28 32 32 32 33 33 35 32 32 32 31 31 31 30 30 30 29 29 28 28 28 28 27
28 27 26 27 27 26 17 18 24 26 26 26 26 26 25 25 25 25 24 26 26 27 27 29 31 35 35 33 32 31 31 31 30 30 30 30 29 30 30 29 30 29 29 28
22 21 20 23 24 20 14 15 21 21 21 22 23 23 24 22 22 24 25 26 27 27 25 26 27 29 30 32 31 31 31 31 30 30 30 31 30 29 29 29 29 29 28 28
22 21 19 19 19 15 16 18 18 18 19 19 19 21 22 23 23 23 23 23 26 25 23 25 27 27 25 25 28 30 30 30 30 29 29 29 29 29 28 28 28 27 27 26
20 18 16 16 14 13 14 15 15 17 18 17 18 20 21 19 19 21 21 22 21 23 22 22 23 24 23 23 23 25 27 28 29 29 29 28 28 26 25 26 24 25 26 27
16 18 15 14 14 14 15 14 14 15 18 18 17 19 21 18 17 19 20 18 19 20 20 21 21 23 23 22 21 21 18 19 24 26 27 27 27 26 24 24 23 21 23 24

GFSNGP_sfc_dewp_081.txt.gz
Dewpoint
29 26 31 30 31 32 31 31 28 26 26 26 27 27 27 28 34 39 39 39 39 39 38 37 36 35 36 37 37 37 37 36 37 37 37 37 36 36 37 37 36 35 35 35
25 27 26 27 29 32 31 31 31 30 30 32 31 30 32 32 31 37 39 39 39 38 38 37 36 35 35 36 36 37 36 36 36 37 37 37 36 36 36 37 37 36 37 37
26 26 24 22 27 29 30 32 32 30 31 32 32 33 34 35 33 34 38 39 39 38 38 37 36 36 35 35 36 35 35 36 36 36 36 36 35 35 35 35 35 34 35 36
26 23 17 22 25 28 28 28 31 32 31 32 33 34 33 31 31 34 38 39 39 39 37 37 36 36 35 35 35 35 35 35 36 36 36 35 35 34 34 33 32 31 31 32
25 22 21 22 23 25 24 23 28 28 30 31 32 31 31 31 31 32 36 38 39 38 37 36 36 36 35 34 34 34 35 35 36 36 35 35 35 34 33 32 30 28 29 30
25 20 18 19 28 29 29 25 29 29 29 29 30 28 30 32 33 32 33 37 37 36 36 36 36 36 35 34 34 34 35 36 36 36 35 35 34 33 32 29 28 29 29 28
27 24 24 24 28 30 25 22 33 36 35 33 30 31 33 37 38 37 37 36 35 35 36 36 36 36 35 35 35 35 36 37 36 36 35 35 33 32 29 28 27 26 25 24
29 26 22 29 30 26 28 33 36 36 35 33 33 33 35 35 36 35 34 35 34 35 35 36 36 36 35 35 36 36 36 36 36 36 35 34 32 30 28 28 26 23 22 22
27 25 28 30 30 32 34 34 36 37 37 34 35 35 35 34 33 33 33 33 34 34 34 35 35 35 34 34 35 35 35 35 35 35 34 33 31 30 28 27 25 23 19 18
28 27 29 28 29 31 33 35 37 38 40 35 35 36 35 33 32 32 32 32 32 33 33 33 34 34 34 34 35 35 34 35 34 34 32 32 30 30 27 25 23 19 15 13
26 27 28 29 29 29 30 35 37 37 38 39 39 37 36 35 33 32 33 33 32 32 32 33 33 34 33 35 35 35 34 34 34 33 33 31 30 28 26 23 21 17 15 13
26 27 27 27 28 31 31 36 37 36 36 37 38 39 38 37 36 34 33 33 32 32 32 32 33 33 34 35 35 35 34 34 33 33 33 31 30 27 30 28 27 27 24 16
29 30 29 31 36 35 33 36 36 36 36 36 36 37 38 38 38 37 35 34 33 33 33 32 33 33 34 35 35 34 34 33 33 32 31 29 26 23 21 20 27 26 27 26
32 34 33 35 34 36 37 37 37 35 35 35 35 35 36 37 37 37 36 36 35 34 33 33 33 33 34 35 35 35 34 35 32 32 30 29 25 21 18 16 16 22 29 29
32 34 35 34 35 34 34 34 34 34 33 33 34 34 34 34 34 34 35 36 35 34 34 34 33 34 35 36 35 34 34 33 32 31 28 27 24 21 19 18 17 17 17 21
36 35 35 34 34 33 33 33 33 33 33 33 33 33 33 33 33 34 34 35 35 34 34 34 34 34 35 35 35 34 34 34 34 31 29 27 22 20 18 18 17 17 16 16
33 33 34 33 34 33 32 33 33 33 33 32 31 30 29 29 30 30 31 32 33 35 35 35 35 35 36 35 35 34 34 34 35 30 28 26 24 20 17 16 16 16 16 17
34 34 34 34 34 33 33 33 34 33 32 30 28 27 27 27 28 29 30 30 31 32 32 34 34 34 35 35 34 34 34 33 34 34 29 27 24 22 19 17 16 16 15 15
34 33 34 34 34 34 35 34 34 34 34 34 34 32 29 29 28 27 28 29 29 29 30 30 33 34 33 34 34 34 34 34 33 33 33 31 31 29 23 22 22 17 16 14
34 34 33 33 33 32 30 30 28 26 25 27 30 28 27 29 29 30 31 29 30 31 33 32 31 31 32 33 36 33 33 34 33 32 32 31 31 30 29 29 28 27 23 16
35 36 35 34 31 31 30 29 28 28 25 25 24 24 24 24 24 26 29 29 26 29 32 33 33 32 33 34 35 35 33 33 33 32 31 32 30 30 29 29 29 29 27 26
35 35 34 34 33 29 21 25 27 27 25 25 25 26 25 24 24 27 26 25 26 28 28 30 32 34 34 36 33 33 33 33 32 32 31 31 31 30 30 29 29 29 29 29
26 27 27 28 27 24 17 18 24 23 25 25 24 23 23 23 24 24 24 26 26 28 26 26 29 30 31 33 32 32 32 31 31 31 31 31 31 31 30 30 30 30 30 29
22 20 20 23 23 20 14 13 19 20 20 20 21 21 22 21 21 24 24 25 27 27 26 26 28 29 28 27 30 31 31 31 31 31 30 32 30 30 30 30 30 30 30 30
22 21 19 19 18 15 15 17 16 16 18 18 18 20 22 22 21 21 22 21 23 24 23 25 27 27 24 24 24 26 28 29 30 30 29 29 29 29 29 29 29 29 29 28
20 19 18 16 15 13 13 14 14 15 17 16 17 19 21 20 18 20 20 21 19 21 20 21 22 24 23 23 23 22 23 24 25 26 27 28 29 28 28 27 26 26 27 27
18 20 15 14 14 14 14 13 13 13 17 18 16 17 21 20 17 18 19 17 17 18 18 19 20 21 21 22 21 21 19 18 21 22 22 24 25 26 26 26 25 24 23 23

GFSNGP_sfc_dewp_087.txt.gz
Dewpoint
30 27 29 31 29 29 33 33 31 27 25 25 25 25 25 26 27 29 30 35 38 40 40 40 40 40 40 40 39 39 39 39 39 39 39 39 39 38 38 38 37 37 36 36
33 35 29 29 28 29 29 29 31 30 29 28 28 27 27 27 28 29 31 32 37 40 40 40 40 39 39 39 39 39 39 39 39 39 39 39 39 38 38 38 37 37 37 37
30 34 34 30 31 30 29 29 29 29 29 29 28 28 29 29 30 30 30 33 33 38 40 41 40 40 38 38 38 38 38 38 38 38 38 38 38 38 38 38 37 38 38 37
30 31 24 23 27 30 28 28 28 28 28 28 28 28 29 29 30 31 31 32 34 35 39 41 41 40 39 39 38 39 38 38 38 38 38 38 37 37 37 37 37 37 38 37
28 23 20 21 24 24 24 23 25 26 25 25 26 29 32 33 33 32 32 32 33 34 37 41 41 40 39 38 38 38 38 38 38 38 38 37 37 38 37 34 34 34 36 36
32 26 16 20 25 26 26 21 28 28 29 32 34 31 32 35 35 35 33 34 34 36 37 40 41 40 39 37 37 37 37 38 38 38 38 37 37 37 36 35 33 34 35 33
28 25 22 24 28 29 19 24 34 35 36 36 34 33 36 36 36 38 37 34 35 39 40 41 41 40 39 39 39 38 38 39 38 38 39 39 37 36 34 32 32 32 30 28
30 27 21 27 29 24 28 33 32 35 38 37 35 34 34 36 37 38 37 36 38 40 41 41 41 40 40 40 41 39 38 38 38 38 37 37 36 34 31 30 29 28 26 25
27 25 29 29 27 30 29 30 32 37 39 38 35 34 35 36 36 36 36 37 38 40 40 40 40 39 40 40 39 38 37 37 37 37 37 36 34 32 29 28 28 27 23 22
29 26 27 29 29 29 32 32 34 35 38 38 35 36 36 36 35 35 36 36 37 37 38 38 38 38 38 38 37 37 36 36 36 36 35 35 33 32 30 29 28 25 21 19
32 31 30 28 30 31 31 30 32 33 37 39 40 39 38 37 36 35 35 35 35 35 35 36 36 36 36 37 36 36 36 35 35 35 35 33 32 31 31 31 30 27 23 21
20 32 32 30 32 33 33 32 32 33 38 39 39 39 39 38 37 35 35 34 34 34 34 35 35 35 36 36 36 35 35 35 35 34 34 33 32 31 34 34 34 32 30 24
18 25 27 32 34 36 36 36 35 38 38 38 38 39 39 38 39 38 36 35 35 35 35 37 38 38 37 35 36 36 35 35 35 35 34 32 31 31 30 33 35 31 31 30
28 28 24 33 35 35 37 38 39 37 37 37 37 37 38 38 38 38 38 38 38 37 36 34 33 33 36 37 37 37 36 36 35 35 34 33 32 32 31 32 30 31 33 32
23 26 31 27 36 36 37 37 36 36 35 35 36 36 36 36 36 36 36 36 37 37 36 36 35 34 34 35 36 35 35 35 35 35 34 34 33 32 32 31 28 21 22 27
24 32 34 36 38 36 36 36 36 36 35 35 35 34 33 33 33 33 33 34 34 36 36 37 37 37 36 35 35 35 35 36 36 35 34 33 32 31 31 29 27 24 21 19
25 27 27 30 36 36 36 36 36 36 35 34 33 32 31 31 31 31 31 31 31 33 35 35 35 36 37 36 36 36 35 35 37 35 33 32 32 31 31 30 30 29 27 23
28 29 31 34 34 35 34 34 35 34 34 32 32 32 31 31 30 30 30 30 31 33 34 34 34 33 34 36 36 36 35 35 35 35 34 33 32 33 32 32 32 32 30 27
35 35 35 35 37 37 35 35 34 34 35 35 35 33 33 32 31 31 32 31 31 32 32 34 34 34 33 35 35 36 36 35 34 34 35 34 33 33 32 32 32 32 32 31
36 36 35 34 35 35 34 32 29 27 27 28 27 26 26 25 25 27 31 28 26 27 30 30 31 32 34 35 36 35 35 35 34 34 34 34 33 32 32 32 31 31 30 30
36 36 35 34 34 33 33 32 30 27 24 24 24 24 24 24 26 28 28 28 26 28 29 28 29 30 31 34 35 34 34 33 33 33 33 33 33 33 32 32 32 31 31 31
34 34 34 34 32 24 21 24 25 25 24 23 24 23 21 22 24 27 27 25 26 28 28 27 29 30 31 31 31 32 33 32 32 32 32 32 32 32 32 32 32 32 31 31
31 29 28 29 27 22 16 17 20 21 21 22 21 19 19 20 22 23 20 24 24 26 26 26 29 29 30 28 28 29 29 32 32 32 32 32 32 32 32 32 32 33 32 32
33 32 24 21 22 20 16 13 17 18 19 19 20 21 21 20 21 24 22 22 22 24 23 23 26 27 27 26 26 27 27 28 29 30 30 31 31 31 32 32 32 32 32 32
33 31 26 25 21 18 19 20 20 21 19 18 18 19 21 21 19 19 19 20 21 21 20 20 23 24 22 22 23 24 24 25 26 26 26 27 27 28 29 29 30 30 30 30
32 31 31 27 21 18 17 16 15 14 15 15 16 18 20 21 20 19 18 20 19 19 18 18 19 21 20 20 21 21 21 22 22 23 24 25 25 24 25 25 25 25 27 27
30 31 27 23 20 18 17 16 15 15 15 15 15 17 18 20 21 19 19 17 17 17 17 17 18 19 20 20 20 20 20 20 21 21 22 23 24 24 23 23 24 24 24 24

GFSNGP_sfc_dewp_090.txt.gz
Dewpoint
30 29 33 34 31 32 33 34 28 27 28 27 26 26 26 27 28 28 29 32 38 39 40 40 41 41 41 40 40 40 39 39 39 40 39 39 39 39 38 38 37 37 36 37
32 35 35 32 31 31 31 32 33 31 29 30 31 31 29 28 29 30 30 31 32 39 40 40 40 40 40 40 39 39 39 39 39 39 39 39 39 38 38 38 37 37 36 38
28 33 32 29 32 30 30 30 31 30 30 30 30 30 29 30 30 30 31 31 32 36 40 40 40 40 39 39 39 39 39 39 39 39 39 39 38 38 38 36 36 36 37 37
30 31 22 26 29 31 30 30 30 30 30 30 30 30 31 30 29 30 31 32 32 35 39 41 41 40 39 39 39 39 39 39 39 39 38 38 37 37 38 36 36 37 37 36
28 26 23 22 25 28 29 27 29 28 28 27 28 31 31 34 34 34 34 32 33 34 35 41 41 40 39 39 38 39 39 39 39 39 38 37 36 38 36 34 34 34 35 36
30 24 22 23 25 26 26 22 31 28 29 33 34 31 33 36 36 35 37 36 34 36 36 41 41 40 39 38 38 38 38 38 38 39 38 37 37 37 35 34 33 34 34 35
28 27 25 27 27 29 20 27 35 35 36 36 35 35 35 36 37 38 38 37 37 38 39 40 41 40 39 38 38 38 39 39 38 38 37 36 36 35 34 33 33 33 33 31
28 25 24 30 29 24 30 32 33 35 38 38 36 35 35 36 37 37 38 37 39 40 41 41 41 40 39 38 39 39 39 38 38 38 38 38 36 35 33 31 31 30 29 27
34 30 30 30 30 30 31 30 32 37 39 39 36 35 36 36 36 36 36 37 40 39 39 39 40 40 39 39 38 38 38 37 37 37 37 36 35 33 31 30 30 29 27 25
30 29 32 32 30 32 31 32 32 35 36 38 35 37 37 36 35 35 36 36 38 38 38 38 38 39 39 39 38 37 37 37 36 36 36 35 34 33 31 29 29 28 24 22
28 28 31 32 32 33 33 34 31 33 33 39 40 39 38 36 35 35 35 35 35 36 37 37 37 37 38 37 37 36 36 36 35 36 35 34 33 32 31 30 30 28 25 22
19 24 30 32 26 34 36 36 35 33 37 39 39 39 39 38 36 35 35 35 34 34 35 35 35 35 36 36 37 36 35 35 35 34 35 33 32 32 35 34 35 35 33 26
23 28 27 26 30 35 35 37 37 37 39 38 39 39 39 38 38 39 36 35 35 36 37 37 37 38 38 38 37 36 35 35 35 35 34 33 32 31 31 33 36 36 35 33
24 22 27 26 28 29 37 37 38 36 36 37 37 38 38 38 37 36 37 37 37 37 35 34 34 34 36 36 36 36 37 37 35 35 34 33 32 32 31 31 31 33 35 33
30 21 26 31 34 37 37 37 36 35 35 35 36 36 36 36 36 35 35 36 36 37 36 36 35 35 35 37 36 36 36 35 35 34 34 34 32 32 32 32 32 30 27 31
32 30 29 33 36 38 37 36 36 35 35 35 35 33 33 33 33 33 33 33 34 34 36 36 37 36 36 35 35 36 35 36 36 34 34 34 33 32 32 32 32 30 27 22
30 29 28 28 31 35 35 35 36 36 35 33 32 31 31 31 31 30 30 30 32 34 34 33 34 34 34 36 34 35 35 35 37 35 34 33 33 32 32 32 32 31 29 27
32 31 32 34 35 36 35 34 35 34 32 32 32 32 32 32 31 31 32 31 32 33 32 34 34 34 34 35 34 36 35 34 34 35 34 33 33 33 32 32 32 32 32 33
35 35 35 36 37 38 37 36 35 35 34 35 34 33 31 29 28 28 31 30 29 29 28 30 31 34 34 35 36 35 35 34 34 34 34 35 34 33 32 32 32 32 33 32
37 36 36 34 34 35 34 34 33 31 28 27 27 26 25 25 26 28 31 26 26 27 29 27 28 29 30 32 34 34 34 34 34 34 34 33 33 32 32 33 32 32 32 32
36 35 34 35 34 34 35 34 30 27 24 25 24 24 24 24 27 27 27 27 26 28 28 28 28 28 28 30 31 31 32 32 32 32 32 32 32 32 32 32 32 32 31 31
34 34 34 34 30 24 20 22 24 24 23 23 23 22 20 21 23 26 26 24 25 28 27 26 25 28 29 28 24 28 28 30 31 32 32 32 32 32 32 32 32 32 31 31
29 28 25 25 25 22 17 16 20 20 21 22 21 19 19 20 21 23 22 23 23 25 24 24 26 27 28 24 22 22 24 26 27 28 29 31 31 31 31 31 32 32 32 32
32 33 32 25 22 20 18 14 15 18 19 19 19 20 20 20 20 24 21 22 22 23 22 22 23 25 25 22 20 21 22 21 21 21 24 27 24 27 29 30 30 30 31 31
32 31 29 28 26 21 20 20 18 19 18 18 18 18 20 21 19 19 19 20 21 21 20 21 22 23 21 21 21 22 22 20 18 20 21 21 23 23 23 24 25 26 27 29
31 32 32 31 30 29 22 16 15 15 14 14 16 17 18 21 20 20 18 19 19 19 18 18 18 20 20 20 20 21 21 21 20 20 21 20 20 21 22 22 22 23 23 24
26 31 27 28 28 28 23 18 16 16 16 15 14 15 18 19 21 21 20 18 17 17 17 17 17 19 20 20 20 19 19 19 20 20 18 18 18 18 20 20 20 21 22 22

GFSNGP_sfc_dewp_093.txt.gz
Dewpoint
33 32 35 35 33 34 33 32 27 26 27 28 29 28 26 27 28 29 30 37 38 39 40 40 42 43 43 42 41 41 40 40 40 40 39 39 38 38 38 38 37 37 37 37
29 33 35 31 33 34 34 34 33 32 30 30 30 32 31 30 30 29 29 30 37 39 40 40 41 42 41 40 40 40 40 39 40 39 39 39 39 38 38 37 37 36 37 37
25 34 32 28 31 33 30 33 34 31 32 32 32 31 31 30 30 30 30 31 31 36 40 40 41 41 41 40 39 39 39 39 39 39 39 39 38 38 37 36 36 35 36 36
23 31 21 26 31 32 31 30 32 33 32 32 32 32 33 30 29 29 30 31 31 32 39 40 41 41 40 40 39 39 39 39 39 39 39 38 38 37 36 35 34 35 36 35
23 27 26 22 24 31 30 29 31 31 31 31 30 30 29 35 35 34 35 35 35 33 36 41 41 40 39 39 39 39 39 39 39 39 38 37 36 35 34 33 32 34 34 36
26 24 21 23 24 26 25 21 33 29 29 29 33 26 30 35 36 36 38 38 37 36 35 40 41 40 39 38 38 38 39 39 39 39 38 36 35 35 36 35 34 35 35 36
24 25 26 27 26 29 18 19 35 36 36 37 35 35 35 35 36 38 38 37 37 37 39 39 41 39 39 38 38 39 39 39 39 38 37 35 35 35 35 34 33 33 33 33
26 23 21 29 28 23 29 31 32 35 38 38 37 34 34 36 36 37 37 37 40 39 39 40 40 40 38 38 39 39 39 38 38 37 37 36 34 35 34 33 33 32 32 31
33 30 35 36 32 32 31 30 32 38 40 38 36 35 36 36 35 36 36 38 39 38 38 39 40 39 38 38 38 38 38 37 36 36 36 35 35 34 33 32 31 31 29 28
27 30 31 35 31 31 34 33 33 34 36 38 35 37 36 35 35 35 36 37 38 38 37 37 39 39 39 38 38 37 37 36 36 35 35 36 35 34 33 31 31 30 29 27
25 23 30 32 27 31 35 37 37 35 32 39 40 38 37 39 36 35 35 35 36 37 37 37 37 38 38 38 37 37 36 36 35 36 36 35 34 33 32 31 31 30 29 26
19 24 25 27 26 33 32 35 37 37 35 39 39 38 39 36 35 35 35 35 34 35 36 35 36 36 36 37 37 36 36 36 36 36 35 34 33 33 36 35 35 35 34 28
22 24 27 27 28 31 35 36 38 38 38 38 39 39 40 38 37 38 37 36 35 36 36 36 35 35 36 37 37 37 37 36 36 35 34 33 33 32 31 33 36 36 37 35
33 31 28 25 28 33 36 38 39 37 37 37 38 40 39 38 37 36 36 37 37 36 35 34 35 35 37 38 38 38 38 38 36 35 34 33 33 32 32 32 32 33 36 37
34 32 30 25 31 35 38 40 38 37 36 36 36 37 37 36 35 34 34 34 36 36 36 36 35 35 35 35 35 35 36 36 36 35 34 34 33 32 32 32 32 32 32 35
33 31 31 28 28 32 37 38 38 36 35 35 33 33 33 33 33 32 31 32 34 34 35 35 33 33 34 35 34 34 35 37 36 34 34 34 33 32 32 32 32 32 32 31
32 28 29 27 31 33 35 35 36 37 35 33 31 31 31 32 30 30 30 31 33 33 33 33 33 34 35 35 34 33 33 35 37 34 33 33 33 33 33 32 32 32 32 33
34 34 33 34 35 36 37 36 34 33 32 32 32 32 32 32 31 31 30 31 32 30 29 31 31 34 34 35 35 35 35 35 34 34 34 33 33 33 33 32 32 32 33 33
36 35 35 35 36 37 36 35 34 33 33 35 34 32 29 28 27 29 29 27 27 26 27 28 31 30 30 32 35 35 34 34 34 33 33 35 34 33 32 32 32 32 33 32
37 36 36 34 35 35 34 34 34 33 33 33 28 26 25 25 27 29 28 26 26 28 28 28 28 28 28 29 32 32 33 32 33 33 33 33 32 32 32 33 32 32 32 32
35 35 35 35 34 34 34 35 34 29 25 25 24 23 24 23 26 26 27 27 26 28 28 28 28 28 28 28 28 27 30 30 30 31 31 32 32 32 32 32 32 32 31 31
34 34 35 33 31 24 19 21 23 23 23 22 21 19 19 20 24 26 26 24 25 27 26 25 25 27 27 27 21 24 26 26 27 28 28 29 30 30 30 30 30 31 32 32
30 27 24 22 23 22 19 15 18 19 20 21 20 18 18 19 20 21 23 23 23 24 23 23 24 26 26 22 20 19 19 20 22 22 24 26 26 26 27 28 29 30 31 30
31 30 31 30 25 20 18 16 14 16 18 18 19 20 19 19 19 23 21 22 21 23 22 21 22 24 23 20 18 17 17 18 16 15 19 23 19 20 21 22 23 23 26 27
32 32 31 30 30 29 22 21 19 19 16 16 17 18 19 21 18 20 19 19 21 20 19 20 20 21 20 20 20 20 19 17 15 16 18 17 18 18 20 21 21 22 22 23
31 32 32 32 32 31 31 28 21 17 15 14 15 16 18 20 21 21 19 19 19 20 19 18 18 19 20 19 20 20 19 19 19 19 19 16 15 16 17 18 19 19 20 21
21 28 25 27 27 28 28 28 23 19 18 17 16 15 16 18 20 21 20 18 18 17 17 17 17 18 19 19 19 18 17 17 19 18 14 13 13 13 15 16 15 16 18 19

GFSNGP_sfc_dewp_096.txt.gz
Dewpoint
31 32 34 34 34 35 33 32 26 26 26 27 24 26 25 27 29 30 31 36 37 37 39 41 42 43 44 44 43 43 42 42 42 41 40 39 38 38 37 37 37 37 37 37
23 30 32 30 34 36 36 35 32 32 31 29 29 29 32 31 31 30 29 33 37 38 38 40 41 43 43 43 42 42 41 41 40 40 39 38 38 38 38 37 37 36 36 37
15 26 31 25 29 33 33 35 35 32 32 33 34 33 32 32 31 30 30 30 31 36 39 39 40 42 42 41 41 40 40 40 39 39 38 38 38 38 37 36 36 35 35 36
15 28 21 28 30 33 33 32 33 34 34 34 33 34 34 33 30 29 29 30 31 32 33 40 41 42 42 41 40 40 39 39 39 39 38 38 37 36 35 35 34 34 34 34
20 23 27 24 24 31 30 29 32 31 32 34 32 32 30 34 34 35 34 35 36 36 35 36 41 41 41 40 39 39 39 39 39 39 38 37 36 35 33 33 32 33 34 35
24 22 19 24 25 26 28 22 34 32 31 31 30 27 28 36 35 36 37 38 37 37 37 36 41 41 40 39 39 39 39 39 39 39 38 36 35 34 35 35 33 34 33 36
18 18 25 31 30 28 19 18 34 36 36 36 34 32 35 35 36 37 37 37 38 40 40 39 41 40 40 39 39 39 39 39 39 38 37 36 35 35 32 35 34 32 34 34
25 21 20 36 32 26 30 31 31 35 38 37 36 34 34 36 36 36 36 37 39 38 38 39 40 40 39 39 39 39 39 39 38 38 37 36 35 33 34 35 34 33 33 33
28 25 35 36 35 32 35 33 34 34 39 38 35 35 35 36 36 36 36 38 38 37 37 38 39 39 38 37 39 38 38 38 37 36 35 34 33 32 34 34 33 32 32 32
28 28 27 35 37 37 35 35 36 37 34 38 35 36 36 35 35 35 35 37 38 37 36 37 38 38 38 38 38 38 37 36 36 35 35 34 34 35 34 33 32 32 31 30
24 22 29 30 27 31 36 34 36 37 38 35 39 38 36 38 38 35 35 35 37 37 37 36 37 37 37 37 38 37 36 35 35 35 35 34 35 34 34 33 33 32 31 30
19 23 24 24 25 26 31 35 37 38 37 38 40 40 41 38 35 35 35 35 35 35 36 35 36 36 36 37 37 36 35 35 36 36 36 35 34 34 36 36 36 36 36 32
24 28 27 27 28 27 34 36 36 38 38 38 39 40 39 39 36 38 36 35 35 35 35 35 35 35 36 37 37 37 37 37 37 36 35 34 33 33 32 33 37 37 37 37
34 35 31 28 26 27 29 36 38 39 39 37 39 40 41 38 37 36 36 36 36 35 34 34 34 34 35 37 36 37 38 38 36 35 35 34 34 33 33 32 32 33 36 37
33 32 33 32 30 31 33 38 40 39 37 36 37 40 39 36 35 34 34 36 36 36 35 35 34 33 34 35 34 34 35 36 36 35 34 34 33 33 32 32 32 32 33 34
33 32 30 30 28 30 33 36 38 39 36 35 34 34 35 34 33 31 31 33 34 33 33 33 32 33 34 34 33 33 34 37 37 34 34 34 33 33 32 32 32 32 32 32
32 30 29 29 32 34 35 37 37 40 36 34 32 32 32 31 30 31 31 33 32 32 33 31 32 34 34 34 34 35 35 35 36 35 33 33 33 33 33 32 32 32 33 34
36 35 34 34 35 36 37 36 35 35 34 33 32 33 33 32 31 31 30 31 29 28 28 29 31 32 32 34 35 35 35 35 34 34 34 33 33 33 33 33 32 32 33 33
37 36 35 35 35 35 36 34 34 34 35 36 34 31 30 29 28 29 28 27 27 26 27 27 30 29 29 30 33 34 33 33 33 33 33 34 34 33 32 32 32 32 32 32
36 37 36 36 35 35 35 34 35 34 34 34 34 32 30 27 27 29 26 25 26 27 28 28 28 28 28 28 30 31 31 32 32 32 32 33 32 32 32 33 32 32 32 32
35 35 35 35 34 34 34 34 34 33 31 30 31 29 26 23 26 27 26 26 26 28 28 28 28 28 28 28 28 27 28 28 29 29 30 30 30 30 30 30 30 31 30 31
33 34 35 34 33 30 20 20 22 25 26 23 20 20 20 20 24 25 25 25 25 27 26 25 25 26 26 26 23 24 23 23 23 24 24 26 25 25 25 27 27 27 29 29
31 27 24 21 21 21 21 17 16 18 19 20 19 18 17 18 19 24 24 24 23 24 23 22 24 25 25 22 22 20 20 19 20 19 18 16 18 18 18 19 21 23 24 25
31 30 30 31 29 26 20 18 16 14 17 17 18 19 19 18 19 23 21 23 23 23 22 22 22 23 22 20 18 17 16 16 14 12 15 19 13 14 16 17 18 21 21 22
31 31 31 31 31 31 31 28 26 24 18 16 17 17 19 20 18 19 21 19 21 21 19 21 21 22 20 19 20 19 18 15 12 14 16 15 14 12 15 16 16 17 16 17
28 29 31 31 31 32 31 30 29 29 27 25 17 16 17 18 20 21 19 19 18 20 20 18 18 19 20 19 19 19 19 19 19 18 18 14 12 11 13 14 14 14 16 15
20 26 23 25 25 26 26 26 27 27 24 21 18 17 17 17 19 21 21 18 18 18 17 17 18 18 18 19 19 18 18 17 19 18 14 12 12 11 13 13 12 13 14 15

GFSNGP_sfc_dewp_099.txt.gz
Dewpoint
29 31 32 32 33 35 33 31 25 24 24 24 23 24 26 29 29 30 31 34 36 36 36 39 41 42 43 43 43 43 43 42 42 42 41 41 40 39 38 37 37 37 37 37
17 25 29 29 30 33 35 35 34 31 30 31 29 27 28 30 31 31 30 29 32 37 37 37 40 41 43 43 43 42 42 42 42 41 40 39 38 37 37 36 36 36 36 37
12 21 24 20 27 28 31 34 35 32 32 33 36 35 33 32 32 31 31 30 30 31 37 38 39 41 42 43 42 41 41 41 41 40 39 38 37 37 36 35 35 35 35 35
14 25 16 22 30 30 30 33 35 35 34 34 34 34 35 34 32 32 31 30 30 31 32 33 39 41 42 42 41 41 41 40 40 39 38 37 37 36 35 34 34 33 33 32
19 20 21 23 25 29 31 30 32 32 33 34 35 33 31 33 33 33 35 35 35 36 36 36 35 40 42 41 41 40 40 40 39 39 38 36 36 35 33 33 32 33 34 35
23 17 17 25 31 30 30 23 31 32 33 32 31 28 30 35 35 36 37 37 37 37 37 37 37 40 41 40 40 40 40 40 39 39 38 37 35 34 35 35 33 34 34 33
16 15 21 33 34 31 19 20 32 32 36 34 31 30 34 35 37 37 37 36 39 39 39 40 40 41 40 40 40 40 40 39 39 39 38 36 35 35 34 34 34 35 34 32
22 20 16 34 32 26 31 33 34 36 37 38 37 35 34 36 36 36 36 37 39 38 37 38 39 40 39 39 39 39 39 39 38 37 37 36 36 34 33 33 34 34 34 32
23 22 32 34 33 32 34 34 34 36 37 36 36 35 35 36 35 36 36 37 38 37 36 37 37 39 38 37 39 39 38 37 37 37 36 36 34 33 32 34 34 34 33 33
27 27 26 32 35 37 37 37 36 36 37 37 35 37 36 35 35 35 35 36 37 36 36 36 36 37 37 38 39 38 37 36 35 35 35 34 33 33 33 34 34 33 32 32
22 22 29 30 27 26 26 34 36 37 37 37 37 39 37 37 36 35 34 35 36 36 35 35 36 36 37 38 38 37 37 36 36 36 34 33 33 34 34 34 34 33 33 32
18 22 23 24 24 29 28 29 35 37 36 38 38 40 39 37 37 35 35 35 35 35 35 35 36 36 36 37 37 37 36 35 34 34 35 36 35 35 37 36 37 37 36 34
25 28 30 31 30 30 28 31 34 36 39 39 37 39 38 37 37 37 35 35 35 35 35 36 36 36 37 37 37 36 36 36 37 36 35 35 34 34 33 34 37 38 38 37
32 32 31 30 28 31 31 29 34 37 38 40 37 40 40 39 39 36 36 36 35 34 34 34 34 33 34 36 36 35 35 38 37 36 35 34 34 33 33 33 32 33 36 37
33 33 31 31 31 30 30 33 36 38 37 39 37 39 39 39 38 36 35 36 36 35 34 33 32 32 33 34 33 33 33 34 36 35 34 34 34 33 33 32 32 32 32 34
33 33 30 29 29 32 33 34 36 37 39 37 35 36 37 35 32 31 32 34 34 33 32 32 32 33 34 34 33 32 33 36 36 34 34 34 33 33 32 32 32 32 32 32
33 29 30 28 30 33 36 37 37 37 38 34 32 33 33 31 31 31 32 32 32 33 31 31 33 34 33 34 33 34 35 35 36 35 34 33 33 33 33 33 32 32 33 34
35 35 35 34 35 35 36 36 35 36 36 36 35 34 33 33 33 31 31 29 28 28 28 29 30 30 31 32 34 35 34 34 34 34 33 33 33 33 33 32 32 32 33 33
35 36 36 35 35 35 35 35 35 35 35 36 35 33 33 31 31 32 30 30 28 27 26 28 29 29 28 29 31 31 33 33 33 33 33 34 33 33 32 32 32 32 32 32
36 37 36 36 36 35 35 35 35 34 34 34 34 33 31 31 31 31 29 26 25 26 27 28 27 27 27 28 29 28 30 31 31 32 32 32 32 31 32 32 32 32 32 32
35 35 35 35 34 33 32 31 32 29 28 26 29 29 29 27 26 27 26 25 25 28 27 28 27 27 28 27 27 26 26 26 27 28 28 28 28 29 29 29 29 29 30 30
32 33 34 34 32 30 23 18 19 22 24 25 25 20 21 20 23 25 26 26 25 28 26 25 25 26 27 26 24 23 23 23 22 22 21 21 22 21 20 19 19 23 23 23
31 28 25 21 21 21 20 19 15 16 16 19 19 18 17 17 19 22 23 24 23 25 23 23 24 25 26 23 21 20 20 20 21 20 19 17 18 18 16 15 16 18 17 19
31 30 30 29 31 30 27 21 21 17 16 17 17 19 19 18 18 20 22 24 25 24 22 22 23 24 24 21 19 18 18 17 15 13 15 19 13 12 12 14 14 16 17 18
31 31 30 31 30 31 31 31 29 28 27 26 25 18 18 20 18 16 22 21 23 23 21 21 23 24 21 20 20 20 20 17 13 15 17 15 14 12 13 15 14 16 14 14
26 28 29 29 29 28 28 29 28 28 27 27 29 29 24 18 20 21 20 21 18 20 21 19 20 20 21 20 19 19 19 19 19 19 18 15 13 12 13 14 13 14 15 14
23 27 23 23 24 24 24 24 24 24 26 26 26 27 27 18 18 20 22 21 21 20 20 19 18 19 19 18 19 19 18 18 19 17 14 12 11 10 12 13 12 13 13 13

GFSNGP_sfc_dewp_102.txt.gz
Dewpoint
25 27 30 30 29 30 31 33 26 23 24 24 24 24 26 32 30 30 31 32 35 35 35 37 39 40 41 42 43 42 42 42 41 41 41 40 40 40 40 38 37 37 37 37
16 23 25 25 28 30 31 32 34 33 30 31 30 28 28 28 31 31 31 31 30 31 36 36 38 40 42 43 42 42 42 42 41 41 41 40 39 38 37 36 36 36 36 36
15 20 26 18 26 29 29 34 33 30 33 36 36 35 35 32 32 32 32 32 31 31 31 35 37 39 41 42 42 41 41 41 41 40 39 38 37 37 36 35 35 34 35 35
17 23 10 21 29 30 29 30 33 35 35 36 38 37 36 35 34 33 33 32 31 31 33 34 35 39 40 42 42 41 41 40 40 40 38 37 36 36 35 34 34 33 33 32
18 18 19 24 29 25 32 32 32 31 32 34 34 34 33 34 34 33 33 34 35 37 37 37 36 36 40 40 40 40 40 40 40 39 38 36 36 35 33 33 32 33 34 34
17 16 15 24 32 33 30 27 33 34 34 35 32 31 33 33 35 35 36 37 37 37 37 37 37 37 39 39 39 40 40 40 39 39 38 37 35 34 35 35 34 35 35 33
16 14 18 27 34 33 23 22 34 35 36 36 35 32 34 36 36 37 36 36 38 37 38 39 39 39 39 38 39 40 40 39 39 38 37 36 34 36 35 35 35 35 35 33
20 18 13 32 31 25 30 33 34 35 36 37 37 37 34 35 36 36 36 37 38 37 37 38 39 40 39 38 39 40 40 39 39 38 37 36 36 35 35 34 33 32 33 34
22 21 27 35 31 32 34 34 34 35 36 37 37 36 37 36 35 35 36 37 37 36 36 36 37 39 38 38 39 39 38 38 37 37 36 36 36 34 33 32 32 32 34 33
26 26 27 29 34 33 29 32 35 37 36 37 37 37 38 35 35 36 35 36 36 36 36 36 36 36 36 37 38 38 38 37 36 35 34 35 34 34 33 32 32 33 34 33
22 22 27 30 26 27 29 29 30 35 36 37 37 37 38 36 35 35 35 36 36 36 35 35 35 35 36 37 38 37 37 37 36 36 35 35 34 34 33 34 35 34 34 32
18 21 22 24 25 30 31 30 29 32 35 36 38 38 38 38 36 35 35 35 35 35 35 35 35 35 35 37 38 37 36 36 36 36 35 35 34 35 37 37 37 37 37 34
23 27 29 30 31 31 29 31 30 29 31 36 38 38 38 37 37 38 36 35 35 35 35 35 34 35 37 38 37 37 36 36 36 35 34 34 34 34 33 35 38 38 38 38
31 30 28 28 28 30 31 31 32 34 36 37 39 38 40 39 38 37 37 36 35 34 34 34 33 33 34 35 36 36 36 38 37 36 35 34 34 34 34 33 33 33 36 38
31 33 32 31 29 30 31 33 34 36 38 39 39 38 39 38 38 37 37 37 36 34 33 33 33 33 33 34 33 33 33 33 34 36 35 35 34 34 33 33 33 33 33 34
31 33 31 30 29 31 34 36 36 37 37 38 35 35 37 36 33 32 34 35 34 32 32 32 33 33 33 33 33 32 32 35 34 33 34 34 34 33 33 33 33 33 32 33
32 30 29 30 29 32 35 36 36 36 37 34 34 34 32 31 31 32 32 32 33 32 30 31 33 33 33 33 33 35 35 35 36 34 34 33 33 33 33 33 32 32 33 33
34 35 35 35 34 35 35 35 35 35 36 36 35 35 34 33 33 32 32 30 30 28 28 29 30 30 30 31 33 34 34 34 34 34 33 33 33 33 32 32 32 32 32 33
34 35 36 36 35 35 35 35 35 35 35 35 35 34 33 32 32 32 32 31 30 29 27 28 29 28 28 29 30 30 33 33 33 33 33 34 33 33 32 32 32 32 32 32
34 37 37 36 36 35 35 35 35 34 34 34 34 33 32 31 31 32 30 29 28 26 28 28 27 27 27 28 29 27 28 30 31 31 32 31 31 30 30 30 30 30 30 30
35 35 35 35 34 32 31 29 29 28 27 25 24 25 26 27 26 26 27 26 25 27 27 28 27 27 27 27 26 25 25 25 26 26 26 26 27 27 26 25 26 27 28 27
32 33 34 33 31 28 23 19 16 17 20 21 22 20 19 20 21 25 26 27 26 28 26 25 25 26 26 26 22 22 21 20 20 20 20 21 22 21 20 20 19 22 21 19
31 29 26 22 21 24 25 20 17 14 15 16 17 18 17 17 18 19 19 24 24 27 24 23 24 26 27 22 20 19 19 19 20 20 18 17 18 16 17 17 17 18 16 17
32 30 29 29 29 31 30 29 24 23 18 18 19 18 18 17 17 19 21 24 26 24 24 22 23 25 26 21 19 18 19 18 16 14 16 19 13 13 13 14 13 15 16 17
31 31 30 30 30 31 31 31 30 30 29 28 28 28 27 19 18 17 20 21 24 24 22 24 24 25 23 20 20 20 20 20 19 19 18 17 16 14 14 16 15 15 15 15
29 29 29 28 28 27 27 26 25 27 27 27 27 27 28 28 21 22 22 22 21 21 22 21 20 21 22 20 20 19 19 20 20 19 18 17 15 13 13 14 14 14 14 13
25 27 25 23 22 23 23 23 23 23 25 25 25 24 25 27 27 28 27 24 23 24 23 22 20 20 20 19 19 19 19 19 20 18 16 14 12 11 13 13 11 12 12 12

GFSNGP_sfc_dewp_105.txt.gz
Dewpoint
24 24 26 25 27 29 25 28 29 26 25 26 26 24 28 31 31 31 31 31 31 34 35 36 38 41 43 44 44 44 44 43 43 42 41 40 40 40 39 39 39 39 38 38
13 21 23 24 25 26 29 28 29 31 30 33 34 30 28 29 32 32 33 33 33 32 32 35 37 39 41 43 44 43 43 43 42 41 41 40 40 40 39 38 38 38 38 38
13 20 23 17 25 27 29 31 32 28 32 35 35 35 37 36 32 32 33 34 34 32 32 33 36 38 39 42 43 43 43 42 42 41 40 40 39 38 38 37 37 37 37 37
18 17 8 27 29 31 31 33 33 34 33 34 35 36 38 37 35 35 35 34 34 32 34 35 35 37 39 41 43 43 42 42 42 41 40 39 38 38 37 37 37 37 37 37
17 17 17 26 30 28 29 32 35 34 34 36 36 34 35 34 35 34 33 35 36 37 37 37 37 37 38 40 42 42 42 42 42 41 40 38 38 37 37 35 34 35 36 36
16 14 15 23 31 33 31 27 35 35 35 36 35 33 34 35 36 36 36 37 37 38 38 38 39 39 37 38 40 41 42 42 41 41 40 39 38 37 37 37 35 36 36 36
17 15 16 21 32 33 25 24 34 35 36 36 35 36 37 37 36 36 36 37 39 38 38 38 39 39 39 39 39 41 41 41 41 40 39 38 36 37 36 36 36 36 36 36
19 17 11 31 30 26 28 33 33 34 36 36 37 37 37 38 36 36 36 37 38 38 37 38 38 39 39 39 39 41 41 40 40 39 38 37 37 37 37 36 36 35 35 35
21 20 23 34 31 33 34 35 34 35 36 36 37 37 37 38 36 36 36 37 37 37 37 37 37 38 39 39 39 40 40 39 39 38 37 37 36 36 35 36 35 34 34 35
26 25 28 28 34 32 28 28 30 33 35 36 36 37 37 38 37 35 35 36 37 36 36 36 36 36 37 38 39 39 39 38 38 37 36 37 36 36 35 35 34 34 34 35
23 23 24 30 27 27 29 31 31 30 31 35 36 35 38 37 38 35 35 36 36 36 36 36 36 36 36 38 38 38 38 37 37 37 36 35 35 35 35 35 35 35 35 35
18 21 20 23 26 31 31 30 30 30 30 32 35 36 39 38 36 35 35 35 35 35 35 35 35 36 37 38 38 37 37 37 37 37 36 36 35 35 37 37 38 38 37 35
20 24 27 29 30 31 29 30 31 31 30 30 34 37 39 38 37 37 35 36 36 35 35 34 34 34 35 37 38 38 37 37 37 36 36 35 35 35 34 36 38 38 38 38
30 30 27 28 27 29 30 30 32 32 34 35 36 38 39 39 39 38 38 37 35 35 34 33 33 33 34 34 36 36 37 38 37 37 36 35 35 35 35 34 34 34 37 39
30 32 31 30 28 30 31 34 36 35 37 38 39 38 39 39 38 38 38 37 36 35 34 33 33 33 34 34 34 34 35 35 36 36 36 35 35 34 34 34 34 34 33 35
30 30 32 29 28 30 32 36 36 36 38 35 34 34 36 37 34 34 35 35 35 34 32 33 33 33 33 34 34 34 34 36 35 34 35 35 34 34 33 33 33 33 33 33
30 29 29 28 29 31 35 36 36 36 36 36 35 34 32 31 32 33 33 33 33 31 30 31 32 32 33 33 34 34 35 35 37 35 34 34 34 34 33 33 33 33 33 34
31 33 34 34 32 31 35 36 36 35 35 36 35 35 34 34 33 33 33 31 31 31 29 30 30 30 29 31 32 33 34 34 34 34 34 33 33 33 33 33 33 32 32 33
33 32 35 36 35 35 35 35 35 35 35 35 35 34 34 33 33 33 32 32 31 30 31 30 29 28 28 29 30 30 32 33 33 33 33 34 33 32 32 32 32 32 32 32
33 33 35 36 36 36 35 35 35 33 32 31 33 33 32 32 32 32 31 31 31 30 28 28 27 27 27 28 29 28 28 30 31 32 32 31 31 30 30 31 30 30 30 30
32 33 35 36 35 33 31 28 25 23 24 25 24 22 22 23 26 25 25 25 26 27 28 28 27 27 27 27 27 26 26 26 26 27 26 27 27 26 25 24 25 25 25 25
34 34 34 33 31 27 22 21 18 16 15 16 18 19 18 17 18 22 24 25 27 28 28 27 26 27 27 27 25 24 23 23 23 22 21 22 22 22 21 20 20 22 21 21
31 28 26 21 20 23 26 26 19 16 15 17 18 17 17 17 17 16 16 21 26 26 27 26 26 27 28 24 23 22 22 22 22 21 21 20 20 19 19 19 19 19 18 18
32 30 29 28 26 28 29 30 30 29 28 26 23 22 23 22 20 18 19 22 25 26 24 24 24 25 26 22 21 21 20 20 20 19 19 21 19 18 18 17 17 17 17 18
31 31 30 30 29 29 27 29 26 25 26 27 28 27 28 28 25 20 21 23 23 25 24 25 26 25 24 21 20 20 20 20 20 20 20 20 20 19 18 17 16 16 17 17
29 28 28 28 28 27 25 25 23 22 25 25 25 25 25 27 27 28 25 27 26 26 25 25 24 22 23 22 20 19 20 21 22 22 21 20 19 18 17 16 16 15 15 14
27 28 26 24 22 22 22 23 22 22 23 23 23 24 24 23 24 26 28 26 26 26 26 26 26 25 24 22 22 20 20 20 21 20 20 19 18 17 16 15 15 14 13 13

GFSNGP_sfc_dewp_108.txt.gz
Dewpoint
21 20 21 23 22 22 27 26 28 29 32 29 30 31 27 30 31 32 33 33 32 34 35 37 39 42 44 45 45 45 45 45 45 46 46 45 45 45 44 42 41 40 40 40
21 21 25 21 20 23 25 25 27 26 28 30 30 33 33 31 31 32 34 34 34 33 32 36 37 39 42 44 45 45 45 44 44 43 43 43 43 42 41 41 41 40 40 40
20 22 26 24 26 27 29 30 30 28 30 34 34 34 35 35 36 36 36 35 35 33 32 33 34 38 39 42 44 45 45 44 43 43 42 42 41 41 41 41 41 41 40 40
23 23 17 27 30 32 31 32 34 34 35 36 36 35 35 36 37 36 36 35 34 33 36 36 36 36 38 41 43 45 44 44 44 43 42 42 41 41 41 41 41 40 40 42
21 17 19 25 30 29 28 32 35 34 35 36 37 35 35 36 36 34 35 36 37 37 37 37 37 37 37 38 41 43 44 44 44 43 42 41 42 42 42 40 41 43 40 39
23 14 10 26 30 33 32 26 35 36 35 35 36 33 35 38 37 37 37 37 37 38 38 38 39 39 39 37 38 40 42 44 44 43 42 42 43 42 41 39 38 39 39 39
19 18 14 20 29 33 26 25 34 35 36 36 35 36 37 39 38 38 38 38 38 38 38 39 39 39 39 40 40 40 42 44 44 44 43 42 41 40 39 38 38 38 37 37
19 20 13 25 30 26 30 34 34 35 35 35 36 37 38 38 39 37 37 38 38 38 39 39 40 39 40 41 42 41 41 43 44 43 41 41 40 39 38 37 37 37 37 36
21 18 24 34 32 33 35 34 32 31 31 33 34 33 36 38 38 38 36 37 37 38 38 39 38 39 39 41 40 41 41 42 42 42 40 40 39 38 37 37 37 37 36 37
27 26 26 29 34 34 30 28 29 29 30 29 31 33 33 38 38 38 36 36 37 37 37 37 37 37 38 39 40 40 41 41 41 40 39 39 38 38 38 37 37 36 36 36
27 27 26 27 30 30 28 30 30 30 30 29 29 32 33 35 38 39 36 36 36 36 37 37 37 37 38 39 40 40 40 39 39 39 38 38 38 37 37 37 37 36 37 37
17 23 21 27 27 29 29 29 29 30 30 31 31 30 32 35 38 37 36 35 36 36 36 36 36 36 37 38 39 39 38 38 38 38 37 37 36 36 37 38 38 39 39 38
20 23 25 29 30 30 28 29 30 31 32 33 34 34 35 36 39 38 36 36 37 36 36 35 35 35 35 37 38 38 38 38 38 37 37 36 36 36 35 37 39 40 39 38
27 30 29 29 27 28 30 31 33 35 36 37 37 36 38 39 40 38 38 36 35 35 34 34 34 34 35 35 37 38 39 38 38 37 37 36 36 36 36 35 35 36 39 39
30 31 30 30 29 30 31 33 35 36 37 37 35 36 38 39 39 38 38 37 37 36 35 34 33 33 34 35 35 35 36 37 38 38 37 36 36 36 35 35 35 34 34 37
30 31 31 31 28 30 31 33 35 36 37 35 35 34 34 35 36 36 36 37 36 36 34 34 34 34 34 34 35 35 35 36 36 37 37 36 35 35 34 34 34 34 34 34
29 30 32 29 29 29 33 34 36 36 36 36 36 35 33 32 32 33 33 33 34 33 32 32 33 32 33 32 33 34 35 36 37 36 36 36 35 35 34 34 34 34 34 34
31 31 30 28 29 30 31 35 36 35 35 36 37 36 35 35 34 33 34 33 33 32 32 32 33 31 29 31 31 32 33 34 35 35 34 34 34 34 34 33 33 33 33 33
33 33 33 33 34 32 32 33 33 34 34 34 35 34 34 34 34 34 34 33 33 32 34 33 33 32 29 30 30 30 30 32 34 34 34 35 34 33 32 32 32 32 32 32
32 32 33 34 34 35 33 34 34 32 32 29 28 31 32 32 32 32 32 32 34 35 33 31 31 28 27 28 29 28 28 29 31 33 33 33 33 32 32 32 32 32 31 31
32 33 34 34 35 36 33 30 23 19 18 22 22 20 20 19 20 23 23 21 22 28 29 28 28 27 27 27 27 27 28 27 28 29 30 30 30 29 28 28 28 28 27 27
32 31 32 35 32 31 24 22 20 18 15 16 17 18 17 18 17 18 19 20 23 28 28 28 27 27 28 28 27 26 26 26 26 26 26 26 26 25 25 24 24 24 24 24
34 33 31 28 23 21 28 29 27 19 19 22 22 22 22 23 21 19 18 19 25 26 27 28 27 28 29 29 26 26 25 25 24 24 24 24 24 24 22 22 21 22 21 20
33 30 28 27 27 27 28 30 31 32 31 31 31 29 27 28 29 27 25 23 23 24 25 26 25 27 29 28 25 25 24 24 24 24 23 22 23 22 21 21 20 19 19 19
30 32 31 31 30 29 30 29 28 27 25 25 26 27 27 28 29 28 24 28 30 28 24 26 26 27 25 26 24 22 22 23 24 22 21 22 22 21 21 20 19 19 19 20
30 29 29 29 28 28 27 26 24 24 24 24 24 25 26 26 26 27 28 28 27 28 28 28 28 26 25 24 23 21 19 20 21 22 22 22 22 21 20 19 18 19 19 19
29 29 28 26 26 25 24 24 23 22 22 22 23 24 26 25 25 26 25 25 26 26 27 28 28 29 28 27 25 24 21 21 22 22 23 24 22 21 20 19 19 18 18 17

GFSNGP_sfc_dewp_114.txt.gz
Dewpoint
22 21 22 22 21 21 19 23 18 23 23 28 31 32 33 31 33 35 35 35 34 33 35 39 43 44 45 47 48 49 51 52 52 51 52 52 51 49 48 46 44 42 42 42
17 22 24 20 19 19 21 24 26 26 27 33 33 33 33 35 35 35 35 35 34 33 34 35 37 41 45 45 45 46 46 48 49 48 48 49 49 46 45 44 42 42 42 42
16 22 24 17 25 25 27 27 29 26 30 35 34 33 34 35 35 34 35 35 36 36 36 36 36 37 39 44 45 45 45 45 45 45 46 46 46 45 43 42 42 42 43 43
19 20 11 26 31 31 28 30 32 33 34 34 34 36 37 38 36 36 36 36 36 37 37 37 38 38 37 41 44 45 45 44 44 44 44 44 43 43 42 42 42 42 43 42
17 17 17 23 25 29 28 28 34 33 34 34 35 37 36 38 39 38 38 38 38 38 38 38 38 39 39 38 38 43 44 45 44 44 43 43 42 42 42 40 39 40 41 41
21 16 12 26 30 32 31 25 35 35 34 35 35 34 36 38 39 39 38 40 40 39 38 39 39 40 39 39 39 38 39 43 45 44 43 42 42 42 41 41 39 40 41 40
20 16 17 28 31 32 22 25 35 36 34 34 33 34 37 39 39 40 38 38 39 39 39 40 40 40 40 41 41 43 43 42 45 45 44 43 41 40 39 39 39 39 39 39
18 16 13 29 31 28 30 33 34 34 33 34 34 32 33 34 36 38 38 37 38 38 39 40 40 39 39 40 41 41 42 42 42 44 44 43 41 39 38 38 37 37 37 37
19 21 25 31 31 33 33 32 33 32 32 30 29 29 30 31 32 37 38 36 37 37 38 39 38 38 38 39 40 40 41 41 41 44 43 42 39 38 37 37 37 37 37 37
22 23 26 29 33 32 34 31 29 29 29 29 28 29 29 29 30 35 39 36 37 37 37 37 37 38 37 38 39 40 40 40 41 43 42 42 40 39 38 37 37 37 37 37
22 23 28 27 29 32 30 30 30 30 29 29 29 29 30 29 30 33 38 37 37 36 36 36 36 37 37 37 38 39 40 41 41 41 41 41 40 39 38 38 38 37 37 37
20 23 25 27 28 30 30 29 29 28 28 29 30 31 30 31 30 34 37 37 36 37 37 36 36 36 36 36 37 39 39 39 39 39 38 39 38 38 39 40 40 40 40 39
19 25 26 28 29 29 29 28 28 28 30 32 34 36 36 31 32 39 38 36 37 37 36 35 35 35 35 36 36 38 39 39 39 38 38 37 37 36 34 37 40 40 40 40
24 28 27 29 29 29 27 28 31 34 34 34 37 36 35 34 35 38 39 38 36 36 35 35 34 34 34 35 36 36 37 39 39 39 37 37 37 36 35 35 34 35 40 40
24 27 28 29 28 28 30 31 33 32 33 35 36 35 35 35 37 39 38 38 38 37 36 35 35 35 35 36 35 35 35 35 35 36 35 36 35 35 35 35 35 35 35 39
25 29 29 29 28 29 30 32 33 32 33 33 36 36 36 34 35 36 36 36 36 36 35 34 34 34 34 34 34 35 35 36 36 35 35 35 34 34 34 34 34 34 34 35
27 28 30 30 28 28 29 31 32 33 33 33 34 36 36 36 34 33 33 33 33 33 32 32 32 33 33 31 32 31 32 33 34 35 34 34 35 34 34 34 34 34 34 35
29 30 30 31 29 28 30 32 34 34 34 33 34 33 33 34 34 35 35 34 34 34 33 33 33 34 34 32 32 31 30 30 32 33 34 33 33 34 34 33 33 33 33 34
29 30 31 29 29 29 31 32 33 33 32 32 32 31 31 32 32 32 32 31 31 30 31 34 33 33 32 32 31 31 31 31 31 32 33 34 34 33 32 32 32 33 33 32
31 31 30 31 32 32 31 31 33 33 33 31 27 24 24 23 22 22 23 24 26 28 30 31 32 30 29 28 29 29 29 30 30 31 32 32 32 32 32 33 32 32 32 32
32 32 32 32 33 34 33 33 33 31 28 23 20 18 17 18 18 17 17 17 18 25 27 30 28 27 27 27 27 26 26 26 27 27 29 31 32 31 31 31 31 31 31 31
31 31 33 33 33 35 33 29 23 19 17 16 18 21 23 25 26 27 26 23 21 25 26 27 27 28 27 29 24 24 23 22 23 22 23 24 27 29 29 29 29 29 28 28
31 32 31 32 31 31 26 25 24 21 19 21 23 25 27 27 26 25 26 26 25 27 26 25 27 29 30 26 23 25 23 22 22 21 21 22 24 24 24 25 25 25 23 23
31 31 31 31 31 24 24 26 28 28 30 30 29 28 28 25 25 26 27 30 29 28 27 28 29 29 29 24 23 24 24 23 22 20 21 25 24 25 24 24 23 23 22 22
31 31 29 25 25 26 26 27 27 24 26 24 25 25 25 25 25 26 25 26 29 28 27 28 29 30 28 26 24 24 25 24 23 24 24 22 24 24 24 23 22 21 21 20
29 29 29 28 28 28 27 26 24 23 23 22 22 23 24 25 24 25 24 25 25 26 25 26 26 26 26 26 27 26 27 25 26 24 24 24 24 23 24 23 22 22 22 21
29 30 28 27 26 26 25 25 23 21 22 21 20 21 23 21 20 20 20 19 19 20 22 22 23 25 24 24 25 27 27 26 26 25 24 24 24 24 23 22 22 22 22 22

GFSNGP_sfc_dewp_117.txt.gz
Dewpoint
21 22 22 22 20 21 15 21 17 22 29 32 33 32 34 34 35 34 34 34 34 34 35 36 41 44 45 46 48 51 52 53 53 53 53 53 53 52 49 48 48 46 45 45
15 23 25 20 19 20 20 23 25 26 30 35 35 34 35 36 35 35 35 36 36 36 36 36 36 39 44 45 45 47 48 49 49 51 52 50 49 47 46 45 43 43 43 44
15 23 20 13 22 24 28 27 27 23 30 34 33 35 36 37 36 36 35 36 37 37 37 37 37 38 39 43 45 45 45 45 46 47 48 48 46 45 44 43 42 42 43 43
15 16 3 19 30 31 28 29 31 32 33 34 35 37 37 38 37 37 38 37 37 38 37 38 39 39 39 39 43 45 44 44 44 45 45 45 45 44 43 42 42 42 43 42
14 13 16 25 27 29 28 26 32 32 34 34 35 37 35 38 38 38 37 39 39 39 38 39 39 40 40 39 39 40 44 44 44 44 44 43 43 42 41 40 39 42 43 42
17 14 11 20 30 31 30 22 34 34 34 33 34 32 35 37 38 39 39 38 39 39 39 39 40 40 40 41 41 42 42 41 45 44 43 43 42 41 41 41 39 40 41 41
16 14 17 27 31 32 18 13 35 36 34 33 31 33 36 37 37 38 39 37 38 38 39 39 39 39 39 40 40 41 41 42 42 44 43 42 41 40 39 40 39 39 39 39
17 14 7 30 31 24 25 34 35 36 34 33 34 32 31 32 33 36 38 37 37 37 38 39 38 38 38 37 39 40 41 41 41 42 43 42 40 39 38 38 38 37 37 37
18 17 20 31 28 32 32 31 33 34 33 33 29 28 29 29 30 36 37 37 37 37 37 37 38 37 36 37 38 39 40 40 40 41 41 40 39 37 37 37 36 36 37 37
19 16 25 30 32 33 34 31 30 29 28 28 28 29 29 29 29 30 37 37 37 37 36 36 36 37 36 37 38 38 39 39 39 41 43 42 40 39 37 36 36 37 37 37
22 23 24 26 31 32 30 30 29 29 29 28 29 29 29 30 30 30 36 38 36 36 36 35 36 36 35 36 37 38 39 39 40 41 42 42 41 40 39 38 38 37 38 38
16 22 21 24 28 32 30 30 30 28 28 28 29 30 31 29 31 30 35 36 36 37 37 37 36 35 35 35 36 37 37 38 39 39 39 40 39 39 40 40 41 40 41 39
19 25 25 29 29 30 29 29 28 28 29 31 32 35 37 31 31 35 37 36 37 37 37 36 35 35 35 36 36 36 38 39 38 39 38 38 37 37 35 37 40 40 40 41
23 27 27 28 28 29 28 28 31 31 33 33 34 36 36 35 37 38 38 39 37 36 35 35 35 34 35 36 36 36 36 37 37 38 37 37 37 36 35 35 35 36 40 41
26 26 25 28 29 27 29 31 32 32 32 35 35 35 35 34 35 36 38 38 38 37 37 36 35 35 35 35 35 36 36 36 36 34 35 36 35 35 35 35 34 35 36 39
26 29 28 28 27 28 30 32 32 32 32 33 34 35 36 34 34 35 35 35 35 35 35 34 34 34 34 34 32 33 34 35 35 35 35 35 35 34 34 34 34 34 34 35
27 27 28 27 27 29 29 32 32 32 32 33 33 33 34 36 36 34 34 35 34 34 34 33 33 33 34 33 32 32 31 31 33 33 32 33 34 34 34 34 34 34 34 35
25 27 29 29 28 28 29 31 32 32 32 33 33 32 32 32 32 33 33 33 32 32 33 31 32 33 34 33 32 31 30 30 30 32 33 32 33 33 33 33 33 33 34 34
29 29 30 30 29 29 31 32 33 33 33 32 32 31 31 30 31 31 29 28 27 25 27 31 33 32 31 31 32 29 29 29 29 29 31 33 33 32 32 32 32 33 33 33
30 31 31 30 30 31 31 32 33 33 33 32 29 25 24 24 22 20 19 18 20 22 25 29 29 29 30 29 31 27 27 27 27 27 29 29 31 31 32 33 32 32 32 32
31 30 31 31 31 31 31 32 32 31 32 29 25 20 18 17 19 20 19 23 25 23 25 28 27 27 27 28 28 26 26 26 26 25 25 27 27 30 31 31 31 31 31 31
31 31 31 31 31 31 32 32 31 30 24 18 16 17 21 24 25 27 27 26 26 26 25 25 25 27 28 30 23 23 23 23 23 22 21 23 23 24 27 28 28 29 29 29
32 32 31 31 31 32 30 26 23 20 18 17 19 23 25 26 25 25 25 26 27 29 27 25 28 31 31 26 22 22 22 23 23 23 23 21 20 19 19 20 22 24 24 24
31 31 32 31 31 29 26 25 26 24 23 27 29 29 27 25 24 25 26 27 29 29 27 27 27 29 30 28 26 25 21 23 22 22 22 26 22 21 21 22 21 20 22 23
30 30 29 29 30 27 24 25 25 24 26 26 25 24 25 25 24 25 24 24 27 27 25 28 28 27 24 25 25 27 26 24 24 23 24 23 22 21 21 20 22 22 22 22
30 30 30 28 27 27 27 26 25 22 23 22 22 23 23 24 23 22 21 21 20 20 21 22 23 23 24 23 22 23 24 27 27 26 26 24 23 23 23 22 24 23 23 23
27 29 26 26 26 27 27 26 24 22 23 21 19 22 22 18 18 17 17 15 16 17 18 19 20 21 21 22 22 20 21 22 25 27 24 25 24 24 24 23 23 23 23 23

GFSNGP_sfc_dewp_120.txt.gz
Dewpoint
20 22 22 22 20 19 15 21 14 21 24 30 32 32 34 35 35 35 35 36 36 36 36 36 37 42 44 45 47 51 53 53 53 56 56 56 54 53 52 53 53 54 54 54
14 23 25 21 20 19 19 22 24 25 26 32 34 33 34 35 36 35 35 36 37 37 37 37 38 38 39 44 45 47 49 49 50 52 52 51 50 49 48 46 45 46 46 47
14 22 18 8 22 19 27 27 27 23 26 32 33 35 35 36 36 37 37 37 37 37 37 38 38 39 39 39 45 45 45 46 47 49 49 48 48 47 46 45 44 44 44 44
13 13 -7 7 29 29 29 28 30 30 32 34 35 37 36 36 35 37 37 38 39 39 38 39 39 40 40 40 39 44 44 44 44 45 46 46 46 45 44 43 43 43 43 43
12 12 12 22 28 29 28 22 29 30 32 34 35 35 34 37 36 36 36 37 39 39 39 39 39 39 40 41 41 41 42 42 44 44 43 44 43 44 43 41 40 42 42 41
17 12 6 12 26 31 27 19 32 32 32 32 33 33 32 35 37 37 38 38 38 38 39 38 38 39 39 39 39 39 40 41 42 44 43 42 42 41 41 40 40 40 42 41
15 14 16 18 31 31 16 -3 34 34 33 33 31 32 34 36 35 36 37 37 37 37 37 38 38 38 37 37 37 39 40 41 41 42 43 42 40 40 39 40 39 39 40 40
17 14 2 30 31 21 21 32 35 35 34 34 33 33 32 31 31 34 36 37 37 36 37 37 37 37 36 36 38 39 39 40 40 40 41 42 40 38 38 38 37 37 38 38
17 15 16 31 26 31 33 33 34 34 34 34 34 31 28 29 29 29 34 37 37 36 36 36 36 36 35 35 37 38 38 39 39 39 41 40 38 37 36 36 36 36 37 37
18 14 21 26 31 32 32 32 33 33 32 30 28 28 29 29 29 29 30 36 36 36 35 35 35 35 34 35 36 37 37 38 39 40 43 42 41 39 39 38 38 37 36 36
20 21 22 23 29 32 33 31 29 29 29 28 28 28 29 29 30 30 31 35 36 36 35 35 35 34 34 35 36 36 37 37 39 40 40 41 42 41 40 39 39 38 38 38
13 17 16 16 25 32 31 30 30 29 28 28 28 28 30 30 30 31 31 34 36 35 35 36 36 35 34 34 35 35 37 38 38 39 39 39 40 40 41 41 41 41 41 40
16 19 23 28 30 31 30 30 30 29 28 28 31 32 34 35 30 32 35 36 36 36 36 35 35 35 35 36 36 36 35 37 38 39 38 38 38 37 36 38 40 40 41 41
23 27 26 28 29 30 30 29 32 28 29 31 32 35 35 34 37 37 38 37 36 36 36 35 36 35 35 36 36 36 36 37 36 36 36 36 36 35 36 35 35 35 39 41
21 25 24 28 29 28 28 30 29 30 32 33 34 34 34 34 33 34 36 38 37 38 37 37 36 36 35 35 34 34 35 35 36 36 35 36 35 34 34 34 34 35 35 37
22 26 27 28 28 28 28 30 30 31 32 33 33 35 34 34 33 33 35 34 34 34 35 35 34 35 34 34 33 32 32 33 33 34 34 34 34 34 34 34 34 34 34 34
26 26 27 27 28 27 28 29 30 32 32 32 32 34 34 33 34 34 34 35 35 35 35 34 33 34 34 34 33 31 31 31 31 30 30 30 31 31 32 33 33 33 34 35
23 24 27 26 27 27 29 31 32 32 32 32 33 33 33 32 32 32 32 32 31 31 30 30 31 32 33 33 32 30 29 28 28 28 30 29 30 32 32 32 32 33 34 34
24 25 27 28 28 28 29 31 32 32 32 33 33 32 32 31 30 30 29 26 25 23 22 28 32 31 30 30 31 30 29 27 27 27 28 29 28 28 29 30 32 32 32 32
27 28 29 29 29 29 30 31 32 32 32 33 32 31 26 27 26 24 19 18 19 21 22 25 28 28 28 29 31 28 27 26 25 25 26 26 26 27 27 28 30 31 32 32
29 30 30 30 29 30 31 32 32 31 32 32 30 26 23 20 18 19 20 23 26 26 25 26 25 26 27 28 28 26 26 25 24 23 23 23 25 25 25 26 30 30 30 31
30 30 30 30 30 30 31 31 31 31 31 30 27 21 17 20 24 25 26 26 27 28 27 26 25 27 28 30 24 24 23 23 23 21 20 21 21 22 24 24 24 27 25 26
31 31 30 30 30 30 29 29 29 30 28 23 17 16 21 24 25 25 24 26 27 28 27 25 27 28 29 28 27 27 26 26 24 23 22 20 21 20 21 22 23 22 18 20
31 31 31 31 31 30 27 26 25 23 21 19 19 24 27 25 23 24 25 27 27 28 26 26 27 28 27 23 25 26 27 26 26 25 23 27 23 20 19 20 22 21 20 21
31 31 31 30 30 29 26 24 24 23 25 26 27 26 25 24 23 24 23 23 24 22 21 21 23 24 24 23 22 22 22 23 25 26 24 23 23 23 21 20 21 21 20 19
31 31 31 30 30 28 26 25 25 25 25 24 23 23 24 24 22 21 19 18 17 18 18 19 19 20 21 22 22 22 21 20 20 22 25 25 24 23 23 21 20 21 23 22
30 31 28 27 27 26 26 26 25 24 26 21 20 22 22 18 18 15 16 15 15 16 17 17 18 19 19 19 20 20 19 19 21 21 23 25 25 23 23 23 22 22 23 24

GFSNGP_sfc_dewp_126.txt.gz
Dewpoint
19 19 22 22 21 20 14 20 12 16 22 26 31 32 32 33 36 37 37 38 38 37 37 38 38 39 39 43 45 48 51 53 54 55 55 55 54 54 55 55 55 55 56 57
11 21 23 22 22 21 19 22 23 23 24 28 30 33 33 34 36 36 36 37 38 38 38 38 38 39 40 40 43 44 44 46 49 51 51 50 50 50 51 51 51 51 52 52
7 19 14 1 13 21 21 23 24 22 23 30 31 33 33 35 35 35 36 36 37 37 37 37 37 39 39 40 41 40 41 42 43 45 46 46 47 47 46 46 46 47 48 49
12 9 -17 0 23 23 23 26 27 27 27 32 33 34 35 35 34 35 37 36 36 36 37 37 37 38 38 39 39 39 40 40 41 42 43 44 44 44 44 44 44 45 45 45
11 8 1 14 23 26 24 15 27 28 29 31 33 33 33 36 36 34 35 36 36 36 37 36 36 37 37 37 38 38 39 39 40 41 41 41 41 41 41 40 40 42 43 43
14 3 -8 -8 24 29 25 -3 20 29 29 31 32 27 29 33 35 35 35 36 36 36 36 36 36 36 36 36 36 37 38 39 39 40 40 40 40 40 39 39 40 40 41 41
13 10 6 8 28 28 5 -14 27 30 30 31 30 31 31 35 34 33 34 35 35 34 35 35 36 35 35 35 35 36 38 39 39 39 39 39 39 38 38 38 38 38 38 40
15 12 -9 21 28 15 6 25 30 31 31 32 32 32 33 33 33 32 33 33 34 34 35 35 35 35 34 34 35 36 37 37 38 38 39 39 38 37 36 36 36 36 37 38
13 8 7 29 25 28 22 28 32 31 32 33 33 33 33 31 30 29 29 31 35 34 34 34 34 34 33 34 34 36 36 36 37 38 38 38 38 37 36 37 37 39 38 38
15 14 18 19 25 31 30 31 32 33 33 34 32 33 32 30 28 29 29 29 32 34 33 33 33 34 33 33 34 35 35 35 36 37 39 38 39 38 37 38 39 39 39 39
19 18 18 18 20 21 25 31 32 33 34 33 33 32 31 29 29 29 30 30 31 34 33 33 33 33 32 33 33 33 33 34 35 36 36 37 38 38 37 37 40 40 40 40
9 11 10 10 12 20 23 28 31 32 30 32 33 32 29 29 29 29 29 30 31 33 34 34 34 33 33 33 34 33 33 33 34 34 34 34 34 35 37 39 39 40 40 41
11 13 15 14 22 24 25 26 31 32 31 30 29 29 29 29 30 32 31 30 33 34 34 34 34 34 34 35 35 34 33 34 34 35 34 33 35 35 35 36 38 38 39 39
18 20 18 22 18 23 28 29 33 31 30 30 29 29 30 31 33 33 32 34 34 34 34 34 34 35 36 36 35 34 34 35 35 35 35 33 32 34 34 33 33 33 36 36
18 20 18 20 24 24 29 30 30 30 29 28 29 30 32 32 32 33 33 35 35 35 37 37 37 36 36 35 34 33 33 33 33 33 31 31 29 29 30 30 30 30 31 33
18 19 21 21 21 24 28 29 30 30 29 29 29 31 32 32 31 31 33 33 32 33 34 34 33 33 33 32 32 33 34 33 33 29 28 27 28 28 27 27 27 27 28 30
17 18 20 21 22 22 26 27 29 30 29 29 30 32 32 32 32 31 31 31 33 34 35 34 33 32 32 33 34 33 32 30 31 28 26 26 26 26 26 26 26 26 26 28
20 20 20 21 20 22 24 27 29 30 30 30 32 33 33 33 33 33 34 34 32 32 30 29 28 30 29 30 30 29 29 28 28 27 27 26 26 26 26 25 25 25 26 26
22 21 21 21 23 23 24 27 29 30 30 31 33 33 33 32 32 33 33 32 30 25 25 23 29 31 29 29 29 28 28 27 27 26 26 27 25 24 24 25 25 25 25 26
24 24 24 24 25 26 26 28 29 30 31 32 32 31 30 30 31 31 30 27 27 24 23 24 25 25 25 26 28 27 27 26 25 24 25 24 24 23 23 25 25 24 25 26
25 26 26 26 27 28 28 29 30 30 32 32 32 31 30 29 30 29 25 23 20 23 26 27 25 26 26 27 28 27 26 26 26 26 24 23 25 24 23 23 23 23 23 24
25 25 26 28 27 27 29 30 30 31 31 31 31 30 29 28 27 23 20 20 26 30 27 26 25 26 27 28 23 22 21 20 19 19 19 20 22 23 23 22 21 22 22 21
26 27 27 28 28 27 28 29 30 31 31 31 30 29 28 26 20 20 22 26 27 29 27 26 26 29 28 23 20 18 18 18 19 19 19 19 22 23 23 22 22 22 21 20
27 28 28 28 28 28 27 28 29 29 29 30 29 28 24 21 23 25 27 29 29 28 25 24 22 23 24 19 16 14 14 15 15 16 19 23 23 22 23 23 23 22 21 21
26 25 24 25 27 27 26 26 26 26 27 27 25 23 23 25 25 25 24 24 26 21 17 19 20 21 20 19 17 17 15 12 10 14 16 17 18 20 21 22 23 22 21 20
24 25 27 27 28 28 27 28 27 25 25 24 24 25 26 24 25 23 20 18 18 18 16 17 18 18 18 17 18 17 16 15 14 14 14 13 13 14 16 19 20 20 20 21
23 28 23 26 26 27 27 27 26 25 25 24 24 24 24 22 20 17 17 15 15 15 16 16 15 16 15 15 14 13 12 12 12 12 12 10 10 11 13 15 17 20 21 21

GFSNGP_sfc_dewp_129.txt.gz
Dewpoint
18 17 21 22 21 21 15 20 16 15 22 24 28 32 33 34 35 36 36 37 38 38 37 38 38 39 40 40 42 45 47 49 51 52 53 53 53 54 54 54 55 56 57 57
13 21 22 22 22 22 20 22 24 23 23 25 29 34 33 34 36 36 36 36 37 37 37 37 37 38 39 39 40 41 42 43 45 48 49 49 49 49 49 49 50 51 52 53
8 16 14 4 11 21 19 22 23 23 22 30 32 33 34 35 36 36 37 36 36 37 37 37 37 38 38 39 39 40 40 40 42 44 45 45 46 46 47 47 47 47 47 48
13 8 -11 2 24 23 20 21 25 26 25 31 32 34 35 36 36 36 37 37 36 36 37 37 37 37 38 38 39 40 40 40 41 41 42 43 43 44 44 44 45 45 45 46
11 9 0 9 19 26 24 14 26 27 27 30 34 36 34 36 36 37 37 37 37 37 37 36 36 36 37 37 38 39 39 40 40 40 41 42 42 42 42 41 41 43 43 44
15 3 -12 -13 21 30 23 -0 18 28 28 29 33 29 28 33 36 37 37 37 37 36 37 36 36 36 36 36 37 38 38 39 40 41 41 41 41 41 41 41 41 41 41 41
13 11 4 4 27 26 -2 -10 20 28 28 31 32 31 30 36 36 36 35 37 37 36 36 36 36 36 35 35 36 37 38 39 40 40 41 40 40 40 40 40 40 40 40 40
15 13 -6 17 29 16 4 11 27 30 30 31 33 32 33 35 35 34 34 35 37 36 36 36 36 35 35 35 35 37 38 38 39 39 40 40 40 39 38 38 38 38 38 39
12 8 5 26 20 27 17 19 30 30 31 32 32 33 33 33 33 33 32 33 35 35 35 35 36 35 34 34 35 36 37 37 37 38 38 39 40 39 39 39 39 39 39 39
15 11 15 16 24 30 28 26 28 32 31 33 32 33 33 33 32 31 30 29 30 34 34 34 34 35 34 34 34 35 35 36 37 37 37 38 38 38 38 38 38 37 37 37
18 18 18 18 18 19 22 28 30 31 32 32 33 32 33 32 31 29 29 30 30 32 34 34 34 34 34 34 34 34 34 34 35 35 35 36 36 37 37 37 39 38 38 39
10 12 10 11 13 19 19 21 26 29 31 33 33 33 32 32 31 29 29 30 30 32 34 34 34 34 34 34 35 34 34 34 35 35 34 35 35 35 36 38 38 39 39 39
13 14 13 13 15 16 19 21 23 28 30 31 32 33 32 30 29 31 29 29 30 31 34 35 35 35 34 35 36 35 35 34 35 36 35 35 34 34 33 33 35 35 35 35
17 16 16 18 15 19 24 24 28 29 30 31 31 31 30 29 30 31 32 31 32 35 35 35 35 34 35 36 36 35 35 35 35 35 35 33 32 32 31 30 29 30 31 31
19 19 18 18 18 18 23 26 28 29 30 30 30 30 29 29 30 32 33 33 35 35 35 36 36 36 36 36 35 34 33 33 34 33 31 31 29 29 28 28 28 28 29 29
22 21 20 20 20 21 25 27 27 26 29 30 29 29 30 30 31 32 33 34 34 34 35 36 35 35 34 33 33 33 33 34 33 31 29 28 28 27 26 26 26 26 27 28
19 19 19 20 20 19 22 23 25 25 28 30 30 30 30 31 31 31 32 32 33 33 34 35 34 34 33 33 33 33 32 30 31 30 27 26 27 26 26 26 26 25 25 27
22 22 21 19 19 19 20 22 24 26 29 30 30 30 31 31 32 31 32 32 33 34 33 33 32 30 30 31 31 30 29 28 27 28 28 27 26 26 26 26 25 25 26 26
23 23 22 21 21 21 22 22 25 27 29 30 30 31 31 32 33 33 32 32 32 31 31 28 28 29 30 29 30 29 28 27 27 27 27 27 26 25 25 25 25 25 25 25
23 23 23 23 24 24 23 25 26 28 30 31 31 31 32 33 32 32 32 31 31 30 26 24 26 27 26 26 28 28 28 28 26 26 26 26 27 26 25 26 25 25 25 25
24 25 25 26 26 26 26 26 28 28 29 31 31 31 31 32 32 31 30 30 29 27 24 27 26 25 26 27 28 27 27 26 26 25 25 24 24 24 24 24 23 22 23 23
24 24 25 25 26 26 27 28 28 29 29 30 30 30 30 30 30 29 29 29 25 27 27 26 26 27 27 29 26 25 24 24 23 21 21 21 21 22 23 23 23 22 22 23
26 26 26 27 27 26 26 27 28 28 29 29 29 29 30 30 29 27 26 24 27 30 28 27 27 29 29 24 23 22 21 21 20 20 20 19 21 21 22 23 23 23 23 22
25 27 27 27 27 26 26 27 27 28 28 28 29 29 27 24 23 25 26 28 30 30 26 26 25 25 25 20 19 19 18 18 16 14 16 20 17 19 20 20 21 22 22 22
25 24 24 24 26 27 24 24 24 24 26 26 26 26 25 25 24 26 27 28 30 24 19 23 23 23 19 19 18 19 17 16 13 14 14 13 14 13 14 15 16 18 20 22
23 25 26 26 27 27 26 25 25 24 25 24 23 23 24 24 26 25 23 23 20 19 17 18 19 18 17 16 16 14 13 12 12 12 13 12 12 11 11 12 13 14 16 19
22 28 24 25 26 26 26 27 25 25 26 25 23 23 23 22 22 20 20 17 15 16 16 16 16 16 14 13 12 10 10 10 11 12 11 9 9 9 9 10 11 13 14 13

GFSNGP_sfc_dewp_132.txt.gz
Dewpoint
18 16 18 21 21 20 23 22 24 16 21 18 20 27 32 34 35 36 36 36 37 37 37 37 37 38 38 40 41 45 47 48 50 51 52 52 52 53 53 54 54 56 57 58
22 20 19 21 21 22 22 20 21 20 21 22 25 28 32 33 35 36 36 36 37 37 37 37 37 38 39 39 40 41 42 44 46 48 49 49 49 49 50 50 51 51 51 52
16 17 17 20 13 15 19 19 20 21 16 25 29 31 31 33 35 36 37 37 36 37 37 37 37 38 38 39 40 40 40 41 42 44 44 46 47 47 48 48 49 48 48 48
20 17 11 5 23 20 19 18 21 22 23 25 28 30 34 35 35 35 37 37 37 37 38 37 37 37 38 40 40 41 41 41 41 42 43 44 44 44 44 45 46 46 46 47
17 9 6 5 6 19 23 10 21 22 21 25 30 34 33 34 36 36 37 37 37 37 38 37 37 37 38 39 40 40 41 41 41 42 42 43 43 44 44 43 44 44 44 45
19 12 1 -8 21 28 26 8 19 24 22 25 31 27 24 31 35 37 38 37 38 38 38 37 37 36 36 38 39 39 40 41 42 42 42 42 43 43 43 43 43 43 42 42
14 14 5 4 27 27 3 -2 13 24 24 28 30 26 29 33 36 38 38 36 38 38 38 37 37 36 36 37 39 40 41 41 42 42 42 42 42 42 42 41 40 40 40 40
13 15 11 18 29 18 9 7 17 25 27 29 30 31 33 35 37 38 36 36 38 37 37 38 38 37 36 37 38 39 40 40 40 40 40 41 42 42 41 41 40 40 40 40
12 12 11 26 22 27 13 16 21 26 29 30 32 32 33 34 35 36 35 34 35 37 37 38 38 37 36 36 37 38 38 38 38 39 39 39 41 40 39 39 39 38 38 39
13 13 15 15 22 27 27 24 23 29 28 31 30 31 32 33 34 34 34 33 33 34 34 35 36 37 36 35 35 36 36 36 37 37 37 37 38 38 38 38 37 37 37 37
14 14 17 17 18 16 18 25 28 28 30 31 31 31 32 32 33 34 33 32 31 30 31 33 35 36 36 35 35 35 35 36 37 37 36 36 37 37 36 37 37 36 36 37
12 13 14 14 15 19 19 20 22 25 28 31 32 32 33 33 33 34 32 32 31 31 31 32 33 36 36 36 35 36 36 36 36 36 36 36 35 35 37 37 36 37 36 35
15 16 17 17 17 16 16 20 21 22 25 26 30 32 32 33 33 34 32 31 31 31 31 32 34 36 37 36 36 36 37 36 36 36 36 35 35 34 34 34 33 33 32 31
18 17 18 19 18 18 18 18 24 23 24 27 27 31 33 33 33 33 32 31 30 31 32 33 36 36 37 36 36 37 36 36 36 36 36 36 35 34 32 30 28 28 29 30
20 20 19 19 19 19 20 21 23 24 25 27 30 30 31 33 33 33 32 31 32 33 36 37 36 36 36 36 36 36 35 35 35 35 34 33 33 30 28 28 27 27 28 28
23 23 23 22 22 21 21 21 22 22 23 25 28 30 31 32 32 32 32 32 33 36 36 37 36 36 36 35 35 34 34 34 34 33 32 31 28 27 25 25 25 26 26 27
23 23 24 23 23 21 21 21 22 24 24 24 25 28 30 31 31 31 32 34 34 35 36 36 36 36 35 34 34 34 34 33 30 30 31 29 27 26 25 25 26 26 25 26
24 24 23 22 21 21 21 21 21 22 24 26 27 29 30 31 31 31 32 34 35 35 35 36 35 34 33 33 34 33 29 27 27 27 28 28 27 27 27 27 26 26 26 26
24 24 24 24 23 23 22 22 22 23 24 25 28 30 31 32 32 32 34 34 34 34 34 34 33 33 31 32 31 29 28 27 27 27 28 28 28 27 27 27 26 25 24 24
24 24 25 24 25 25 23 24 24 26 28 29 31 32 32 33 33 33 34 33 34 34 33 31 29 29 29 30 31 29 28 28 28 27 27 25 25 25 25 26 25 23 22 21
26 26 27 28 27 28 27 26 26 27 28 30 31 31 31 32 33 33 33 33 32 32 28 27 27 27 26 27 29 29 28 27 26 26 26 25 24 23 23 22 22 21 21 21
24 25 26 27 27 27 27 28 28 28 29 30 31 31 32 32 33 33 33 33 31 31 26 27 28 28 28 30 29 28 27 26 26 25 24 23 23 22 22 22 22 22 22 22
28 26 26 26 26 26 27 28 29 29 29 30 31 31 32 32 32 31 30 28 29 29 26 27 29 30 30 28 27 26 25 23 22 21 20 21 21 21 20 20 20 21 23 23
29 28 28 28 28 27 27 28 29 29 30 30 31 32 31 30 29 30 30 29 31 30 28 29 30 30 27 22 21 20 20 20 19 18 17 18 17 17 17 16 16 16 16 18
30 30 30 29 29 28 29 29 29 29 30 30 30 30 30 30 30 27 27 28 32 28 27 29 28 27 19 18 18 19 18 17 17 16 14 15 15 15 14 14 14 14 15 16
28 28 28 29 29 29 29 28 29 29 29 28 27 27 26 26 28 28 28 29 26 25 23 23 21 18 17 17 15 13 12 12 12 12 14 14 14 14 13 13 13 13 13 14
28 28 28 28 28 28 28 28 28 28 29 28 26 25 25 26 26 26 25 21 19 17 18 19 18 16 15 14 12 10 11 11 12 14 14 13 14 14 13 13 13 13 13 13

GFSNGP_sfc_dewp_135.txt.gz
Dewpoint
18 15 15 17 19 18 24 23 24 15 18 14 14 18 25 30 32 34 35 36 36 37 37 37 37 37 38 39 41 45 47 50 51 51 51 51 52 52 53 53 54 55 56 56
23 17 18 15 16 18 20 21 21 18 17 16 18 23 27 29 33 33 34 36 36 37 37 37 37 38 39 39 39 40 42 44 47 50 50 51 51 51 51 51 51 51 52 52
20 14 18 22 16 16 16 18 19 18 14 20 21 26 28 29 32 33 35 36 36 37 37 37 37 38 38 39 40 40 40 41 42 44 44 46 46 47 48 49 49 48 48 49
22 23 19 13 19 15 13 14 17 17 16 18 21 22 28 31 31 32 35 36 36 37 38 37 37 37 38 39 40 41 41 41 42 42 43 44 44 45 44 45 46 46 47 48
20 12 9 4 3 19 19 13 14 16 15 16 20 27 29 30 32 33 34 36 36 37 38 37 37 37 38 38 39 40 41 41 41 42 42 43 43 44 45 45 46 45 45 44
21 15 7 -2 9 22 22 9 16 16 15 16 24 24 18 26 31 34 35 37 37 37 37 37 37 37 36 37 39 40 41 41 42 42 42 42 43 44 44 44 43 44 42 42
20 16 9 7 22 25 7 7 18 18 18 19 24 22 30 32 34 35 36 37 37 37 37 37 38 37 36 37 39 40 41 41 41 41 42 43 43 43 43 41 40 40 40 40
16 17 15 23 26 13 12 11 11 18 22 23 25 25 29 33 33 36 37 37 37 36 36 38 39 38 37 37 39 40 40 40 40 40 40 42 43 42 41 40 40 39 39 40
15 16 15 25 19 23 20 13 16 20 26 27 29 27 28 32 33 35 36 36 36 36 36 38 39 38 37 37 37 38 38 38 38 38 38 38 40 40 38 37 37 36 36 37
12 12 14 18 24 23 24 25 22 23 24 26 27 29 28 29 31 33 35 34 34 34 34 35 36 37 37 36 36 36 36 36 37 37 37 37 37 38 37 36 35 34 35 35
13 13 14 15 16 17 18 20 24 25 25 26 28 28 29 30 30 32 34 35 34 33 33 33 33 35 36 37 35 35 35 36 37 36 36 36 36 36 36 37 37 35 35 36
13 15 14 14 16 17 19 21 22 23 25 27 28 29 31 31 31 32 33 35 34 33 33 31 31 33 35 37 36 35 35 36 36 36 36 35 35 35 37 36 35 36 35 34
16 17 16 17 18 19 19 20 20 21 23 23 26 29 30 31 32 35 34 34 34 33 33 32 31 32 35 36 36 36 36 37 37 37 36 36 35 34 34 35 35 34 32 31
19 18 19 19 19 20 21 20 24 20 21 22 23 25 29 30 32 33 34 34 34 33 33 31 30 31 35 37 36 37 37 38 36 37 38 37 36 35 34 31 29 30 32 30
22 21 20 20 20 20 21 22 22 21 22 22 25 26 28 30 32 33 35 35 33 32 31 31 32 33 36 37 37 37 37 36 35 36 36 35 35 34 31 29 29 29 29 30
25 25 24 24 23 22 22 22 22 22 22 22 23 26 28 30 32 33 34 34 31 31 32 34 35 37 37 37 37 37 36 36 35 35 34 33 33 29 28 27 27 27 28 29
26 25 26 25 25 23 22 23 22 24 24 22 22 25 28 30 31 31 33 33 32 33 35 37 37 38 37 36 36 35 35 35 35 33 30 32 30 28 28 27 27 27 27 28
27 27 26 25 24 23 23 23 23 22 23 25 25 25 26 29 29 31 33 33 33 34 37 37 38 37 35 35 35 34 34 33 30 28 29 30 29 29 29 28 28 27 27 27
26 26 26 25 25 24 24 24 23 23 23 24 24 26 29 30 31 32 34 34 34 35 36 37 36 35 34 35 35 34 31 28 28 28 28 29 29 28 28 27 27 27 26 25
26 27 27 26 27 27 25 25 25 26 27 27 29 30 32 33 33 34 34 34 35 35 36 35 34 34 33 33 33 30 28 28 28 28 28 27 26 26 26 26 26 25 24 23
26 27 27 28 28 29 28 26 26 27 27 28 28 30 31 31 32 33 33 32 34 36 34 34 33 31 30 31 31 29 29 29 28 28 27 27 26 25 24 23 23 23 22 22
24 25 27 29 29 28 28 28 28 28 27 28 29 30 31 31 32 33 33 33 34 34 31 30 29 30 29 30 30 30 29 28 27 27 26 25 24 23 23 23 23 23 23 23
29 27 27 26 26 26 27 28 28 28 29 30 31 31 32 32 33 32 32 33 32 31 29 28 29 30 31 30 29 28 27 27 25 23 22 22 22 22 21 20 19 19 19 19
31 29 28 28 28 27 27 28 29 29 30 31 32 32 33 32 32 33 33 33 33 31 28 29 31 31 31 28 27 25 23 22 21 20 19 18 19 19 18 17 17 17 16 16
32 32 32 31 29 29 31 30 30 30 30 31 31 32 32 32 31 30 30 30 31 29 29 31 32 31 23 21 20 20 20 20 20 18 16 17 17 17 16 16 16 16 16 16
31 29 29 31 30 30 30 30 30 31 30 30 30 30 30 29 29 29 30 30 28 29 28 29 27 20 18 17 17 15 14 14 13 13 15 16 16 16 16 15 15 15 16 16
30 30 29 28 28 29 29 29 29 29 30 29 28 28 28 28 28 29 29 26 24 24 23 22 20 18 17 15 13 12 12 12 14 15 16 16 16 16 16 16 16 16 16 15